[[{"header":{"parameterUnit":"m.s-1","parameterCategory":1,"la1":30.6,"la2":29.2853,"lo1":-89.7004,"lo2":-87.6739,"dy":0.0162,"dx":0.0183,"nx":112,"ny":82,"refTime":"2023-03-03T06:00:00:Z","depth":0,"parameterNumber":2,"parameterNumberName":"U-component_of_WINDS"},"data":[0.0,0.0,0.0,0.0,0.0,0.0,0.0,0.0,0.0,0.0,0.0,0.0,0.0,0.0,0.0,0.0,0.0,0.0,0.0,0.0,0.0,0.0,0.0,0.0,0.0,0.0,0.0,0.0,0.0,0.0,0.0,0.0,0.0,0.0,0.0,0.0,0.0,0.0,0.0,0.0,0.0,0.0,0.0,0.0,0.0,0.0,0.0,0.0,0.0,0.0,0.0,0.0,0.0,0.0,0.0,0.0,0.0,0.0,0.0,0.0,0.0,0.0,0.0,0.0,0.0,0.0,0.0,0.0,0.0,0.0,0.0,0.0,0.0,0.0,0.0,0.0,0.0,0.0,0.0,0.0,0.0,0.0,0.0,0.0,0.0,0.0,0.0,0.0,0.0,0.0,-8.4737,-8.8119,-9.2948,-9.6595,-9.7875,-9.8101,-9.7884,-9.6899,0.0,0.0,0.0,0.0,0.0,0.0,0.0,0.0,0.0,0.0,0.0,0.0,0.0,0.0,0.0,0.0,0.0,0.0,0.0,0.0,0.0,0.0,0.0,0.0,0.0,0.0,0.0,0.0,0.0,0.0,0.0,0.0,0.0,0.0,0.0,0.0,0.0,0.0,0.0,0.0,0.0,0.0,0.0,0.0,0.0,0.0,0.0,0.0,0.0,0.0,0.0,0.0,0.0,0.0,0.0,0.0,0.0,0.0,0.0,0.0,0.0,0.0,0.0,0.0,0.0,0.0,0.0,0.0,0.0,0.0,0.0,0.0,0.0,0.0,0.0,0.0,0.0,0.0,0.0,0.0,0.0,0.0,0.0,0.0,0.0,0.0,0.0,0.0,0.0,0.0,0.0,0.0,0.0,0.0,0.0,0.0,0.0,0.0,0.0,0.0,0.0,0.0,0.0,0.0,-8.6073,-9.0648,-9.3964,-9.6765,-9.8561,-9.7527,-9.7307,-9.8118,0.0,0.0,0.0,0.0,0.0,0.0,0.0,0.0,0.0,0.0,0.0,0.0,0.0,0.0,0.0,0.0,0.0,0.0,0.0,0.0,0.0,0.0,0.0,0.0,0.0,0.0,0.0,0.0,0.0,0.0,0.0,0.0,0.0,0.0,0.0,0.0,0.0,0.0,0.0,0.0,0.0,0.0,0.0,0.0,0.0,0.0,0.0,0.0,0.0,0.0,0.0,0.0,0.0,0.0,0.0,0.0,0.0,0.0,0.0,0.0,0.0,0.0,0.0,0.0,0.0,0.0,0.0,0.0,0.0,0.0,0.0,0.0,0.0,0.0,0.0,0.0,0.0,0.0,0.0,0.0,0.0,0.0,0.0,0.0,0.0,0.0,0.0,0.0,0.0,0.0,0.0,0.0,0.0,0.0,0.0,0.0,0.0,0.0,0.0,0.0,0.0,0.0,0.0,-8.4766,-8.8249,-9.3429,-9.5626,-9.718,-9.8889,-9.7847,-9.747,-9.815,-9.7903,0.0,0.0,0.0,0.0,0.0,0.0,0.0,0.0,0.0,0.0,0.0,0.0,0.0,0.0,0.0,0.0,0.0,0.0,0.0,0.0,0.0,0.0,0.0,0.0,0.0,0.0,0.0,0.0,0.0,0.0,0.0,0.0,0.0,0.0,0.0,0.0,0.0,0.0,0.0,0.0,0.0,0.0,0.0,0.0,0.0,0.0,0.0,0.0,0.0,0.0,0.0,0.0,0.0,0.0,0.0,0.0,0.0,0.0,0.0,0.0,0.0,0.0,0.0,0.0,0.0,0.0,0.0,0.0,0.0,0.0,0.0,0.0,0.0,0.0,0.0,0.0,0.0,0.0,0.0,0.0,0.0,0.0,0.0,0.0,0.0,0.0,0.0,0.0,0.0,0.0,0.0,0.0,0.0,0.0,0.0,0.0,0.0,0.0,0.0,0.0,0.0,0.0,-8.6188,-8.9683,-9.4931,-9.6569,-9.7785,-9.9117,-9.8128,-9.7647,-9.8158,-9.7787,0.0,0.0,0.0,0.0,0.0,0.0,0.0,0.0,0.0,0.0,0.0,0.0,0.0,0.0,0.0,0.0,0.0,0.0,0.0,0.0,0.0,0.0,0.0,0.0,0.0,0.0,0.0,0.0,0.0,0.0,0.0,0.0,0.0,0.0,0.0,0.0,0.0,0.0,0.0,0.0,0.0,0.0,0.0,0.0,0.0,0.0,0.0,0.0,0.0,0.0,0.0,0.0,0.0,0.0,0.0,0.0,0.0,0.0,0.0,0.0,0.0,0.0,0.0,0.0,0.0,0.0,0.0,0.0,0.0,0.0,0.0,0.0,0.0,0.0,0.0,0.0,0.0,0.0,0.0,0.0,0.0,0.0,0.0,0.0,0.0,0.0,0.0,0.0,0.0,0.0,0.0,0.0,0.0,0.0,0.0,0.0,0.0,0.0,0.0,0.0,0.0,0.0,-8.6223,-8.9564,-9.2692,-9.6066,-9.8498,-9.9739,-9.7932,-9.7584,-9.9142,-9.83,0.0,0.0,0.0,0.0,0.0,0.0,0.0,0.0,0.0,0.0,0.0,0.0,0.0,0.0,0.0,0.0,0.0,0.0,0.0,0.0,0.0,0.0,0.0,0.0,0.0,0.0,0.0,0.0,0.0,0.0,0.0,0.0,0.0,0.0,0.0,0.0,0.0,0.0,0.0,0.0,0.0,0.0,0.0,0.0,0.0,0.0,0.0,0.0,0.0,0.0,0.0,0.0,0.0,0.0,0.0,0.0,0.0,0.0,0.0,0.0,0.0,0.0,0.0,0.0,0.0,0.0,0.0,0.0,0.0,0.0,0.0,0.0,0.0,0.0,0.0,0.0,0.0,0.0,0.0,0.0,0.0,0.0,0.0,0.0,0.0,0.0,0.0,0.0,0.0,0.0,0.0,0.0,0.0,0.0,0.0,0.0,0.0,0.0,0.0,0.0,0.0,0.0,-8.5179,-8.8119,-9.2828,-9.5251,-9.7361,-9.968,-9.8095,-9.7505,-9.8931,0.0,0.0,0.0,0.0,0.0,0.0,0.0,0.0,0.0,0.0,0.0,0.0,0.0,0.0,0.0,0.0,0.0,0.0,0.0,0.0,0.0,0.0,0.0,0.0,0.0,0.0,0.0,0.0,0.0,0.0,0.0,0.0,0.0,0.0,0.0,0.0,0.0,0.0,0.0,0.0,0.0,0.0,0.0,0.0,0.0,0.0,0.0,0.0,0.0,0.0,0.0,0.0,0.0,0.0,0.0,0.0,0.0,0.0,0.0,0.0,0.0,0.0,0.0,0.0,0.0,0.0,0.0,0.0,0.0,0.0,0.0,0.0,0.0,0.0,0.0,0.0,0.0,0.0,0.0,0.0,0.0,0.0,0.0,0.0,0.0,0.0,0.0,0.0,0.0,0.0,0.0,0.0,0.0,0.0,0.0,0.0,0.0,0.0,0.0,0.0,0.0,0.0,-8.2291,-8.4536,-8.7512,-9.2013,-9.4752,-9.7077,-9.9242,-9.7934,-9.756,-9.8961,0.0,0.0,0.0,0.0,0.0,0.0,0.0,0.0,0.0,0.0,0.0,0.0,0.0,0.0,0.0,0.0,0.0,0.0,0.0,0.0,0.0,0.0,0.0,0.0,0.0,0.0,0.0,0.0,0.0,0.0,0.0,0.0,0.0,0.0,0.0,0.0,0.0,0.0,0.0,0.0,0.0,0.0,0.0,0.0,0.0,0.0,0.0,0.0,0.0,0.0,0.0,0.0,0.0,0.0,0.0,0.0,0.0,0.0,0.0,0.0,0.0,0.0,0.0,0.0,0.0,0.0,0.0,0.0,0.0,0.0,0.0,0.0,0.0,0.0,0.0,0.0,0.0,0.0,0.0,0.0,0.0,0.0,0.0,0.0,0.0,0.0,0.0,0.0,0.0,0.0,0.0,0.0,0.0,0.0,0.0,0.0,0.0,0.0,0.0,0.0,0.0,0.0,-8.1239,-8.4895,-8.7702,-8.9246,-9.4806,-9.8182,-9.8182,-9.754,-9.773,0.0,0.0,0.0,0.0,0.0,0.0,0.0,0.0,0.0,0.0,0.0,0.0,0.0,0.0,0.0,0.0,0.0,0.0,0.0,0.0,0.0,0.0,0.0,0.0,0.0,0.0,0.0,0.0,0.0,0.0,0.0,0.0,0.0,0.0,0.0,0.0,0.0,0.0,0.0,0.0,0.0,0.0,0.0,0.0,0.0,0.0,0.0,0.0,0.0,0.0,0.0,0.0,0.0,0.0,0.0,0.0,0.0,0.0,0.0,0.0,0.0,0.0,0.0,0.0,0.0,0.0,0.0,0.0,0.0,0.0,0.0,0.0,0.0,0.0,0.0,0.0,0.0,0.0,0.0,0.0,0.0,0.0,0.0,0.0,0.0,0.0,0.0,0.0,0.0,0.0,0.0,0.0,0.0,0.0,0.0,0.0,0.0,0.0,0.0,0.0,0.0,0.0,0.0,-8.2058,-8.3881,-8.649,-9.0334,-9.413,-9.6974,-9.851,-9.7737,-9.7371,-9.8365,0.0,0.0,0.0,0.0,0.0,0.0,0.0,0.0,0.0,0.0,0.0,0.0,0.0,0.0,0.0,0.0,0.0,0.0,0.0,0.0,0.0,0.0,0.0,0.0,0.0,0.0,0.0,0.0,0.0,0.0,0.0,0.0,0.0,0.0,0.0,0.0,0.0,0.0,0.0,0.0,0.0,0.0,0.0,0.0,0.0,0.0,0.0,0.0,0.0,0.0,0.0,0.0,0.0,0.0,0.0,0.0,0.0,0.0,0.0,0.0,0.0,0.0,0.0,0.0,0.0,0.0,0.0,0.0,0.0,0.0,0.0,0.0,0.0,0.0,0.0,0.0,0.0,0.0,0.0,0.0,0.0,0.0,0.0,0.0,0.0,0.0,0.0,0.0,0.0,0.0,0.0,0.0,0.0,0.0,0.0,0.0,0.0,0.0,0.0,0.0,0.0,0.0,-8.2981,-8.4465,-8.6671,-9.039,-9.3451,-9.5813,-9.7799,-9.671,-9.6307,-9.6912,0.0,0.0,0.0,0.0,0.0,0.0,0.0,0.0,0.0,0.0,0.0,0.0,0.0,0.0,0.0,0.0,0.0,0.0,0.0,0.0,0.0,0.0,0.0,0.0,0.0,0.0,0.0,0.0,0.0,0.0,0.0,0.0,0.0,0.0,0.0,0.0,0.0,0.0,0.0,0.0,0.0,0.0,0.0,0.0,0.0,0.0,0.0,0.0,0.0,0.0,0.0,0.0,0.0,0.0,0.0,0.0,0.0,0.0,0.0,0.0,0.0,0.0,0.0,0.0,0.0,0.0,0.0,0.0,0.0,0.0,0.0,0.0,0.0,0.0,0.0,0.0,0.0,0.0,0.0,0.0,0.0,0.0,0.0,0.0,0.0,0.0,0.0,0.0,0.0,0.0,0.0,0.0,0.0,0.0,0.0,0.0,0.0,0.0,0.0,0.0,0.0,0.0,-8.3948,-8.5832,-8.773,-9.004,-9.2793,-9.5044,-9.6235,-9.5252,-9.484,-9.5373,0.0,0.0,0.0,0.0,0.0,0.0,0.0,0.0,0.0,0.0,0.0,0.0,0.0,0.0,0.0,0.0,0.0,0.0,0.0,0.0,0.0,0.0,0.0,0.0,0.0,0.0,0.0,0.0,0.0,0.0,0.0,0.0,0.0,0.0,0.0,0.0,0.0,0.0,0.0,0.0,0.0,0.0,0.0,0.0,0.0,0.0,0.0,0.0,0.0,0.0,0.0,0.0,0.0,0.0,0.0,0.0,0.0,0.0,0.0,0.0,-5.2751,-5.3033,0.0,0.0,0.0,0.0,0.0,0.0,0.0,0.0,0.0,0.0,0.0,0.0,0.0,0.0,0.0,0.0,0.0,0.0,0.0,0.0,0.0,0.0,0.0,0.0,0.0,0.0,0.0,0.0,0.0,0.0,0.0,0.0,0.0,0.0,0.0,0.0,0.0,0.0,0.0,0.0,-8.453,-8.6419,-8.8433,-9.1145,-9.3611,-9.5614,-9.6753,-9.5831,-9.5096,-9.486,-9.3357,0.0,0.0,0.0,0.0,0.0,0.0,0.0,0.0,0.0,0.0,0.0,0.0,0.0,0.0,0.0,0.0,0.0,0.0,0.0,0.0,0.0,0.0,0.0,0.0,0.0,0.0,0.0,0.0,0.0,0.0,0.0,0.0,0.0,0.0,0.0,0.0,0.0,0.0,0.0,0.0,0.0,0.0,0.0,0.0,0.0,0.0,0.0,0.0,0.0,0.0,0.0,0.0,0.0,0.0,0.0,0.0,0.0,0.0,0.0,-5.4125,-5.3688,0.0,0.0,0.0,0.0,0.0,0.0,0.0,0.0,0.0,0.0,0.0,0.0,0.0,0.0,0.0,0.0,0.0,0.0,0.0,0.0,0.0,0.0,0.0,0.0,0.0,0.0,0.0,0.0,0.0,0.0,0.0,0.0,0.0,0.0,0.0,0.0,0.0,0.0,0.0,0.0,-8.5022,-8.6901,-8.9086,-9.1898,-9.3815,-9.5109,-9.5925,-9.509,-9.3725,-9.2411,-9.285,0.0,0.0,0.0,0.0,0.0,0.0,0.0,0.0,0.0,0.0,0.0,0.0,0.0,0.0,0.0,0.0,0.0,0.0,0.0,0.0,0.0,0.0,0.0,0.0,0.0,0.0,0.0,0.0,0.0,0.0,0.0,0.0,0.0,0.0,0.0,0.0,0.0,0.0,0.0,0.0,0.0,0.0,0.0,0.0,0.0,0.0,0.0,0.0,0.0,0.0,0.0,0.0,0.0,-5.5543,-5.6123,-5.6797,-5.6055,-5.6172,-5.6836,-5.5927,-5.4785,-5.3476,-5.3242,0.0,0.0,0.0,0.0,0.0,0.0,0.0,0.0,0.0,0.0,0.0,0.0,0.0,0.0,0.0,0.0,0.0,0.0,0.0,0.0,0.0,0.0,-6.5309,-6.7157,-6.7642,-6.7279,-6.6803,0.0,0.0,0.0,0.0,0.0,0.0,0.0,0.0,0.0,0.0,0.0,-8.5239,-8.7379,-8.9505,-9.206,-9.3262,-9.4063,-9.4614,-9.3663,-9.221,-9.0407,-9.2404,-9.3061,0.0,0.0,0.0,0.0,0.0,0.0,0.0,0.0,0.0,0.0,0.0,0.0,0.0,0.0,0.0,0.0,0.0,0.0,0.0,0.0,0.0,0.0,0.0,0.0,0.0,0.0,0.0,0.0,0.0,0.0,0.0,0.0,-3.2441,-3.2842,0.0,0.0,0.0,0.0,0.0,0.0,0.0,0.0,0.0,0.0,0.0,0.0,0.0,-5.2413,-5.4635,-5.5482,-5.6211,-5.6797,-5.6836,-5.7148,-5.7695,-5.7578,-5.7812,-5.8281,-5.8437,0.0,-5.6523,-5.543,0.0,0.0,0.0,0.0,0.0,0.0,0.0,0.0,0.0,0.0,0.0,0.0,0.0,0.0,0.0,0.0,0.0,0.0,0.0,0.0,0.0,0.0,-6.594,-6.6356,-6.6881,-6.705,-6.6407,-6.7997,-7.0242,-7.2322,-7.2537,-7.2851,0.0,0.0,0.0,0.0,0.0,0.0,-8.497,-8.6863,-8.8884,-9.0708,-9.1448,-9.2039,-9.2581,-9.2135,-9.1827,-9.1528,-9.3307,-9.3759,-9.2577,-9.4631,0.0,0.0,0.0,0.0,0.0,0.0,0.0,0.0,0.0,0.0,0.0,0.0,0.0,0.0,0.0,0.0,0.0,0.0,0.0,0.0,0.0,0.0,0.0,0.0,0.0,0.0,0.0,0.0,0.0,-3.2506,-3.34,-3.4271,-3.4434,-3.5412,0.0,0.0,0.0,0.0,0.0,0.0,0.0,0.0,0.0,-5.1119,-5.3166,-5.4714,-5.6163,-5.6972,-5.7734,-5.8672,-5.918,-5.9648,-6.0039,-5.9765,-5.9765,-5.9961,-5.9922,-5.9009,-5.7645,-5.7026,-5.6836,-5.6914,0.0,0.0,0.0,0.0,-5.7383,-5.9498,-5.9437,-5.9849,-6.0639,-6.0876,0.0,0.0,0.0,0.0,0.0,0.0,0.0,-6.4627,-6.6304,-6.6565,-6.6829,-6.7891,-6.8619,-6.8993,-6.8206,-6.9007,-6.9721,-7.0115,-6.9907,-7.087,-7.3858,-7.4875,0.0,0.0,0.0,-8.269,-8.4761,-8.6826,-8.8842,-9.0465,-9.135,-9.1841,-9.1792,-9.1891,-9.1495,-9.074,-9.344,-9.449,-9.3812,-9.5389,-9.5971,0.0,0.0,0.0,0.0,0.0,0.0,0.0,0.0,0.0,0.0,0.0,0.0,0.0,0.0,0.0,0.0,0.0,0.0,0.0,0.0,0.0,0.0,0.0,0.0,0.0,0.0,0.0,0.0,-3.3497,-3.434,-3.535,-3.5521,-3.6466,0.0,0.0,0.0,0.0,0.0,0.0,-4.7588,-4.9944,-5.1806,-5.3421,-5.5513,-5.6932,-5.736,-5.8633,-5.9384,-5.9743,-6.04,-6.063,-6.0429,-6.0009,-5.9818,-5.9818,-5.9627,-5.8658,-5.7525,-5.7531,-5.7552,-5.6999,-5.4284,-5.5351,-5.8034,-5.5915,-5.7489,-6.0413,-6.0226,-6.0625,-6.1445,-6.168,-6.1328,-6.082,-6.1864,0.0,0.0,0.0,0.0,-6.5108,-6.692,-6.7245,-6.7755,-6.9072,-6.9923,-7.012,-6.9686,-6.933,-6.9129,-6.8323,-6.8251,-6.94,-7.3252,-7.4072,0.0,-7.8982,-8.0983,-8.2742,-8.4744,-8.6847,-8.8558,-8.9536,-9.0365,-9.0756,-9.007,-9.0512,-9.0515,-8.9574,-9.2231,-9.4131,-9.4352,-9.5074,-9.5986,-9.6734,0.0,0.0,0.0,0.0,0.0,0.0,0.0,0.0,0.0,0.0,0.0,0.0,0.0,0.0,0.0,0.0,0.0,0.0,0.0,0.0,0.0,0.0,0.0,0.0,0.0,0.0,0.0,0.0,0.0,-3.5646,-3.6992,0.0,0.0,0.0,0.0,-4.5926,-4.6923,-4.8175,-4.9654,-5.1081,-5.2562,-5.4463,-5.7189,-5.8898,-5.9322,-6.168,-6.163,-5.9585,-5.9622,-5.8667,-5.6778,-5.6386,-5.6208,-5.6208,-5.6564,-5.6493,-5.6101,-5.6715,-5.6215,-5.5153,-5.4372,-5.5461,-5.7483,-5.7483,-5.871,-6.0586,-6.1797,-6.2265,-6.2422,-6.3281,-6.2695,-6.1873,-6.2377,-6.2927,0.0,0.0,-6.6138,-6.6644,-6.7872,-6.8086,-6.8242,-6.8711,-6.914,-6.9336,-6.8906,-6.9308,-6.9291,-6.7833,-6.8186,-6.9763,-7.2435,0.0,-7.6823,-7.9965,-8.2267,-8.3932,-8.4509,-8.6481,-8.763,-8.7233,-8.7233,-8.6986,-8.6242,-8.6804,-8.7639,-8.8025,-8.9386,-9.1205,-9.3462,-9.3734,-9.4239,-9.5453,-9.5954,0.0,0.0,0.0,0.0,0.0,0.0,0.0,0.0,0.0,0.0,0.0,0.0,0.0,0.0,0.0,0.0,0.0,0.0,0.0,0.0,0.0,0.0,0.0,0.0,0.0,0.0,0.0,0.0,-3.7812,-4.0062,0.0,-4.432,-4.6001,-4.7748,-4.9616,-5.058,-5.2128,-5.3989,-5.48,-5.6141,-5.8064,-5.7982,-5.8387,-5.9532,-5.8906,-5.8552,-5.7899,-5.8151,-5.7907,-5.6891,-5.6536,-5.6642,-5.6823,-5.6713,-5.6019,-5.5139,-5.5183,-5.5353,-5.587,-5.4422,-5.5147,-5.7333,-5.5629,-5.6671,-5.9051,-5.9234,-6.0577,-6.2322,-6.3578,-6.2438,-6.0915,-6.289,-6.3755,-6.45,-6.5677,-6.6539,-6.7363,-6.832,-6.8594,-6.8711,-6.9101,-6.9336,-6.9375,-6.9258,-6.948,-6.9662,-6.9308,-6.9384,-7.0337,-7.3805,-7.5363,-7.7533,-8.11,-8.3414,-8.4894,-8.4701,-8.5758,-8.6661,-8.6415,-8.6122,-8.5923,-8.5923,-8.5892,-8.6383,-8.735,-8.9569,-9.1317,-9.2935,-9.4643,-9.5708,-9.6365,-9.6401,-9.521,0.0,0.0,0.0,0.0,0.0,0.0,0.0,0.0,0.0,0.0,0.0,0.0,0.0,0.0,0.0,0.0,0.0,0.0,0.0,0.0,0.0,0.0,0.0,0.0,0.0,0.0,-3.8042,-3.9121,-4.1826,-4.4193,-4.5757,-4.7379,-4.9214,-5.0949,-5.1902,-5.2954,-5.4515,-5.5429,-5.6403,-5.7709,-5.7438,-5.7598,-5.8202,-5.7628,-5.6825,-5.612,-5.6751,-5.6253,-5.5131,-5.5002,-5.5104,-5.5267,-5.5139,-5.4465,-5.362,-5.3752,-5.4304,-5.4926,-5.3869,-5.46,-5.6433,-5.4713,-5.5626,-5.7919,-5.7919,-5.9201,-6.1281,-6.2741,-6.1813,-6.0595,-6.3026,-6.4375,-6.5156,-6.6328,-6.7187,-6.793,-6.8828,-6.9023,-6.9101,-6.9375,-6.9453,-6.9453,-6.9715,-6.9715,-6.9715,-7.0239,-7.0084,-7.1231,-7.5082,-7.6305,-7.8033,-8.1762,-8.4275,-8.5136,-8.4324,-8.5469,-8.5743,-8.5158,-8.4865,-8.4865,-8.5111,-8.4741,-8.4944,-8.5806,-8.7853,-8.9956,-9.1505,-9.3188,-9.4987,-9.6492,-9.5874,-9.4798,-9.3156,0.0,0.0,0.0,0.0,0.0,0.0,0.0,0.0,0.0,0.0,0.0,0.0,0.0,0.0,0.0,0.0,0.0,0.0,0.0,0.0,0.0,0.0,0.0,-3.518,-3.7575,-3.9415,-3.9878,-4.2085,-4.4098,-4.5686,-4.6368,-4.7526,-4.9552,-5.0444,-5.0838,-5.0871,-5.2588,-5.3545,-5.3175,-5.542,-5.6294,-5.5982,-5.7809,-5.7231,-5.4572,-5.494,-5.3894,-5.1763,-5.1446,-5.1287,-5.135,-5.1636,-5.1605,-5.1382,-5.2431,-5.2653,-5.2272,-5.2685,-5.3566,-5.4572,-5.529,-5.6046,-5.7035,-5.799,-5.877,-5.9556,-6.0803,-6.1061,-6.1082,-6.3489,-6.4648,-6.539,-6.7031,-6.7851,-6.8398,-6.9219,-6.9453,-6.9453,-6.9453,-6.9453,-6.9715,-7.0239,-6.9977,-6.9715,-7.0278,-7.05,-7.1899,-7.6184,-7.7298,-7.9067,-8.2316,-8.4467,0.0,-8.3837,-8.4977,-8.545,-8.366,-8.3414,-8.3414,-8.3321,-8.3119,-8.28,-8.3039,-8.4842,-8.6882,-8.9287,-8.9938,-9.1899,-9.5312,-9.4694,-9.4214,-9.3558,0.0,0.0,0.0,0.0,0.0,0.0,0.0,0.0,0.0,0.0,0.0,0.0,0.0,0.0,0.0,0.0,0.0,0.0,0.0,0.0,0.0,0.0,-3.4794,-3.5558,-3.7949,-3.9948,-4.0616,-4.3859,-4.6464,-4.7006,-4.8644,-5.0395,-5.1988,-5.2002,-5.2167,-5.2959,-5.3256,-5.3638,-5.4036,-5.3837,-5.4202,-5.4887,-5.4445,-5.3489,-5.2494,-5.2653,-5.1979,-5.0607,-5.0515,-5.1019,-5.1972,-5.105,-5.137,-5.2749,-5.2325,-5.2003,-5.1909,-5.259,-5.2783,-5.2719,-5.2717,-5.3126,-5.3763,-5.5392,-5.5395,-5.5454,-5.9948,-6.0408,-6.013,-6.4092,-6.5727,-6.6231,-6.7517,-6.8515,-6.914,-6.9375,-6.9715,-6.9977,-6.9414,-6.9453,-6.9453,-6.9715,-6.9977,-7.05,-7.1022,-7.2754,-7.4721,-7.6825,-7.9517,-8.201,-8.4323,-8.5039,-8.4989,-8.432,-8.4489,-8.4279,-8.2903,-8.3182,-8.3334,-8.3072,-8.2847,-8.3036,-8.3057,-8.5621,-8.7632,-8.9355,-9.1825,-9.4044,-9.593,-9.491,-9.463,0.0,0.0,0.0,0.0,0.0,0.0,0.0,0.0,0.0,0.0,0.0,0.0,0.0,0.0,0.0,0.0,0.0,0.0,0.0,0.0,0.0,0.0,-3.4951,-3.658,-3.7382,-3.8965,-4.0493,-4.1286,-4.4163,-4.5903,-4.6402,-4.7516,-4.8847,-5.0186,-4.9968,-5.003,-5.0498,-5.1444,-5.1858,-5.1954,-5.1984,-5.2332,-5.3262,-5.2451,-5.2024,-5.1687,-5.1687,-5.1301,-5.0887,-5.0703,-5.1148,-5.1779,-5.1087,-5.1317,-5.2348,-5.1763,-5.1317,-5.1329,0.0,0.0,0.0,0.0,-5.1605,-5.2528,-5.3412,-5.3739,-5.4775,-5.8666,-6.0057,-6.1031,-6.463,-6.6116,-6.664,-6.7969,-6.8398,-6.8711,-6.9101,-6.9284,-6.9505,-6.9375,-6.9336,-6.9219,-6.9676,-6.9977,-7.0239,-7.1242,-7.3997,0.0,-7.7751,-8.0527,-8.3017,-8.4513,-8.4989,-8.4984,-8.3682,-8.3893,-8.3926,-8.2829,-8.3076,-8.3427,-8.3502,-8.3086,0.0,0.0,0.0,-8.8773,-9.1085,-9.347,0.0,0.0,0.0,-9.5223,-9.5649,-9.3703,0.0,0.0,-9.0966,-9.1051,0.0,0.0,0.0,0.0,0.0,0.0,0.0,0.0,0.0,0.0,0.0,0.0,0.0,0.0,0.0,0.0,-3.621,-3.8477,-3.992,-4.0696,-4.145,-4.197,-4.329,-4.4179,-4.4628,-4.4513,-4.5219,-4.5986,-4.6328,-4.6384,-4.6128,-4.826,0.0,0.0,0.0,-5.108,-5.1111,-5.165,-5.1772,-5.1475,-5.1475,-5.1445,-5.1354,-5.108,-5.0929,-5.0929,-5.0929,-5.0777,-5.0764,-5.1039,-5.0825,-5.0307,-5.2129,-5.1713,-5.0062,-4.9929,-5.0876,-5.1889,-5.1573,0.0,0.0,-5.7413,-5.9594,-6.2105,-6.5304,-6.6367,-6.664,-6.789,-6.789,-6.7734,-6.8515,-6.8476,-6.8437,-6.9219,-6.9101,-6.9245,-7.016,-6.9977,-6.9977,-7.1242,-7.4721,-7.7751,-7.85,-8.1019,-8.3017,-8.3596,-8.4505,-8.4545,-8.2675,-8.3384,-8.391,-8.3366,-8.3493,0.0,-8.4207,-8.3609,-8.3877,-8.5771,-8.7775,-9.0412,-9.3781,-9.4943,-9.556,-9.5769,-9.5616,-9.5762,-9.6324,-9.5706,-9.5706,-9.6268,-9.2913,-9.2879,0.0,0.0,0.0,0.0,0.0,0.0,0.0,0.0,0.0,0.0,0.0,0.0,0.0,0.0,0.0,-3.6696,-3.7954,-3.9332,-4.0588,-4.1363,-4.2095,-4.2202,-4.2767,-4.3292,-4.3591,-4.4471,-4.5227,-4.5811,-4.6317,-4.6627,-4.6543,-4.796,-4.8571,-4.8513,-4.9993,-5.1002,-5.1303,-5.184,-5.1748,-5.0972,-5.0972,0.0,-4.9372,-4.9283,-4.9546,-5.0071,-4.9546,-4.9749,-5.0764,-5.0303,-4.983,-4.944,-4.9275,-4.9289,-4.9391,-4.849,-4.8833,-4.9675,-4.9614,-5.0299,-5.1854,-5.6303,-5.8231,-6.0314,-6.5569,-6.7011,0.0,-6.8179,-6.8359,-6.8047,-6.8242,-6.8993,-6.9269,-6.8906,-6.914,-6.9336,-6.9453,-6.9977,-7.05,-7.1242,-7.5272,-7.85,-7.9291,-8.2044,-8.4273,-8.4273,-8.4019,-8.3614,-8.3122,-8.3707,-8.3688,-8.34,-8.4326,-8.4489,-8.3941,-8.3893,-8.4611,-8.6297,-8.9887,-9.3131,-9.5616,-9.6436,-9.7054,-9.7523,-9.7111,-9.683,-9.6942,-9.6324,-9.6324,-9.6886,-9.5223,-9.5336,0.0,0.0,0.0,0.0,0.0,0.0,0.0,0.0,0.0,0.0,0.0,-3.1438,-3.3149,0.0,-3.6292,-3.8326,-3.9573,-4.0642,-4.1817,-4.2378,-4.2646,-4.2646,-4.3046,-4.3314,-4.3859,-4.4373,-4.5253,-4.6308,-4.6351,-4.6518,-4.6784,-4.7837,-4.8093,-4.7995,-4.9192,-5.0141,-5.0644,-5.0557,-5.0409,-5.0141,-4.9993,-4.9462,-4.8874,-4.8874,-4.9138,-4.9402,-4.9138,-4.9402,-4.9898,-4.9338,-4.884,-4.8603,-4.7804,-4.7985,-4.846,-4.7776,-4.8339,-4.8994,-4.8994,-5.0182,-5.1986,-5.546,-5.7909,-6.0314,-6.4819,-6.6077,-6.6501,-6.7478,-6.7851,-6.7851,-6.8125,-6.8578,-6.9111,-6.9023,-6.9258,-6.9453,-6.9453,-6.9872,-7.0738,-7.2537,-7.5483,-7.8295,-8.0326,-8.2334,-8.3549,-8.4079,-8.3765,-8.3539,-8.3291,-8.3918,-8.4379,-8.4623,-8.4794,-8.5063,-8.4989,-8.6494,-8.7883,-8.8936,-9.276,-9.5748,-9.7111,-9.7448,-9.7897,-9.8516,-9.7616,-9.7279,-9.7616,-9.6942,-9.683,-9.7111,-9.6492,-9.6549,0.0,0.0,0.0,0.0,0.0,0.0,0.0,0.0,-2.7717,-2.901,-3.0418,-3.1809,-3.3807,-3.5886,-3.7708,-3.8727,-4.0451,-4.179,-4.2886,-4.31,-4.3233,-4.334,-4.3554,-4.3901,-4.4409,-4.4463,-4.513,-4.6362,-4.5937,-4.591,-4.639,-4.7513,-4.7655,-4.7372,-4.8456,-4.9372,-4.9899,-4.946,-4.9313,-4.9518,-4.9313,-4.9167,-4.905,-4.905,-4.8991,-4.8933,-4.8933,-4.8933,-4.8874,-4.8377,-4.8113,-4.7996,-4.7294,-4.7167,-4.7554,-4.7554,-4.8087,-4.859,-4.8681,-5.0058,-5.2302,-5.4823,-5.7483,-6.0135,-6.3669,-6.5208,-6.5999,-6.6622,-6.7187,-6.7578,-6.7969,-6.8203,-6.8476,-6.914,-6.9375,-6.9453,-6.9453,-6.9726,-7.0897,-7.3866,-7.5526,-7.75,-8.0819,-8.2044,-8.2728,-8.3307,-8.3707,-8.3661,-8.3162,-8.4333,-8.5139,-8.5804,-8.5463,-8.5498,-8.5898,-8.9086,-9.1208,-9.1257,-9.517,-9.7708,-9.8235,-9.8235,-9.8516,-9.8965,-9.7897,-9.7504,-9.7897,-9.7279,-9.6942,-9.6942,-9.6942,-9.6998,-2.2177,-2.2869,-2.3888,-2.4869,-2.4568,-2.3943,0.0,0.0,-2.5969,-2.5948,-2.764,-2.9529,-3.0259,-3.3247,-3.5826,-3.6602,-3.964,-4.1978,-4.2619,-4.3153,-4.3661,-4.4222,-4.4329,-4.4356,-4.4436,-4.465,-4.473,-4.4783,-4.4998,-4.5025,-4.4783,-4.6335,-4.7036,-4.7064,-4.8369,-4.9167,-4.9255,-4.946,-4.946,-4.9167,-4.946,-4.9255,-4.8699,-4.8699,-4.8523,-4.8289,-4.8289,-4.8289,-4.8289,-4.8201,-4.7996,-4.7791,-4.7967,-4.7645,-4.7177,-4.7177,-4.7432,-4.749,-4.7755,-4.8337,-4.9349,-5.3927,-5.5749,-5.7532,-6.2635,-6.4704,-6.54,-6.5785,-6.6679,-6.75,-6.7539,-6.8164,-6.875,-6.8867,-6.914,-6.9453,-6.9453,-6.9492,-7.0278,-7.3053,-7.5272,-7.75,-8.0326,-8.1477,-8.2113,-8.2728,-8.3014,-8.3162,-8.3208,-8.4585,-8.5757,-8.5791,-8.597,-8.6045,-8.5797,-8.9299,-9.1809,-9.1838,-9.5601,-9.8347,-9.8853,-9.8909,-9.8909,-9.9021,-9.8347,-9.7729,-9.7223,-9.6605,-9.6324,-9.6324,-9.6324,-9.6605,-1.9823,-2.0381,0.0,0.0,-2.2706,-2.2892,-2.4845,-2.5667,-2.6233,-2.7154,-2.8603,-2.9981,-3.0491,-3.2569,-3.4336,0.0,-3.6878,-3.8289,-3.9219,-3.9586,-4.0168,-4.0414,-4.0439,-4.136,-4.4143,-4.363,-4.3656,-4.4968,-4.481,-4.4917,-4.5238,-4.5919,-4.6364,-4.6756,-4.7535,-4.8028,-4.8288,-4.7912,-4.7796,-4.8028,-4.7999,-4.7999,-4.785,-4.8201,-4.8289,-4.8172,-4.8377,-4.823,-4.7909,-4.8084,-4.7996,-4.7674,-4.744,-4.7382,-4.7499,-4.7499,-4.7382,-4.7235,-4.7382,-4.8386,-5.0135,-5.3444,-5.5749,-5.8284,-6.2487,-6.4452,-6.5162,-6.633,-6.7128,-6.789,-6.789,-6.8515,-6.918,-6.918,-6.9492,-6.9726,-6.9492,-7.0659,-7.2263,-7.4805,-7.6538,-7.8544,-8.1356,-8.1708,-8.1998,-8.246,-8.2675,-8.2979,-8.353,-8.4723,-8.5869,-8.6065,-8.6715,-8.6915,-8.626,-9.0413,-9.283,-9.2964,-9.6959,-9.9246,-9.9527,-9.9527,-9.9359,-9.9021,-9.8403,-9.7785,-9.7111,-9.6492,-9.6211,-9.6211,-9.6211,-9.6324,-1.8332,0.0,0.0,-2.0803,-2.1473,-2.2345,-2.4304,-2.5102,-2.5734,-2.7197,-2.8096,-2.897,-2.9283,-3.1005,-3.2384,-3.291,-3.4403,-3.5664,-3.6455,-3.6968,-3.7106,-3.7037,-3.6558,-3.8034,-4.235,-4.1968,-4.2146,-4.4698,-4.4379,-4.4406,-4.5152,-4.5338,-4.546,-4.5905,-4.6271,-4.6786,-4.6925,-4.6271,-4.6185,-4.6986,-4.6757,-4.7101,-4.7499,-4.7967,-4.8113,-4.8055,-4.8289,-4.8084,-4.7587,-4.7791,-4.7791,-4.7557,-4.706,-4.7148,-4.7587,-4.7674,-4.7557,-4.7353,-4.7834,-4.9319,-5.135,-5.3884,-5.629,-5.8864,-6.2301,-6.3833,-6.4946,-6.633,-6.75,-6.8203,-6.8359,-6.8867,-6.9453,-6.9453,-6.9687,-6.9844,-6.9492,-7.1221,-7.3599,-7.5822,-7.7544,-7.938,-8.1846,-8.1754,-8.1739,-8.2473,-8.2473,-8.2703,-8.3826,-8.5041,-8.5947,-8.6667,-8.7544,-8.7781,-8.7405,-9.0977,-9.3515,-9.4254,-9.7521,-9.9834,-10.0426,-10.0258,-9.9808,-9.9021,-9.8403,-9.7785,-9.7111,-9.6661,-9.6549,-9.6717,-9.6549,-9.6436,0.0,0.0,-1.9836,-2.0771,-2.1652,-2.2269,-2.2627,-2.326,-2.4057,-2.4254,-2.4582,-2.4812,-2.4828,-2.7758,-3.0161,-3.0161,-3.3141,-3.5404,-3.5933,-3.6163,-3.6232,-3.6002,-3.4388,-3.4969,0.0,-3.9797,-4.1154,-4.3293,-4.3287,-4.3127,-4.3127,-4.3901,-4.4131,-4.4159,-4.4931,-4.516,-4.5188,-4.516,-4.5843,-4.6643,-4.6643,-4.7333,-4.8113,-4.8172,-4.7996,-4.7704,-4.7762,-4.7557,-4.7235,-4.7265,-4.7265,-4.7235,-4.7235,-4.7235,-4.7265,-4.7587,-4.7704,-4.7932,-4.9921,-5.0903,-5.1952,-5.6017,-5.7587,-5.8478,-6.1723,-6.3355,-6.4566,-6.5492,-6.6989,-6.8281,-6.8711,-6.9101,-6.9453,-6.9453,-6.9453,-6.9453,-6.9453,-7.0982,-7.3012,-7.523,-7.7085,-7.9131,-8.1401,-8.1234,-8.1371,-8.2979,-8.2749,-8.2813,-8.4065,-8.5147,-8.6619,-8.7834,-8.8076,-8.8314,-8.8964,-9.069,-9.2943,-9.5426,-9.7252,-9.9326,-10.1663,-10.1101,-10.0202,-9.9021,-9.8403,-9.7785,-9.7111,-9.7111,-9.7392,-9.801,-9.7392,-9.7111,0.0,0.0,-1.9418,-2.0796,-2.1252,-2.1876,-2.2935,-2.326,-2.3552,-2.3975,-2.4024,-2.4119,-2.45,-2.608,-2.744,-2.8196,-2.9656,-3.0831,-3.1564,-3.1685,-3.178,-3.1229,-3.0652,0.0,0.0,0.0,0.0,-4.1108,-4.0696,-4.023,-4.023,-4.0747,-4.1391,-4.2257,-4.2805,-4.3393,-4.4086,-4.3733,-4.4151,-4.5557,-4.6181,-4.6777,-4.7557,-4.7323,-4.7265,-4.7382,-4.7382,-4.7177,-4.6914,-4.6914,-4.6914,-4.6914,-4.6679,-4.7001,-4.7785,-4.8943,-4.9665,-5.0062,-5.0802,-5.291,-5.558,-5.7335,-5.8983,-6.075,-6.344,-6.4437,-6.5402,-6.6849,-6.7906,-6.8633,-6.875,-6.9101,-6.9453,-6.9453,-6.9687,-6.9805,-6.9492,-7.2442,-7.5142,-7.5314,-7.8074,-8.05,-8.1356,-8.0912,-8.0637,-8.1509,-8.3476,-8.4994,-8.5635,-8.5852,-8.6359,-8.7145,-8.8076,-8.861,-8.8505,-9.1601,-9.4212,-9.6066,-9.7849,-9.9768,-10.1775,-10.1213,-10.0258,-9.9021,-9.8403,-9.7785,-9.7111,-9.7111,-9.7223,-9.7448,-9.7223,-9.6886,0.0,-1.9204,-1.9509,-2.0938,-2.1573,-2.1876,-2.2854,-2.3016,-2.3195,-2.3601,-2.3737,-2.3944,-2.4316,-2.5085,-2.5652,-2.6403,-2.7366,-2.8327,-2.8955,-2.9265,-2.917,-2.8653,-2.8747,-3.0042,0.0,0.0,0.0,-4.0516,-3.9167,-3.8241,-3.901,-3.9522,-3.9958,-4.0769,-4.1474,-4.2363,-4.3248,-4.2704,-4.3037,-4.4824,-4.5669,-4.6485,-4.706,-4.6943,-4.6972,-4.706,-4.7177,-4.7031,-4.6738,-4.6738,-4.6738,-4.6709,-4.6387,-4.7213,-4.8598,-4.9744,-5.1636,-5.3517,-5.3647,-5.5241,-5.7622,-5.8907,-6.064,-6.2386,-6.4114,-6.5191,-6.6239,-6.7544,-6.8451,-6.9023,-6.9023,-6.9219,-6.9453,-6.9453,-6.9687,-6.9805,-6.9492,-7.2182,-7.4844,-7.4382,-7.7444,-8.0209,-8.0346,-8.0791,-8.1279,-8.1371,-8.3615,-8.5524,-8.5401,-8.5711,-8.616,-8.6891,-8.8121,-8.8708,-8.8561,-9.1734,-9.4371,-9.6479,-9.7777,-9.9717,-10.2177,-10.1831,-10.082,-9.9359,-9.874,-9.8066,-9.7448,-9.7448,-9.756,-9.7785,-9.756,-9.7111,-1.9703,-2.0072,-2.0135,-2.149,-2.1912,-2.2237,-2.2432,-2.261,-2.2757,-2.2951,-2.329,-2.3588,0.0,0.0,-2.5478,-2.5533,-2.7073,-2.8285,-2.8461,-2.8803,-2.8958,0.0,0.0,0.0,0.0,0.0,0.0,-4.121,0.0,-3.7456,-3.9528,-3.978,-3.9806,-3.978,-4.1301,-4.2218,-4.2218,-4.2218,-4.2976,-4.4208,-4.5587,-4.6239,-4.6738,-4.7031,-4.7031,-4.6738,-4.706,-4.6972,-4.6709,-4.6738,-4.6738,-4.6709,-4.6416,-4.7726,-5.0031,-5.0344,-5.3434,-5.7664,-5.8049,-5.8189,-5.8548,-6.1403,-6.2462,-6.2865,-6.4083,-6.5535,-6.6699,-6.7562,-6.8617,-6.9492,-6.9453,-6.9453,-6.9453,-6.9453,-6.9453,-6.9453,-6.9453,-7.0982,-7.2374,-7.1966,-7.5523,-7.8456,-7.8172,-8.0823,-8.2979,-8.2473,-8.3707,-8.453,-8.36,-8.4865,-8.6273,-8.6891,-8.7876,-8.9146,-8.9632,-9.113,-9.3458,-9.7063,-9.7238,-9.9144,-10.3467,-10.3011,-10.1831,-9.9977,-9.9359,-9.874,-9.8066,-9.8122,-9.8403,-9.8965,-9.8347,-9.7729,-1.9935,-2.0304,-2.0706,-2.1506,-2.1831,-2.2107,-2.2545,-2.2708,-2.2757,-2.2951,-2.3105,-2.3311,0.0,0.0,0.0,-2.8158,-2.9796,0.0,-3.3089,-3.2342,0.0,-3.1107,0.0,-2.9811,-3.1692,-3.23,0.0,0.0,-3.8044,-3.7012,-3.6695,-3.7951,-3.8969,-3.9755,-4.0083,-4.0969,-4.2218,-4.294,-4.3563,-4.3872,-4.5046,-4.5836,-4.6738,-4.6592,-4.6592,-4.6738,-4.6592,-4.6475,-4.6416,-4.665,-4.6738,-4.6738,-4.6914,-4.8418,-5.0688,-5.2298,-5.5058,-5.8049,-5.9991,-6.0641,-6.075,-6.1803,-6.2462,-6.3196,-6.4417,-6.5723,-6.6662,-6.7983,-6.8554,-6.905,-6.9268,-6.9453,-6.9453,-6.9453,-6.9687,-6.9844,-6.9492,-7.1221,-7.2864,-7.2415,-7.5737,-7.8864,-7.9438,-8.131,-8.2565,-8.2382,-8.3707,-8.4809,-8.453,-8.4546,-8.4981,-8.5869,-8.771,-8.8652,-8.8898,-9.1144,-9.3969,-9.7648,-9.7504,-9.9306,-10.4084,-10.3292,-10.2056,-10.0651,-9.9977,-9.9134,-9.8066,-9.8516,-9.8853,-9.8965,-9.8347,-9.7729,-2.2073,-2.2708,-2.3332,-2.3762,-2.418,-2.412,-2.4442,-2.3849,-2.336,-2.3308,-2.2881,0.0,0.0,0.0,0.0,0.0,0.0,0.0,-3.4833,-3.4355,-3.3436,0.0,-3.1321,0.0,-3.1982,-3.234,-3.4038,0.0,-3.7384,-3.7084,-3.748,-3.8387,-3.9148,-3.9755,-4.0387,-4.1274,-4.2218,-4.2632,-4.3365,-4.418,-4.471,-4.5412,-4.6738,-4.6533,-4.6592,-4.6738,-4.6855,-4.6914,-4.6914,-4.7118,-4.7177,-4.7148,-4.8224,-4.9898,-5.2238,-5.4672,-5.7266,-5.9738,-6.1438,-6.1948,-6.2168,-6.2388,-6.2755,-6.3195,-6.4342,-6.5383,-6.6509,-6.738,-6.829,-6.8901,-6.9074,-6.9336,-6.9453,-6.9453,-6.9609,-6.9726,-6.9492,-7.0357,-7.2003,-7.3526,-7.5651,-7.7649,-8.0334,-8.1876,-8.2657,-8.2428,-8.3458,-8.44,-8.44,-8.4605,-8.5041,-8.5093,-8.7153,-8.815,-8.815,-9.105,-9.4174,-9.7169,-9.8266,-10.0409,-10.4031,-10.3411,-10.2393,-10.082,-10.0202,-9.9302,-9.8066,-9.8684,-9.9021,-9.8965,-9.8628,-9.8122,-2.4788,-2.5605,-2.6058,-2.6933,-2.6994,-2.7014,-2.6974,-2.5615,-2.4183,-2.3782,0.0,-2.1796,-2.1289,-2.4093,-2.667,-2.7433,0.0,-3.3898,-3.5158,-3.5392,-3.5174,-3.3529,-3.3082,-3.3082,-3.3082,-3.2868,-3.4279,-3.7048,-3.7162,-3.783,-3.9831,-4.0083,-4.0083,-4.0083,-4.1553,-4.2218,-4.2218,-4.2218,-4.3058,-4.4544,-4.4292,-4.5075,-4.634,-4.665,-4.6709,-4.6767,-4.7382,-4.7645,-4.7587,-4.7674,-4.7961,-4.813,-4.9898,-5.2078,-5.4672,-5.6772,-5.9416,-6.1728,-6.2095,-6.2462,-6.2792,-6.2792,-6.3048,-6.3489,-6.3892,-6.5044,-6.6397,-6.6625,-6.7872,-6.8785,-6.884,-6.914,-6.9453,-6.9453,-6.9453,-6.9453,-6.9453,-6.9453,-7.0721,-7.4763,-7.5271,-7.6444,-8.091,-8.2611,-8.3116,-8.2657,-8.3392,-8.4035,-8.4127,-8.4908,-8.5392,-8.4769,-8.6448,-8.7901,-8.8245,-9.1293,-9.436,-9.6473,-9.903,-10.1686,-10.3755,-10.364,-10.2899,-10.0988,-10.0426,-9.9471,-9.8066,-9.8797,-9.9134,-9.9134,-9.9021,-9.874,-2.5331,-2.592,-2.6514,-2.7135,-2.756,-2.7439,-2.7237,-2.5529,0.0,0.0,-2.2706,-2.1678,-2.1424,-2.26,-2.4692,-2.7601,0.0,0.0,0.0,0.0,-3.5956,0.0,0.0,0.0,0.0,0.0,0.0,0.0,0.0,-3.9316,-4.0111,-4.1126,-4.1885,-4.1885,-4.1938,-4.2218,-4.2218,-4.2218,-4.2643,-4.3178,-4.3623,-4.4399,-4.5231,-4.5961,-4.6504,-4.6767,-4.7148,-4.7148,-4.6943,-4.7499,-4.8553,-4.9867,-5.084,-5.3549,-5.7186,-5.7762,-5.9592,-6.2095,-6.2205,-6.2462,-6.2792,-6.2792,-6.3048,-6.3489,-6.3892,-6.4859,-6.606,-6.6889,-6.7872,-6.8703,-6.9113,-6.9375,-6.9453,-6.9453,-6.9453,-6.9453,-6.9453,-6.9453,-7.0721,-7.4763,-7.5781,-7.7309,-8.1501,-8.3116,-8.3759,-8.3667,-8.4127,-8.4678,-8.5137,-8.454,-8.4609,-8.5229,-8.6682,-8.8542,-9.0414,-9.1869,-9.442,-9.832,-9.9166,-10.107,-10.4368,-10.3811,-10.308,-10.1663,-10.1494,-10.037,-9.8066,-9.919,-9.9752,-9.9752,-9.9246,-9.8965,-2.5423,-2.6309,-2.6946,-2.7396,-2.752,-2.7338,-2.6974,0.0,0.0,0.0,-2.2178,-2.1052,-2.0787,-2.2442,0.0,0.0,0.0,0.0,0.0,0.0,0.0,0.0,0.0,0.0,0.0,0.0,0.0,0.0,0.0,-3.9753,-4.1648,-4.2284,-4.2432,-4.2432,-4.2298,-4.2138,-4.2004,-4.2138,-4.2417,-4.301,-4.3453,-4.4264,-4.5297,-4.6037,-4.6747,-4.7031,-4.7499,-4.7645,-4.7499,-4.9079,-5.0105,-5.1001,-5.3354,-5.5749,-5.8189,-5.9414,-6.0894,-6.2242,-6.2425,-6.2902,-6.3306,-6.3306,-6.3196,-6.3122,-6.4083,-6.4603,-6.5311,-6.6581,-6.7485,-6.8278,-6.8607,-6.9101,-6.9453,-6.9453,-6.9453,-6.9453,-6.9453,-6.9609,-7.1079,-7.5142,-7.6292,-7.7872,-8.2002,-8.3621,-8.431,-8.431,-8.4724,-8.5137,-8.5412,-8.4769,-8.4724,-8.5734,-8.6617,-8.8235,-9.0902,-9.2953,-9.5378,-9.8764,-10.0526,-10.2444,-10.453,-10.3644,-10.2637,-10.1831,-10.1101,-9.9921,-9.8066,-9.9302,-9.9921,-9.9921,-9.9583,-9.9471,-2.5923,-2.6689,-2.7366,-2.7877,-2.7722,-2.7277,-2.6772,-2.5,0.0,0.0,-2.1673,-2.045,-2.0174,-2.2267,-2.457,0.0,0.0,0.0,0.0,0.0,0.0,0.0,0.0,0.0,0.0,0.0,0.0,0.0,0.0,0.0,-4.2966,-4.2726,-4.2592,-4.2672,-4.2378,-4.2138,-4.1978,-4.2191,-4.2552,-4.2976,-4.3475,-4.4037,-4.516,-4.607,-4.6527,-4.7148,-4.7791,-4.8314,-4.8832,-5.0412,-5.1696,-5.2623,-5.6017,-5.7839,-5.8801,-6.0966,-6.1911,-6.2644,-6.2939,-6.3563,-6.4076,-6.4076,-6.3563,-6.3417,-6.4416,-6.475,-6.5267,-6.6565,-6.7285,-6.7969,-6.8256,-6.8945,-6.9453,-6.9453,-6.9453,-6.9453,-6.957,-6.9844,-7.1438,-7.5606,-7.676,-7.8434,-8.273,-8.4218,-8.4861,-8.4953,-8.5321,-8.5642,-8.5734,-8.5229,-8.5183,-8.6452,-8.669,-8.8175,-9.179,-9.4193,-9.6597,-9.9593,-10.223,-10.3942,-10.4795,-10.3476,-10.2582,-10.2,-10.0707,-9.9527,-9.8291,-9.9359,-9.9921,-9.9921,-9.9921,-9.9921,-2.632,-2.7131,-2.762,-2.8278,-2.8187,-2.7681,-2.7034,0.0,0.0,0.0,-2.157,-2.0336,-2.0304,-2.0693,-2.1925,0.0,0.0,0.0,0.0,0.0,0.0,0.0,0.0,0.0,0.0,0.0,0.0,0.0,0.0,0.0,-4.2726,-4.2405,-4.2378,-4.2672,-4.2378,-4.2325,-4.2592,-4.2619,-4.2485,-4.2218,-4.3031,-4.3261,-4.348,-4.4847,-4.5749,-4.6826,-4.747,-4.8762,-5.0523,-5.109,-5.3322,-5.6323,-5.6953,-5.9022,-6.1255,-6.1545,-6.2567,-6.3783,-6.3783,-6.4039,-6.4805,-6.4805,-6.4588,-6.4739,-6.5752,-6.6011,-6.645,-6.79,-6.8501,-6.8906,-6.9258,-6.9375,-6.9453,-6.9453,-6.9453,-6.957,-6.9961,-7.0078,-7.1477,-7.6027,-7.7228,-7.8996,-8.3685,-8.4999,-8.5504,-8.5963,-8.6101,-8.6285,-8.6744,-8.5963,-8.6037,-8.7524,-8.7458,-8.9261,-9.4252,-9.5517,-9.7936,-10.2106,-10.2679,-10.3646,-10.5348,-10.3635,-10.2754,-10.2618,-10.1382,-10.0145,-9.8909,-9.9583,-9.9921,-9.9921,-9.9921,-9.9921,-2.6974,-2.6863,-2.6828,-2.6933,-2.5618,-2.4299,-2.3941,0.0,0.0,0.0,-2.2175,-2.2175,-2.3211,-2.3286,-2.4099,-2.6064,0.0,0.0,0.0,0.0,0.0,0.0,0.0,0.0,0.0,0.0,0.0,0.0,0.0,0.0,-4.2913,-4.2806,-4.2806,-4.2913,-4.2485,-4.2191,-4.2138,-4.2298,-4.2245,-4.1978,-4.3085,-4.3536,-4.3872,-4.5274,-4.6037,-4.6767,-4.7235,-4.8523,-5.0716,-5.2113,-5.4521,-5.7384,-5.8773,-6.0421,-6.2041,-6.2271,-6.3,-6.3618,-6.4144,-6.4692,-6.5009,-6.5277,-6.5799,-6.6285,-6.6374,-6.6374,-6.6631,-6.7958,-6.849,-6.8867,-6.9023,-6.9258,-6.9453,-6.9453,-6.9609,-6.9844,-7.0039,-7.0508,-7.17,-7.4739,-7.7164,-7.9599,-8.2686,-8.496,-8.6423,-8.6606,-8.6652,-8.6744,-8.6928,-8.6055,-8.6109,-8.7505,-8.7432,-8.9752,-9.495,-9.6321,-9.8666,-10.3476,-10.3439,-10.3796,-10.5458,-10.3359,-10.2089,-10.2225,-10.1326,-10.0426,-9.9527,-10.0145,-10.0426,-10.0426,-10.0089,-9.9921,-2.6863,-2.6819,-2.6612,-2.6132,-2.4674,-2.3014,0.0,0.0,0.0,-2.3096,-2.3249,-2.3606,-2.5069,-2.5275,-2.5748,-2.7426,0.0,-2.958,0.0,0.0,0.0,0.0,0.0,0.0,0.0,0.0,0.0,0.0,0.0,0.0,-4.3073,-4.3508,-4.3481,-4.2966,-4.2485,-4.2138,-4.2031,-4.2245,-4.2245,-4.2031,-4.2967,-4.3756,-4.4236,-4.5191,-4.6095,-4.6738,-4.7821,-4.933,-5.1573,-5.4036,-5.6495,-5.8452,-6.0664,-6.1919,-6.2467,-6.3178,-6.3833,-6.43,-6.5136,-6.5607,-6.5729,-6.6154,-6.7011,-6.7539,-6.7144,-6.7004,-6.7454,-6.8179,-6.875,-6.8984,-6.8984,-6.9219,-6.9453,-6.9453,-6.9805,-7.0156,-7.0273,-7.0976,-7.2102,-7.4371,-7.7348,-8.0068,-8.2397,-8.512,-8.702,-8.7157,-8.7157,-8.7157,-8.7157,-8.6285,-8.6155,-8.7432,-8.7545,-8.9752,-9.554,-9.6525,-9.9031,-10.3909,-10.3819,-10.4014,-10.5182,-10.3027,-10.1811,-10.2112,-10.1213,-10.0595,-10.0202,-10.0595,-10.082,-10.082,-10.0202,-10.0131,-2.5912,-2.6725,-2.7221,-2.6412,-2.6244,-2.6135,0.0,0.0,0.0,-2.4613,-2.4588,-2.4638,-2.5275,-2.5275,-2.616,-2.8459,-2.9538,0.0,0.0,0.0,0.0,0.0,0.0,0.0,0.0,0.0,0.0,0.0,0.0,0.0,-4.3073,-4.4114,-4.4203,-4.2672,-4.2378,-4.2378,-4.2672,-4.2672,-4.2672,-4.2672,-4.2672,-4.3275,-4.4208,-4.4208,-4.516,-4.6767,-4.9307,-5.1442,-5.3505,-5.696,-5.9337,-6.0838,-6.1947,-6.2836,-6.3631,-6.401,-6.5009,-6.5977,-6.6823,-6.7067,-6.6914,-6.7383,-6.75,-6.7578,-6.8047,-6.8476,-6.8867,-6.9336,-6.9453,-6.9453,-6.9453,-6.9453,-6.9453,-6.9453,-6.9805,-7.0195,-7.0625,-7.1367,-7.2653,-7.5222,-7.7791,-8.0445,-8.3323,-8.5572,-8.7111,-8.7617,-8.7708,-8.7708,-8.7708,-8.6836,-8.6664,-8.7948,-8.7733,-8.9857,-9.5759,-9.6563,-9.8822,-10.3313,-10.3602,-10.3796,-10.4629,-10.2862,-10.1978,-10.273,-10.1438,-10.082,-10.082,-10.082,-10.082,-10.082,-10.0202,-10.0702,-2.8077,-2.8129,-2.8106,-2.7241,-2.6173,-2.5123,-2.4827,0.0,-2.5111,-2.6451,-2.6762,-2.7166,-2.8575,-2.8689,-2.9052,-3.0334,-3.072,0.0,0.0,0.0,0.0,0.0,0.0,0.0,0.0,0.0,0.0,0.0,0.0,0.0,-4.4923,-4.4931,-4.4314,-4.3139,-4.3283,-4.3426,-4.3343,-4.3982,-4.4203,-4.4203,-4.4625,-4.5219,-4.5587,-4.7153,-4.8597,-4.9407,-5.1266,-5.3545,-5.6297,-5.7561,-5.9564,-6.157,-6.2836,-6.3425,-6.4036,-6.4994,-6.54,-6.5883,-6.6739,-6.6855,-6.6914,-6.7383,-6.789,-6.8398,-6.8594,-6.8711,-6.8906,-6.9336,-6.9453,-6.9453,-6.9453,-6.9453,-6.9453,-6.9453,-6.9805,-7.0195,-7.0625,-7.1172,-7.195,-7.2925,-7.5465,-7.7896,-7.8603,-8.0745,-8.3189,-8.4741,-8.4692,-8.5084,-8.6392,-8.6101,-8.6155,-8.7432,-8.8378,-9.0858,-9.5759,-9.6563,-9.9187,-10.4504,-10.409,-10.4232,-10.579,-10.3635,-10.2422,-10.273,-10.1887,-10.1494,-10.1494,-10.1045,-10.0595,-10.0202,-10.0033,-10.0702,0.0,-2.8705,-2.8617,-2.7906,-2.7135,0.0,0.0,0.0,-2.6745,-2.8368,-2.8639,-2.8986,-3.0502,-3.0467,-3.0526,-3.1302,-3.1433,0.0,0.0,0.0,0.0,0.0,0.0,0.0,0.0,0.0,0.0,0.0,0.0,0.0,-4.5076,-4.5418,-4.5106,-4.3845,-4.4292,-4.4376,-4.4292,-4.4572,-4.5163,-4.5669,-4.6377,-4.7167,-4.8027,-4.9563,-5.0708,-5.1694,-5.3519,-5.5598,0.0,-5.9366,-6.0708,-6.2094,-6.3691,-6.4284,-6.4857,-6.6136,-6.6622,-6.668,-6.7734,-6.7969,-6.789,-6.8125,-6.8476,-6.8867,-6.9219,-6.918,-6.9101,-6.9375,-6.9453,-6.9453,-6.9453,-6.9453,-6.9453,-6.9453,-6.9805,-7.0195,-7.0625,-7.1172,-7.1758,-7.2383,-7.493,-7.6783,-7.6783,-7.9022,-8.14,-8.3235,-8.3323,-8.3981,-8.5934,-8.5734,-8.618,-8.8161,-8.9327,-9.1838,-9.672,-9.7562,-9.9699,-10.4721,-10.4651,-10.4684,-10.6011,-10.4359,-10.3144,-10.273,-10.2112,-10.1775,-10.1775,-10.1382,-10.0707,-9.9921,-9.9921,-10.1118,0.0,0.0,0.0,0.0,0.0,0.0,0.0,-2.8619,0.0,-3.0352,-3.0164,-3.0089,-3.0974,-3.0588,-3.0623,-3.1548,-3.1805,0.0,0.0,0.0,0.0,0.0,0.0,0.0,0.0,0.0,0.0,0.0,0.0,0.0,-4.4544,-4.5577,-4.5932,-4.4896,-4.516,-4.5079,-4.5559,-4.5276,-4.6146,-4.7937,-4.7937,-4.9283,-5.1189,-5.1368,-5.2134,0.0,-5.5911,-5.7297,-5.8093,-6.1321,-6.2707,-6.3103,-6.4404,-6.5273,-6.5859,-6.7109,-6.7851,-6.8359,-6.957,-6.9687,-6.9375,-6.9375,-6.914,-6.8984,-6.9805,-6.9726,-6.9453,-6.9492,-6.9453,-6.9453,-6.9453,-6.9453,-6.9453,-6.9453,-6.9726,-7.0156,-7.0625,-7.1367,-7.2226,-7.3086,-7.5256,-7.6916,-7.6916,-7.8851,-8.1073,-8.2574,-8.3059,-8.3985,-8.5934,-8.5899,-8.685,-8.9768,-9.0561,-9.2968,-9.8727,-9.9016,-10.0754,-10.447,-10.4995,-10.5479,-10.5624,-10.4863,-10.3922,-10.2843,-10.2168,-10.1775,-10.1663,-10.1719,-10.1101,-9.9921,-9.9977,-10.1796,-2.7499,0.0,-2.7671,-2.7038,-2.7693,-2.8633,0.0,-2.9315,-3.0187,-3.0799,-3.0844,-3.0766,-3.124,-3.0877,-3.0684,-3.1425,-3.1158,0.0,0.0,0.0,0.0,0.0,0.0,0.0,0.0,0.0,0.0,0.0,0.0,-4.6747,-4.6493,-4.6747,-4.6972,-4.666,-4.7776,-4.8226,-4.777,-4.9436,-5.0397,-5.0683,-5.1436,-5.1749,-5.1934,-5.3612,-5.5113,-5.6368,-5.8647,-6.0161,-6.122,-6.2717,-6.382,-6.4443,-6.5234,-6.6094,-6.7148,-6.7773,-6.8086,-6.8242,-6.8515,-6.8594,-6.8515,-6.8867,-6.9101,-6.9336,-6.957,-6.9492,-6.9492,-6.9844,-6.9687,-6.9453,-6.9453,-6.9453,-6.9453,-6.9453,-6.9492,-6.9805,-7.0547,-7.1133,-7.1758,-7.2695,-7.3992,-7.4663,-7.4347,-7.4901,-7.664,-8.0091,-8.0325,-8.1476,-8.5081,-8.641,-8.7747,-8.9435,-9.2761,-9.6069,-9.9491,-10.0019,-10.2033,-10.5479,-10.525,-10.5558,-10.7613,-10.5071,-10.3922,-10.4135,-10.2618,-10.1326,-10.0314,-10.082,-10.0651,-9.9921,-10.0426,-10.2218,-2.7305,-2.737,-2.737,-2.7414,-2.7994,-2.8879,-2.9301,-3.0117,-3.0775,-3.1344,-3.1246,-3.1215,-3.136,-3.1071,-3.0926,-3.1732,-3.1659,0.0,0.0,0.0,0.0,0.0,0.0,0.0,0.0,0.0,0.0,0.0,0.0,-4.5755,-4.5755,-4.5755,-4.5755,-4.5755,-4.7417,-4.854,-4.9376,-5.1351,-5.2464,-5.2908,-5.3847,-5.4339,-5.4415,-5.6157,-5.7369,-5.8129,-5.9959,-6.1345,-6.2091,-6.3236,-6.4062,-6.4726,-6.5351,-6.6094,-6.7031,-6.8086,-6.8476,-6.8515,-6.8945,-6.8945,-6.8828,-6.9023,-6.9258,-6.9492,-6.9687,-6.9609,-6.9492,-6.9726,-6.9609,-6.9453,-6.9453,-6.9453,-6.9453,-6.9453,-6.9609,-6.9922,-7.0586,-7.1055,-7.1719,-7.2734,-7.332,-7.3672,-7.3633,-7.3945,-7.5417,-7.9059,-7.9738,-8.1209,-8.5264,-8.7245,-8.8819,-9.0017,-9.4587,-9.8165,-10.0547,-10.2406,-10.4382,-10.6641,-10.5848,-10.6177,-10.7778,-10.5633,-10.4313,-10.3742,-10.2112,-10.1213,-10.082,-10.082,-10.082,-10.082,-10.082,-10.258,-2.7391,-2.7585,-2.7904,-2.8038,-2.8512,-2.927,-3.0329,-3.0705,-3.1106,-3.1581,-3.1578,-3.1409,-3.1433,-3.1264,0.0,0.0,0.0,0.0,0.0,0.0,0.0,0.0,0.0,0.0,0.0,0.0,0.0,0.0,0.0,-4.4208,-4.4208,-4.4208,-4.4208,-4.4208,-4.5918,-4.7922,-5.003,-5.1642,-5.3266,-5.4591,-5.5287,-5.5875,-5.6794,-5.7838,-5.839,-5.8647,-6.0274,0.0,-6.2043,-6.3392,-6.4062,-6.4609,-6.5351,-6.5976,-6.6601,-6.8281,-6.8867,-6.8945,-6.9648,-6.9609,-6.9258,-6.9336,-6.9375,-6.9492,-6.9844,-6.9726,-6.9453,-6.9453,-6.9453,-6.9453,-6.9453,-6.9453,-6.9453,-6.9453,-6.9805,-7.0195,-7.0625,-7.1172,-7.1953,-7.3086,-7.3437,-7.3594,-7.3906,-7.4375,-7.5736,-7.9186,-8.0334,-8.2077,-8.5948,-8.8135,-8.9919,-9.1278,-9.5808,-9.9482,-10.1919,-10.4276,-10.6104,-10.7129,-10.6522,-10.6467,-10.6496,-10.5924,-10.4647,-10.2618,-10.1494,-10.1213,-10.1607,-10.1101,-10.1101,-10.1607,-10.1326,-10.2459,-2.7801,-2.808,-2.8359,-2.8346,-2.9067,-2.9694,-3.0352,-3.101,-3.1505,0.0,0.0,0.0,0.0,-3.2124,-3.2312,0.0,0.0,0.0,0.0,0.0,0.0,0.0,0.0,0.0,0.0,0.0,0.0,0.0,0.0,-4.4208,-4.4208,-4.4208,-4.4208,-4.4208,-4.6123,-4.817,-5.0024,-5.166,-5.3355,-5.4906,-5.5629,-5.5629,-5.5318,-5.611,-5.6671,-5.752,0.0,-6.0745,-6.1627,-6.3451,-6.4648,-6.543,-6.5937,-6.6601,-6.75,-6.8828,-6.9101,-6.8828,-6.8984,-6.875,-6.8437,-6.8828,-6.914,-6.9453,-6.9492,-6.9492,-6.9453,-6.9453,-6.9453,-6.9453,-6.9453,-6.9453,-6.9453,-6.9453,-6.9805,-7.0195,-7.0625,-7.164,-7.2656,-7.3203,-7.3906,-7.4297,-7.4023,-7.4609,-7.6213,-7.992,-8.11,-8.3118,-8.6953,-8.9214,-9.1163,-9.2878,-9.5759,-9.9087,-10.3466,-10.3748,-10.4782,-10.7183,-10.6098,-10.5176,-10.4298,-10.5094,-10.4416,-10.2,-10.1719,-10.1438,-10.0988,-10.0932,-10.0932,-10.0988,-10.2,-10.3309,-2.7564,-2.7801,-2.8164,-2.8501,-2.9382,-3.0251,-3.0823,-3.1294,-3.165,-3.1771,-3.1578,0.0,0.0,0.0,0.0,0.0,0.0,0.0,0.0,0.0,0.0,0.0,0.0,0.0,0.0,0.0,0.0,0.0,0.0,0.0,-4.3201,-4.3201,-4.3201,-4.3201,-4.3957,-4.5932,-4.9158,-4.9707,-5.1725,-5.5112,-5.5835,-5.5559,-5.5112,-5.6223,-5.6749,-5.6926,0.0,-6.063,-6.1024,-6.3001,-6.4287,-6.4961,-6.5625,-6.6406,-6.7305,-6.8633,-6.8984,-6.875,-6.8242,-6.8281,-6.8515,-6.8476,-6.8906,-6.9453,-6.9453,-6.9453,-6.9453,-6.9453,-6.9453,-6.9453,-6.9453,-6.9453,-6.9492,-6.9726,-7.0156,-7.0547,-7.0976,-7.1953,-7.2812,-7.3242,-7.3828,-7.4375,-7.4609,-7.6091,-7.8177,-8.1019,-8.3049,-8.5176,-8.8223,-9.0292,-9.1647,-9.1671,-9.5467,-9.9395,-10.2246,-10.3088,-10.408,-10.51,-10.4886,-10.4381,-10.3248,-10.3643,-10.3573,-10.2787,-10.2112,-10.2,-10.2337,-10.1719,-10.1831,-10.2843,-10.273,-10.384,-2.7434,-2.7521,-2.7838,-2.8712,-2.9518,-3.0219,-3.1296,-3.1533,-3.1653,-3.2349,-3.1964,0.0,0.0,0.0,0.0,0.0,0.0,0.0,0.0,0.0,0.0,0.0,0.0,0.0,0.0,0.0,0.0,0.0,0.0,0.0,-4.2218,-4.2218,-4.2218,-4.2218,-4.2218,-4.4208,-4.817,-4.817,-5.0388,-5.4836,-5.5353,-5.5353,-5.4906,-5.6054,-5.6473,-5.6333,-5.9047,-6.0114,-6.063,-6.2436,-6.3605,-6.4082,-6.5182,-6.6116,-6.7167,-6.8203,-6.8633,-6.8711,-6.793,-6.8164,-6.875,-6.8437,-6.8828,-6.9453,-6.9453,-6.9453,-6.9453,-6.9453,-6.9453,-6.9453,-6.9453,-6.9453,-6.957,-6.9961,-7.043,-7.082,-7.125,-7.2109,-7.293,-7.3242,-7.3828,-7.4492,-7.5117,-7.7215,-7.9623,-8.2184,-8.4652,-8.6974,-8.9093,-9.0884,-9.1824,-9.0757,-9.4874,-9.8554,-10.0718,-10.3349,-10.4354,-10.333,-10.3712,-10.3739,-10.3027,-10.2808,-10.3075,-10.363,-10.2562,-10.2506,-10.3405,-10.2506,-10.273,-10.4135,-10.3292,-10.3911,-2.7844,-2.765,-2.76,-2.8258,-2.8712,-2.9495,-3.1262,-3.1269,-3.163,-3.3715,-3.3494,-3.3102,-3.3788,0.0,0.0,0.0,0.0,0.0,0.0,0.0,0.0,0.0,0.0,0.0,0.0,0.0,0.0,0.0,0.0,0.0,-4.2218,-4.2218,-4.2218,-4.2218,-4.2218,-4.4208,-4.817,-4.817,-5.0143,-5.4146,-5.4111,-5.4111,-5.4146,-5.4557,-5.5144,-5.5488,-5.7882,-5.9264,-5.9802,-6.2305,-6.3308,-6.3273,-6.4573,-6.6169,-6.7776,-6.7556,-6.8125,-6.875,-6.8281,-6.8437,-6.8828,-6.875,-6.9101,-6.9453,-6.9453,-6.9453,-6.9453,-6.9453,-6.9453,-6.9453,-6.9453,-6.9453,-6.957,-6.9961,-7.043,-7.082,-7.125,-7.2344,-7.3281,-7.332,-7.4297,-7.5156,-7.5234,-7.7496,-7.9994,-8.2227,-8.5218,-8.7912,-8.9688,-9.0739,-9.1838,-9.2383,-9.3292,-9.5814,-9.9954,-10.4365,-10.5425,-10.2191,-10.2608,-10.3182,-10.3635,-10.3644,-10.3696,-10.363,-10.3011,-10.2674,-10.2787,-10.2674,-10.273,-10.2843,-10.3349,-10.363,-2.7478,-2.7434,-2.7535,-2.8016,-2.8557,-2.9473,-3.1332,-3.1911,-3.2517,-3.371,-3.3782,-3.3807,-3.4829,0.0,0.0,0.0,0.0,0.0,0.0,0.0,0.0,0.0,0.0,0.0,0.0,0.0,0.0,0.0,0.0,0.0,-4.2218,-4.2218,-4.2218,-4.2218,-4.2218,-4.4208,-4.817,-4.817,-5.0175,-5.4146,-5.4146,-5.4146,-5.4146,-5.4762,-5.5139,-5.5523,-5.7671,-5.8737,-5.959,-6.1359,-6.2324,-6.3063,-6.4414,-6.5212,-6.6078,-6.6785,-6.7571,-6.7803,-6.7634,-6.8242,-6.8711,-6.8164,-6.8476,-6.9062,-6.9062,-6.9219,-6.9453,-6.9453,-6.9453,-6.9453,-6.9453,-6.9609,-6.9961,-7.039,-7.0781,-7.125,-7.164,-7.2578,-7.332,-7.332,-7.414,-7.5,-7.5508,-7.8583,-8.1587,-8.299,-8.6543,-8.9601,-9.0831,-9.1244,-9.1886,-9.2987,-9.6755,-9.95,-10.0362,-10.4824,-10.5827,-10.2625,-10.2815,-10.3001,-10.2406,-10.331,-10.3533,-10.3531,-10.3411,-10.3292,-10.3292,-10.3292,-10.3517,-10.3854,-10.3742,-10.4678,-2.7391,-2.7513,-2.7633,-2.8202,-2.8633,-2.9527,-3.1495,-3.2511,-3.3092,-3.4244,-3.4244,-3.4497,-3.53,-3.6986,0.0,0.0,0.0,0.0,0.0,0.0,0.0,0.0,0.0,0.0,0.0,0.0,0.0,0.0,0.0,0.0,0.0,-4.2218,-4.2218,-4.2218,-4.2218,-4.3957,-4.7178,-4.7922,-4.9929,-5.3141,-5.4006,-5.4283,-5.4317,-5.4968,-5.531,-5.5481,-5.7598,-5.863,-5.9093,-6.0866,-6.1905,-6.3003,-6.3871,-6.4437,-6.4814,-6.6144,-6.6527,-6.6795,-6.7361,-6.7828,-6.8451,-6.8125,-6.8398,-6.8984,-6.8867,-6.9101,-6.9453,-6.9258,-6.9336,-6.9453,-6.9453,-6.9726,-7.0195,-7.0625,-7.1055,-7.1484,-7.1875,-7.2695,-7.332,-7.332,-7.4258,-7.5195,-7.5742,-7.935,-8.2674,-8.3781,-8.7637,-9.051,-9.1336,-9.1612,-9.2392,-9.4315,-9.9286,-10.2299,-10.1781,-10.5123,-10.5827,-10.2625,-10.3305,-10.3154,-10.2179,-10.2641,-10.3199,-10.3644,-10.3472,-10.3523,-10.3691,-10.3523,-10.3691,-10.4087,-10.3691,-10.4896,-2.7925,-2.772,-2.7869,-2.8379,-2.8729,-2.963,-3.2067,-3.2715,-3.3225,-3.5439,-3.5498,-3.5102,-3.5127,-3.5573,-3.6488,0.0,0.0,0.0,0.0,0.0,0.0,0.0,0.0,0.0,0.0,0.0,0.0,0.0,0.0,0.0,0.0,-4.2218,-4.2218,-4.2218,-4.2218,-4.3201,-4.5211,-4.7178,-4.9189,-5.1156,-5.3477,-5.4694,-5.4694,-5.507,-5.5447,-5.5824,-5.7704,-5.838,-5.863,-6.0655,-6.1844,-6.259,-6.259,-6.3373,-6.4563,-6.5048,-6.5544,-6.6277,-6.7105,-6.7532,-6.7969,-6.8529,-6.9101,-6.9375,-6.8945,-6.9101,-6.9336,-6.8945,-6.9101,-6.9453,-6.9453,-6.9805,-7.0195,-7.0625,-7.1055,-7.1484,-7.1875,-7.2695,-7.332,-7.332,-7.4687,-7.5859,-7.5859,-7.9841,-8.3355,-8.3866,-8.7904,-9.0877,-9.1428,-9.1933,-9.3541,-9.7292,-10.0661,-10.2663,-10.3256,-10.5591,-10.5664,-10.2028,-10.2896,-10.3237,-10.2782,-10.2251,-10.2311,-10.3588,-10.3031,-10.3031,-10.3644,-10.3031,-10.3031,-10.3644,-10.3691,-10.4442,0.0,0.0,0.0,-2.9193,0.0,-3.0819,-3.1738,-3.2654,-3.362,-3.5702,-3.6104,-3.6069,-3.6416,-3.7066,0.0,-3.9254,0.0,0.0,0.0,0.0,0.0,0.0,0.0,0.0,0.0,0.0,0.0,0.0,0.0,0.0,0.0,-4.2218,-4.2218,-4.2218,-4.2218,-4.3201,-4.5211,-4.7178,-4.9189,-5.1156,-5.3242,-5.442,-5.4694,-5.507,-5.5447,-5.5824,-5.7387,-5.8132,-5.8666,-6.0744,-6.1613,-6.1871,-6.2165,-6.2644,-6.3417,-6.3664,-6.4295,-6.5046,-6.544,-6.6078,-6.6727,-6.6977,-6.7621,-6.8201,-6.8607,-6.9101,-6.9453,-6.9258,-6.9336,-6.9453,-6.9453,-6.9961,-7.0547,-7.0664,-7.1289,-7.1836,-7.1992,-7.2695,-7.332,-7.332,-7.4453,-7.5508,-7.582,-7.935,-8.2632,-8.3781,-8.7281,-9.0234,-9.1749,-9.3316,-9.5167,-9.8407,-10.1461,-10.3432,-10.4414,-10.6074,-10.6044,-10.3222,-10.2625,-10.1865,-10.0844,-10.196,-10.2082,-10.1259,-10.2533,-10.3088,-10.2255,-10.3475,-10.3864,-10.3644,-10.3691,-10.5032,0.0,0.0,0.0,-2.9816,-3.0251,-3.0699,-3.2009,-3.3022,-3.4059,-3.602,-3.6572,-3.6778,-3.6961,-3.7177,0.0,0.0,0.0,0.0,0.0,0.0,0.0,0.0,0.0,0.0,0.0,0.0,0.0,0.0,0.0,0.0,0.0,-4.2218,-4.2218,-4.2218,-4.2218,-4.2724,-4.3984,-4.5932,-4.7704,-4.8911,-5.1809,-5.3233,-5.3434,-5.4687,-5.531,-5.5824,-5.7458,-5.8416,-5.9201,-6.0817,-6.1361,-6.1361,-6.1801,-6.2095,-6.2278,-6.2969,-6.3266,-6.3749,-6.5003,-6.5418,-6.5833,-6.6467,-6.7332,-6.7977,-6.8346,-6.884,-6.9375,-6.9219,-6.9336,-6.9453,-6.9453,-6.9961,-7.0469,-7.0469,-7.125,-7.1953,-7.1758,-7.2578,-7.332,-7.332,-7.4492,-7.5586,-7.582,-7.9596,-8.293,-8.3568,-8.7281,-9.0372,-9.1979,-9.3454,-9.5956,-9.988,-10.2293,-10.431,-10.6189,-10.6778,-10.6152,-10.3819,-10.2733,-10.1539,-10.0183,-10.1179,-10.1522,-10.0482,-10.2031,-10.2806,-10.2917,-10.3477,-10.3755,-10.3978,-10.3584,-10.5517,0.0,0.0,0.0,-2.9981,-2.9755,0.0,-3.2921,-3.3546,-3.4318,-3.609,-3.6818,-3.7242,-3.6794,-3.6405,0.0,0.0,0.0,0.0,0.0,0.0,0.0,0.0,0.0,0.0,0.0,0.0,0.0,0.0,0.0,0.0,0.0,-4.2218,-4.2218,-4.2218,-4.2218,-4.2218,-4.2218,-4.4208,-4.5211,-4.5211,-4.9501,-5.1395,-5.1395,-5.3679,-5.507,-5.6004,-5.7704,-5.9129,-6.0444,-6.0811,-6.0994,-6.1105,-6.1398,-6.1581,-6.1655,-6.2746,-6.2641,-6.2607,-6.5046,-6.5497,-6.5162,-6.6776,-6.757,-6.806,-6.7939,-6.8617,-6.9375,-6.8984,-6.914,-6.9453,-6.9453,-6.9726,-7.0078,-7.0039,-7.1015,-7.1836,-7.1484,-7.2383,-7.3281,-7.332,-7.4648,-7.5781,-7.6146,-8.0453,-8.3696,-8.3829,-8.7912,-9.1107,-9.2025,-9.3177,-9.6081,-10.1611,-10.2824,-10.4518,-10.7779,-10.7563,-10.6207,-10.3819,-10.3005,-10.1865,-10.0074,-10.0805,-10.0975,-10.0865,-10.1577,-10.2735,-10.4291,-10.3359,-10.3363,-10.4591,-10.3864,-10.5574,0.0,0.0,0.0,0.0,0.0,-3.1927,-3.401,-3.5369,-3.5778,-3.5412,-3.6185,-3.6966,-3.768,0.0,0.0,0.0,0.0,0.0,0.0,0.0,0.0,0.0,0.0,0.0,0.0,0.0,0.0,0.0,0.0,0.0,-4.2218,-4.2218,-4.2218,-4.2218,-4.2218,-4.2218,-4.2218,-4.4208,-4.5211,-4.5211,-4.7765,-4.9035,-4.9035,-5.3021,-5.5424,-5.7141,-5.8096,-5.9129,-6.0444,-6.0811,-6.1141,-6.1435,-6.1215,-6.1508,-6.1985,-6.1723,-6.1655,-6.2278,-6.3086,-6.3749,-6.4375,-6.5646,-6.6284,-6.7078,-6.8022,-6.8324,-6.8664,-6.9074,-6.9375,-6.9453,-6.9453,-6.9726,-7.0039,-6.9687,-7.0547,-7.1601,-7.1836,-7.2344,-7.293,-7.3242,-7.414,-7.5645,-7.8263,-8.1043,-8.4041,-8.7922,-9.0193,-9.1382,-9.1612,-9.2716,-9.5437,-10.1061,-10.2257,-10.4205,-10.8373,-10.8269,-10.6641,-10.3819,-10.3005,-10.1702,-9.9477,-10.0517,-10.0572,-9.9593,-10.157,-10.2444,-10.2488,-10.358,-10.4253,-10.4636,-10.4479,-10.5989,0.0,0.0,0.0,0.0,0.0,0.0,-3.5364,-3.609,-3.6358,-3.5821,-3.6155,0.0,0.0,0.0,0.0,0.0,0.0,0.0,0.0,0.0,0.0,0.0,0.0,0.0,0.0,0.0,0.0,0.0,0.0,-4.2218,-4.2218,-4.2218,-4.2218,-4.2218,-4.2218,-4.2218,-4.2218,-4.3229,-4.3733,-4.3733,-4.5683,-4.7178,-4.82,-5.1792,-5.4653,-5.7281,-5.7848,-5.8985,-6.0444,-6.0811,-6.0994,-6.1031,-6.1215,-6.1398,-6.1581,-6.1361,-6.1691,-6.2315,-6.2865,-6.3489,-6.4075,-6.5192,-6.6131,-6.6812,-6.7608,-6.8401,-6.8927,-6.919,-6.9453,-6.9453,-6.9453,-6.9609,-6.9805,-6.9726,-7.0547,-7.1367,-7.1367,-7.207,-7.2812,-7.3242,-7.4023,-7.5611,-7.8502,-8.1653,-8.5212,-8.928,-9.0234,-9.0693,-9.1382,-9.2117,-9.4833,-10.0911,-10.1992,-10.3995,-10.8589,-10.8432,-10.7183,-10.5013,-10.409,-10.2787,-10.0942,-10.1485,-10.1268,-10.0074,-10.1714,-10.2869,-10.3142,-10.4015,-10.4697,-10.503,-10.4703,-10.5955,0.0,0.0,0.0,0.0,0.0,0.0,0.0,0.0,0.0,0.0,0.0,0.0,0.0,0.0,0.0,0.0,0.0,0.0,0.0,0.0,0.0,0.0,0.0,0.0,0.0,0.0,0.0,0.0,0.0,-4.2111,-4.2084,-4.2138,-4.2191,-4.2138,-4.2191,-4.2218,-4.2218,-4.2218,-4.2218,-4.2218,-4.3957,-4.5712,-4.7674,-4.9718,-5.3008,-5.6684,-5.7353,-5.8734,-6.0334,-6.0738,-6.0738,-6.0554,-6.1141,-6.1215,-6.1031,-6.1251,-6.1691,-6.2205,-6.2902,-6.3489,-6.4002,-6.4809,-6.5902,-6.6965,-6.7305,-6.8137,-6.919,-6.9453,-6.9453,-6.9453,-6.9453,-6.9453,-6.957,-6.9961,-7.0664,-7.1172,-7.0898,-7.1836,-7.2812,-7.3242,-7.4621,-7.6734,-7.9293,-8.3006,-8.6664,-8.9551,-8.9591,-8.9821,-9.1198,-9.1841,-9.4457,-10.0397,-10.1942,-10.3995,-10.8503,-10.8594,-10.7672,-10.6207,-10.5067,-10.3927,-10.2625,-10.2625,-10.2299,-10.1268,-10.2245,-10.3291,-10.4356,-10.4502,-10.5079,-10.5534,-10.5095,-10.6086,0.0,0.0,0.0,0.0,0.0,0.0,0.0,0.0,0.0,0.0,0.0,0.0,0.0,0.0,0.0,0.0,0.0,0.0,0.0,0.0,0.0,0.0,0.0,0.0,0.0,0.0,0.0,0.0,-4.1844,-4.1737,-4.1497,-4.1924,-4.2111,-4.1844,-4.2084,-4.2218,-4.2218,-4.2218,-4.2218,-4.2218,-4.2471,-4.3705,-4.5712,-4.6519,-4.9686,-5.4238,-5.6719,-5.8554,-5.9894,-6.0298,-6.0664,-6.0884,-6.0664,-6.0738,-6.0958,-6.0664,-6.1031,-6.1728,-6.2205,-6.2865,-6.3599,-6.4405,-6.5192,-6.606,-6.6965,-6.7872,-6.8626,-6.919,-6.9453,-6.9453,-6.9453,-6.9453,-6.957,-6.9961,-7.043,-7.0898,-7.1211,-7.1992,-7.2812,-7.3242,-7.7323,-8.1781,-8.3781,-8.6619,-8.9001,-8.9867,-8.9913,-9.0096,-9.0739,-9.1612,-9.4042,-9.9421,-10.1426,-10.4149,-10.8542,-10.8944,-10.7943,-10.5718,-10.4904,-10.371,-10.2028,-10.2408,-10.2625,-10.2462,-10.2625,-10.3005,-10.3602,-10.4711,-10.5624,-10.6408,-10.6774,-10.7843,0.0,0.0,0.0,0.0,0.0,0.0,0.0,0.0,0.0,0.0,0.0,0.0,0.0,0.0,0.0,0.0,0.0,0.0,0.0,0.0,0.0,0.0,0.0,0.0,0.0,0.0,0.0,0.0,-4.171,-4.155,-4.1577,-4.1817,-4.1844,-4.155,-4.1978,-4.2058,-4.1737,-4.2031,-4.2138,-4.1978,-4.1817,-4.2237,-4.2958,-4.4619,-4.7922,-5.2169,-5.3735,-5.5131,-5.6537,-5.7955,-5.8024,-5.7552,-5.9699,-5.988,-5.938,-6.0057,-6.1031,-6.1948,-6.1875,-6.2535,-6.3452,-6.4638,-6.5497,-6.6512,-6.7456,-6.8401,-6.8889,-6.9414,-6.9453,-6.9453,-6.9453,-6.9453,-6.957,-6.9961,-7.043,-7.0898,-7.1601,-7.2226,-7.3166,-7.5176,-7.8867,-8.2689,-8.4867,-8.7517,-8.9362,-8.9867,-9.0234,-9.0601,-9.1107,-9.1749,-9.441,-9.9983,-10.154,-10.3842,-10.9096,-10.9107,-10.8432,-10.7021,-10.6044,-10.485,-10.3439,-10.3602,-10.3439,-10.2733,-10.3005,-10.3493,-10.409,-10.5314,-10.6121,-10.6397,-10.6881,-10.7903,0.0,0.0,0.0,0.0,0.0,0.0,0.0,0.0,0.0,0.0,0.0,0.0,0.0,0.0,0.0,0.0,0.0,0.0,0.0,0.0,0.0,0.0,0.0,0.0,0.0,0.0,0.0,0.0,-4.1434,-4.1221,-4.1301,-4.171,-4.1603,-4.1229,-4.1737,-4.179,-4.1336,-4.1844,-4.2004,-4.179,-4.163,-4.1497,-4.1363,-4.3592,-4.6225,-4.9159,-5.0867,-5.228,-5.387,-5.5472,-5.546,-5.4787,-5.8095,-5.8773,-5.8014,-5.988,-6.1215,-6.1985,-6.1801,-6.2388,-6.3565,-6.464,-6.576,-6.6885,-6.7945,-6.8927,-6.9453,-6.9453,-6.9453,-6.9453,-6.9453,-6.9453,-6.957,-7.0156,-7.0508,-7.1015,-7.2109,-7.3204,-7.4582,-7.774,-8.0766,-8.3466,-8.5544,-8.7695,-8.927,-8.9545,-9.0096,-9.0693,-9.1061,-9.1749,-9.4457,-10.0397,-10.149,-10.3999,-10.9096,-10.9517,-10.8811,-10.7889,-10.6912,-10.5772,-10.4524,-10.4416,-10.3819,-10.2896,-10.3439,-10.3927,-10.447,-10.5699,-10.6508,-10.6618,-10.7105,-10.7901,0.0,0.0,0.0,0.0,0.0,0.0,0.0,0.0,0.0,0.0,0.0,0.0,0.0,0.0,0.0,0.0,0.0,0.0,0.0,0.0,0.0,0.0,0.0,0.0,0.0,0.0,0.0,0.0,-4.121,-4.1248,-4.069,-4.1221,-4.1523,-4.1208,-4.1229,-4.139,-4.1336,-4.163,-4.179,-4.179,-4.2031,-4.1897,-4.1336,-4.3151,-4.4037,-4.4342,-4.888,-5.1621,-5.3256,-5.387,-5.4202,-5.4534,-5.6555,-5.7343,-5.7629,-6.0025,-6.1251,-6.1691,-6.2058,-6.2462,-6.3196,-6.4529,-6.561,-6.6543,-6.7907,-6.8927,-6.9453,-6.9453,-6.9453,-6.9453,-6.9453,-6.9453,-6.9648,-7.0508,-7.0703,-7.1172,-7.2851,-7.5216,-7.7822,-8.0428,-8.3118,-8.5544,-8.7272,-8.8535,-8.904,-8.8581,-8.9362,-9.005,-9.005,-9.1336,-9.4042,-9.9322,-10.1376,-10.4149,-10.8703,-10.9594,-10.9137,-10.74,-10.6695,-10.5772,-10.4524,-10.3981,-10.3602,-10.3602,-10.3602,-10.3927,-10.447,-10.5699,-10.6673,-10.7226,-10.8005,-10.8519,-2.8019,0.0,0.0,0.0,0.0,0.0,0.0,0.0,0.0,0.0,0.0,0.0,0.0,0.0,0.0,0.0,0.0,0.0,0.0,0.0,0.0,0.0,0.0,0.0,0.0,0.0,0.0,0.0,0.0,-4.1799,-4.1718,-4.1745,-4.131,-4.0637,-4.0929,-4.1416,-4.163,-4.1176,-4.1229,-4.179,-4.1497,-4.139,-4.1336,-4.2654,-4.329,-4.4037,-4.6211,-4.7696,-4.8877,-5.0658,-5.072,-5.0145,-5.3829,-5.5294,-5.5546,-5.7734,-5.9847,-6.1215,-6.1361,-6.1838,-6.2498,-6.3823,-6.5121,-6.6429,-6.7523,-6.8695,-6.9453,-6.9453,-6.9453,-6.9453,-6.9453,-6.9453,-6.9687,-7.0508,-7.1562,-7.2578,-7.3203,-7.5495,-7.8192,-8.0512,-8.3651,-8.6304,-8.7948,-8.8994,-8.9499,-8.8994,-8.9775,-9.0464,-9.0464,-9.1198,-9.3808,-9.9552,-10.0397,-10.2752,-10.832,-10.8612,-10.8469,-10.7694,-10.6347,-10.5455,-10.5121,-10.409,-10.3602,-10.3602,-10.3602,-10.409,-10.5067,-10.5918,-10.6673,-10.7281,-10.8508,-10.8687,-2.8708,-2.9143,0.0,0.0,0.0,0.0,0.0,0.0,0.0,0.0,0.0,0.0,0.0,0.0,0.0,0.0,0.0,0.0,0.0,0.0,0.0,0.0,0.0,0.0,0.0,0.0,0.0,0.0,0.0,0.0,-4.221,-4.1745,-4.1176,-4.0504,-4.069,-4.1149,-4.1336,-4.0775,-4.0802,-4.1497,-4.1096,-4.1069,-4.1611,-4.2517,-4.3428,-4.4285,-4.4982,-4.5654,-4.6578,-4.8309,-4.8388,-4.7549,-5.1605,-5.3641,-5.4534,-5.6692,-5.8986,-6.0994,-6.1141,-6.1508,-6.2095,-6.3229,-6.4595,-6.6011,-6.7064,-6.8346,-6.9258,-6.9375,-6.9453,-6.9453,-6.9453,-6.9687,-7.0039,-7.0781,-7.2148,-7.3597,-7.411,-7.6681,-7.95,-8.0827,-8.4194,-8.7158,-8.8177,-8.927,-8.9821,-8.927,-9.0096,-9.0647,-9.051,-9.156,-9.4435,-9.9818,-10.0775,-10.2967,-10.7801,-10.8001,-10.7666,-10.7179,-10.5996,-10.5215,-10.5121,-10.4144,-10.3602,-10.3602,-10.3602,-10.4199,-10.5685,-10.6207,-10.6673,-10.7515,-10.8732,-10.9259,0.0,0.0,0.0,0.0,0.0,0.0,0.0,0.0,0.0,0.0,0.0,0.0,0.0,0.0,0.0,0.0,0.0,0.0,0.0,0.0,0.0,0.0,0.0,0.0,0.0,0.0,0.0,0.0,-4.2218,-4.2256,-4.2269,-4.1638,-4.1096,-4.0508,-4.0481,-4.0481,-4.0481,-4.0481,-4.0615,-4.0909,-4.0935,-4.1561,-4.2326,-4.3094,-4.3755,-4.4782,-4.5554,-4.5977,-4.627,-4.6621,-4.6914,-4.7461,-4.9829,-5.2145,-5.4567,-5.6714,-5.9129,-6.1031,-6.1435,-6.1545,-6.1871,-6.2784,-6.3956,-6.5212,-6.6604,-6.7958,-6.8906,-6.9336,-6.9453,-6.9453,-6.9453,-7.0078,-7.082,-7.125,-7.2344,-7.3834,-7.6224,-7.8833,-8.11,-8.11,-8.5053,-8.8397,-8.8397,-8.927,-8.9775,-8.927,-9.0096,-9.051,-9.005,-9.2636,-9.586,-9.9223,-10.1925,-10.4466,-10.6738,-10.7521,-10.7131,-10.5512,-10.5296,-10.4999,-10.4524,-10.3927,-10.3602,-10.3602,-10.3602,-10.4723,-10.6286,-10.644,-10.6906,-10.8213,-10.8907,-11.0097,-2.9495,0.0,0.0,0.0,0.0,0.0,0.0,0.0,0.0,0.0,0.0,0.0,0.0,0.0,0.0,0.0,0.0,0.0,0.0,0.0,0.0,0.0,0.0,0.0,0.0,0.0,0.0,0.0,-4.2218,-4.2165,-4.2283,-4.1274,-4.055,-4.0508,-4.0481,-4.0588,-4.0802,-4.0802,-4.0935,-4.1229,-4.1443,-4.1826,-4.2654,-4.3623,-4.4262,-4.5154,-4.5874,-4.6065,-4.5948,-4.6504,-4.665,-4.6592,-4.7893,-4.9757,-5.1891,-5.2752,-5.5175,-5.8307,-5.8695,-5.9883,-6.1215,-6.1908,-6.3006,-6.4445,-6.4933,-6.6651,-6.8085,-6.8548,-6.8927,-6.9453,-6.9453,-7.0078,-7.0781,-7.0898,-7.2148,-7.3834,-7.6224,-7.8833,-8.1644,-8.3311,-8.6169,-8.8397,-8.8397,-8.8994,-8.9362,-8.9224,-8.9729,-9.0096,-8.9958,-9.2354,-9.5331,-9.8201,-10.0285,-10.2817,-10.5171,-10.5215,-10.4888,-10.4577,-10.4218,-10.3901,-10.3867,-10.3746,-10.3602,-10.3602,-10.4505,-10.5355,-10.644,-10.6508,-10.7127,-10.8882,-10.9316,-11.0281,-2.9451,-2.9807,-3.0129,-3.0539,0.0,0.0,0.0,0.0,0.0,0.0,0.0,0.0,0.0,0.0,0.0,0.0,0.0,0.0,0.0,0.0,0.0,0.0,0.0,0.0,0.0,-4.2218,-4.2218,-4.2218,-4.2084,-4.1726,-4.1844,-4.1141,-4.0743,-4.0668,-4.0535,-4.0508,-4.0535,-4.0428,-4.0588,-4.0989,-4.1016,-4.1723,-4.3068,-4.3372,-4.4229,-4.5335,-4.5758,-4.5948,-4.5831,-4.6328,-4.6504,-4.6533,-4.7235,-4.8929,-5.0965,-5.1121,-5.3262,-5.6085,-5.6324,-5.7657,-5.9488,-5.9704,-6.1475,-6.3633,-6.4044,-6.5531,-6.737,-6.8208,-6.8927,-6.9492,-6.9687,-7.0195,-7.0781,-7.0937,-7.207,-7.3913,-7.7271,-7.9481,-8.143,-8.3805,-8.6301,-8.8259,-8.8673,-8.8994,-8.9362,-8.9775,-9.0096,-9.028,-9.028,-9.3158,-9.5885,-9.7741,-10.0401,-10.2865,-10.429,-10.3924,-10.3547,-10.3238,-10.2987,-10.3126,-10.3199,-10.3584,-10.3602,-10.3602,-10.4684,-10.5712,-10.686,-10.736,-10.8668,-11.0673,-11.1052,-11.1739,-2.9302,-2.9772,-3.0274,-3.136,-3.1022,0.0,-3.2905,-3.2905,-3.2978,0.0,0.0,0.0,0.0,0.0,0.0,0.0,0.0,0.0,0.0,0.0,0.0,0.0,0.0,0.0,-4.2218,-4.2191,-4.2191,-4.2165,-4.162,-4.1301,-4.131,-4.1069,-4.0909,-4.0882,-4.0615,-4.0374,-4.008,-3.9813,-3.9974,-4.0481,-4.0241,-4.1263,-4.3228,-4.3004,-4.3793,-4.5304,-4.5626,-4.5743,-4.5831,-4.6094,-4.6387,-4.6738,-4.7089,-4.8553,-5.0864,-5.0926,-5.224,-5.4026,-5.428,-5.5513,-5.7274,-5.7559,-6.0099,-6.3149,-6.3633,-6.4821,-6.6169,-6.7792,-6.8548,-6.919,-6.9618,-7.0351,-7.082,-7.1211,-7.2303,-7.4457,-7.8849,-8.039,-8.1712,-8.4297,-8.6341,-8.7984,-8.904,-8.9224,-8.9545,-9.0601,-9.0647,-9.0647,-9.0873,-9.432,-9.7102,-9.7758,-10.1536,-10.3663,-10.3088,-10.2983,-10.2551,-10.1708,-10.2032,-10.2485,-10.2715,-10.3132,-10.3602,-10.3602,-10.4411,-10.5669,-10.7607,-10.8668,-11.033,-11.2492,-11.287,-11.3407,-3.0119,-3.0867,-3.1264,-3.0684,-3.1167,0.0,-3.0757,-3.1288,0.0,0.0,0.0,0.0,0.0,0.0,0.0,0.0,0.0,0.0,0.0,0.0,0.0,0.0,0.0,0.0,-4.2191,-4.2283,-4.2122,-4.1566,-4.1301,-4.1035,-4.1016,-4.069,-4.0531,-4.0588,-4.0508,-4.0428,-4.0401,-4.0321,-4.0374,-4.0481,-4.0642,-4.1562,-4.2948,-4.3116,-4.3993,-4.5304,-4.5362,-4.5538,-4.5772,-4.586,-4.6065,-4.6416,-4.7001,-4.7549,-4.7952,-4.8485,-5.0184,-5.1984,-5.3771,-5.5377,-5.7139,-5.927,-6.0525,-6.1613,-6.2349,-6.3675,-6.5159,-6.6949,-6.737,-6.7376,-6.7977,-6.9089,-6.9939,-7.0054,-7.3077,-7.6687,-7.9428,-8.1765,-8.4297,-8.6606,-8.7445,-8.7984,-8.904,-8.9224,-8.9545,-9.0601,-9.0372,-9.059,-9.2466,-9.475,-9.6734,-9.8179,-10.0911,-10.246,-10.1938,-10.1467,-10.1049,-10.0979,-10.1421,-10.1873,-10.1951,-10.2897,-10.3602,-10.3602,-10.526,-10.7027,-10.8739,-10.8458,-10.9486,-11.1225,-11.1056,-11.21,-3.0187,-3.0752,-3.136,-3.124,-3.1409,0.0,0.0,-3.1215,0.0,0.0,0.0,0.0,0.0,0.0,0.0,0.0,0.0,0.0,0.0,0.0,0.0,0.0,0.0,0.0,-4.1421,-4.1978,-4.1897,-4.1025,-4.1035,-4.1042,-4.0909,-4.0637,-4.0829,-4.0695,-4.0695,-4.0561,-4.0536,-4.0401,-4.0401,-4.0241,-4.0535,-4.1182,-4.2127,-4.2537,-4.3323,-4.4322,-4.4914,-4.5362,-4.5567,-4.5889,-4.6211,-4.6533,-4.7031,-4.744,-4.7733,-4.8055,-4.944,-5.1214,-5.2272,-5.4521,-5.7279,-5.8309,-5.9844,-6.1398,-6.1985,-6.3565,-6.5274,-6.5569,-6.6358,-6.7228,-6.7523,-6.8708,-6.99,-7.0168,-7.303,-7.6465,-7.9089,-8.1556,-8.4562,-8.6724,-8.7525,-8.7938,-8.8719,-8.8856,-8.9086,-8.9867,-8.9729,-8.986,-9.0884,-9.3957,-9.6191,-9.671,-10.0197,-10.199,-10.1206,-10.1101,-10.0892,-10.0317,-10.1156,-10.1713,-10.1713,-10.2843,-10.3835,-10.4534,-10.5559,-10.6813,-10.8238,-10.8466,-10.9747,-11.2083,-11.2214,-11.3104,-3.0026,-3.0702,-3.1557,-3.1893,-3.1677,-3.165,0.0,0.0,0.0,0.0,0.0,0.0,0.0,0.0,0.0,0.0,0.0,0.0,0.0,0.0,0.0,0.0,0.0,0.0,0.0,-4.163,-4.188,-4.0814,-4.0855,-4.0912,-4.0909,-4.0882,-4.0829,-4.0829,-4.0829,-4.0588,-4.0401,-4.0294,-4.0294,-4.0107,-4.0294,-4.0643,-4.1396,-4.2147,-4.2898,-4.3734,-4.4739,-4.5245,-4.5421,-4.5948,-4.6387,-4.6767,-4.7118,-4.7587,-4.8084,-4.8633,-4.9668,-5.1058,-5.1573,-5.4103,-5.7064,-5.7352,-5.9308,-6.1691,-6.2278,-6.3787,-6.5162,-6.4677,-6.5798,-6.704,-6.7562,-6.8708,-6.99,-7.0475,-7.3367,-7.659,-7.8707,-8.1651,-8.4289,-8.6575,-8.7249,-8.7754,-8.8351,-8.8397,-8.8627,-8.9132,-8.9132,-8.9353,-8.9666,-9.2954,-9.5539,-9.5894,-9.9593,-10.1833,-10.0788,-10.1101,-10.0944,-10.0088,-10.105,-10.1713,-10.1951,-10.2897,-10.4301,-10.5513,-10.5513,-10.6202,-10.7677,-10.8943,-11.0917,-11.3147,-11.347,-11.4325,-3.0864,-3.2024,-3.2937,-3.0964,-3.2336,-3.3068,-3.061,0.0,-3.1843,-3.1046,0.0,0.0,0.0,0.0,0.0,0.0,0.0,0.0,0.0,0.0,0.0,0.0,0.0,0.0,0.0,-4.2091,-4.1934,-4.1283,-4.0909,-4.0637,-4.0855,-4.0668,-4.0508,-4.0508,-4.0508,-4.0481,-4.0454,-4.0187,-4.0187,-4.0428,-4.0187,-4.0642,-4.1823,-4.2119,-4.3252,-4.4748,-4.4836,-4.5187,-4.5743,-4.5831,-4.6182,-4.6767,-4.7118,-4.744,-4.8049,-5.0093,-5.0771,-5.1287,-5.4756,-5.6046,-5.6579,-5.8656,-6.0306,-6.1801,-6.2902,-6.3122,-6.3381,-6.4529,-6.505,-6.5498,-6.6661,-6.8178,-6.967,-6.99,-7.4614,-7.9216,-7.91,-8.2969,-8.6621,-8.6928,-8.702,-8.7295,-8.8259,-8.8397,-8.8627,-8.9132,-8.881,-8.9423,-9.1429,-9.3396,-9.5605,-9.7877,-10.0335,-10.1415,-10.0788,-10.0788,-10.077,-10.0623,-10.1237,-10.2005,-10.2715,-10.3132,-10.4301,-10.5513,-10.5513,-10.6829,-10.968,-11.125,-11.2167,-11.244,-11.2273,-11.3657,-3.1108,-3.1397,-3.1762,-3.1769,-3.1953,-3.193,-3.1248,-3.1413,-3.165,-3.136,0.0,0.0,0.0,0.0,0.0,0.0,-3.3922,0.0,0.0,0.0,0.0,0.0,0.0,0.0,0.0,0.0,0.0,0.0,-4.0052,-4.0629,-4.0374,-4.0428,-4.0481,-4.0481,-4.0481,-4.0401,-4.0482,-4.0724,-4.0804,-4.0751,-4.0778,-4.0831,-4.1344,-4.2203,-4.3039,-4.4293,-4.504,-4.5362,-4.5772,-4.5977,-4.6328,-4.6738,-4.6914,-4.7265,-4.802,-5.035,-5.1921,-5.297,-5.555,-5.7353,-5.8662,-5.9831,-6.0774,-6.1728,-6.2462,-6.3196,-6.4009,-6.4864,-6.5498,-6.6285,-6.7491,-6.8635,-6.9977,-7.0478,-7.4987,-7.8845,-7.8675,-8.2611,-8.6147,-8.6469,-8.6744,-8.7157,-8.7892,-8.7984,-8.803,-8.8294,-8.803,-8.8432,-8.9952,-9.2397,-9.4652,-9.6561,-9.9485,-10.1467,-10.1206,-10.1713,-10.215,-10.1866,-10.2406,-10.3199,-10.3619,-10.3819,-10.4301,-10.5513,-10.5513,-10.7056,-10.99,-11.1582,-11.2806,-11.3859,-11.4729,-11.5757,-3.0261,-3.028,-3.049,-3.1494,-3.1248,-3.0731,-3.1603,-3.1964,-3.194,-3.2012,-3.1988,0.0,0.0,0.0,-3.2856,-3.3326,0.0,-3.3812,0.0,0.0,0.0,0.0,0.0,0.0,0.0,0.0,0.0,-3.6688,-3.857,-3.9973,-4.029,-4.0027,-4.0187,-4.0374,-4.0454,-4.0348,-4.0294,-4.0912,-4.1046,-4.102,-4.1399,-4.1234,-4.0855,-4.194,-4.2995,-4.3822,-4.5088,-4.5626,-4.5948,-4.6065,-4.6387,-4.6738,-4.665,-4.706,-4.7961,-5.0227,-5.2018,-5.3379,-5.5378,-5.7811,-6.0151,-6.0444,-6.1105,-6.1838,-6.2644,-6.3528,-6.4715,-6.5498,-6.6248,-6.6961,-6.8247,-6.9128,-6.9974,-7.1433,-7.5191,-7.8555,-7.895,-8.2338,-8.555,-8.5872,-8.6331,-8.6744,-8.7465,-8.7695,-8.7433,-8.7419,-8.7603,-8.7925,-8.8914,-9.1707,-9.4504,-9.6249,-9.928,-10.1258,-10.2027,-10.2624,-10.3008,-10.2774,-10.3552,-10.3997,-10.4253,-10.3819,-10.4069,-10.5283,-10.5513,-10.7,-11.0281,-11.1739,-11.344,-11.5638,-11.6737,-11.7032,-2.8142,-2.8884,-2.9707,-2.918,-2.9876,-3.0868,-3.0702,-3.1963,-3.3171,-3.2664,-3.3557,-3.4209,-3.3437,-3.3738,-3.4233,-3.4145,-3.4235,0.0,0.0,0.0,0.0,0.0,0.0,0.0,0.0,0.0,0.0,-3.5598,-3.6389,-3.8154,-4.1006,-3.9722,-3.9203,-4.056,-4.0589,-4.0321,-3.976,-4.0318,-4.0504,-4.0481,-4.1615,-4.153,-4.0497,-4.1861,-4.3066,-4.4306,-4.4915,-4.5641,-4.6211,-4.5889,-4.6153,-4.6709,-4.6387,-4.6855,-4.7961,-4.9951,-5.0529,-5.0752,-5.4713,-5.7455,-5.9417,-6.0554,-6.1508,-6.2352,-6.386,-6.4677,-6.5461,-6.6776,-6.7223,-6.7323,-6.817,-6.8927,-7.0095,-7.2588,-7.579,-7.8993,-8.0375,-8.3446,-8.5761,-8.5458,-8.555,-8.6248,-8.7482,-8.7172,-8.6928,-8.6621,-8.6928,-8.7894,-9.039,-9.249,-9.5159,-9.8838,-9.9612,-10.0822,-10.3186,-10.2394,-10.2191,-10.3629,-10.4051,-10.4253,-10.371,-10.3602,-10.3835,-10.4589,-10.5283,-10.7452,-11.1582,-11.2167,-11.4128,-11.7524,-11.6847,-11.6539,-2.8383,-2.8559,-2.8434,-2.8755,-2.8402,-2.8287,-2.9704,-3.0487,-3.1478,-3.2302,-3.3125,-3.3362,-3.3332,-3.3388,-3.3616,-3.3968,-3.4514,-3.46,0.0,0.0,0.0,0.0,0.0,0.0,0.0,0.0,0.0,-3.6523,-3.5948,-3.6446,-3.8246,-3.903,-3.9587,-4.052,-4.0555,-4.0321,-4.0321,-3.9613,-3.9848,-4.1042,-4.1745,-4.2075,-4.1638,-4.3974,-4.5104,-4.5743,-4.5801,-4.586,-4.5918,-4.6065,-4.6094,-4.6153,-4.6445,-4.6914,-4.7638,-4.989,-5.0778,-5.1382,-5.5426,-5.7282,-5.7918,-5.9875,-6.1208,-6.2338,-6.3671,-6.489,-6.604,-6.7452,-6.7977,-6.849,-6.9385,-6.958,-7.0489,-7.2993,-7.554,-7.8003,-8.02,-8.2859,-8.4678,-8.5275,-8.5734,-8.6009,-8.6359,-8.6285,-8.6285,-8.5568,-8.6163,-8.7848,-9.039,-9.249,-9.506,-9.8332,-9.9715,-10.1136,-10.3238,-10.408,-10.4893,-10.5479,-10.51,-10.485,-10.4199,-10.3819,-10.3835,-10.4589,-10.6319,-10.8681,-11.1524,-11.3288,-11.5372,-11.7586,-11.6847,-11.6785,-2.7012,-2.6553,-2.6379,-2.7448,-2.7193,-2.6919,-2.8885,-2.9751,-3.0537,-3.1408,-3.1959,-3.2377,-3.2535,-3.2758,-3.296,-3.3491,-3.4549,-3.4937,0.0,-3.4111,0.0,0.0,0.0,0.0,0.0,0.0,0.0,-3.6263,-3.65,-3.6308,0.0,-3.7408,-3.8477,-3.9794,-4.0283,-4.0479,-4.0589,-3.9692,-4.0005,-4.1503,-4.196,-4.2122,-4.2237,-4.5116,-4.6196,-4.6225,-4.6225,-4.6166,-4.5772,-4.5612,-4.567,-4.5977,-4.6153,-4.6621,-4.752,-4.8973,-4.989,-5.1382,-5.4639,-5.6253,-5.6859,-5.9482,-6.0987,-6.2115,-6.3298,-6.4663,-6.6116,-6.7753,-6.8239,-6.8568,-6.9844,-6.9844,-7.0476,-7.3533,-7.5642,-7.779,-8.0957,-8.2886,-8.4356,-8.4999,-8.5458,-8.5642,-8.5688,-8.5688,-8.555,-8.4716,-8.5797,-8.7829,-9.0844,-9.2755,-9.5163,-9.8826,-9.9986,-10.1202,-10.307,-10.5054,-10.605,-10.5718,-10.5338,-10.485,-10.4199,-10.3819,-10.4542,-10.6779,-10.7501,-10.9868,-11.3923,-11.4696,-11.5782,-11.7216,-11.697,-11.7032]},{"header":{"parameterUnit":"m.s-1","parameterCategory":1,"la1":30.6,"la2":29.2853,"lo1":-89.7004,"lo2":-87.6739,"dy":0.0162,"dx":0.0183,"nx":112,"ny":82,"refTime":"2023-03-03T06:00:00:Z","depth":0,"parameterNumber":3,"parameterNumberName":"V-component_of_WINDS"},"data":[0.0,0.0,0.0,0.0,0.0,0.0,0.0,0.0,0.0,0.0,0.0,0.0,0.0,0.0,0.0,0.0,0.0,0.0,0.0,0.0,0.0,0.0,0.0,0.0,0.0,0.0,0.0,0.0,0.0,0.0,0.0,0.0,0.0,0.0,0.0,0.0,0.0,0.0,0.0,0.0,0.0,0.0,0.0,0.0,0.0,0.0,0.0,0.0,0.0,0.0,0.0,0.0,0.0,0.0,0.0,0.0,0.0,0.0,0.0,0.0,0.0,0.0,0.0,0.0,0.0,0.0,0.0,0.0,0.0,0.0,0.0,0.0,0.0,0.0,0.0,0.0,0.0,0.0,0.0,0.0,0.0,0.0,0.0,0.0,0.0,0.0,0.0,0.0,0.0,0.0,-8.2187,-8.5095,-8.8978,-9.1265,-9.127,-9.0683,-8.9302,-8.7248,0.0,0.0,0.0,0.0,0.0,0.0,0.0,0.0,0.0,0.0,0.0,0.0,0.0,0.0,0.0,0.0,0.0,0.0,0.0,0.0,0.0,0.0,0.0,0.0,0.0,0.0,0.0,0.0,0.0,0.0,0.0,0.0,0.0,0.0,0.0,0.0,0.0,0.0,0.0,0.0,0.0,0.0,0.0,0.0,0.0,0.0,0.0,0.0,0.0,0.0,0.0,0.0,0.0,0.0,0.0,0.0,0.0,0.0,0.0,0.0,0.0,0.0,0.0,0.0,0.0,0.0,0.0,0.0,0.0,0.0,0.0,0.0,0.0,0.0,0.0,0.0,0.0,0.0,0.0,0.0,0.0,0.0,0.0,0.0,0.0,0.0,0.0,0.0,0.0,0.0,0.0,0.0,0.0,0.0,0.0,0.0,0.0,0.0,0.0,0.0,0.0,0.0,0.0,0.0,-8.4954,-8.7538,-8.9951,-9.1426,-9.191,-9.0153,-8.8776,-8.8346,0.0,0.0,0.0,0.0,0.0,0.0,0.0,0.0,0.0,0.0,0.0,0.0,0.0,0.0,0.0,0.0,0.0,0.0,0.0,0.0,0.0,0.0,0.0,0.0,0.0,0.0,0.0,0.0,0.0,0.0,0.0,0.0,0.0,0.0,0.0,0.0,0.0,0.0,0.0,0.0,0.0,0.0,0.0,0.0,0.0,0.0,0.0,0.0,0.0,0.0,0.0,0.0,0.0,0.0,0.0,0.0,0.0,0.0,0.0,0.0,0.0,0.0,0.0,0.0,0.0,0.0,0.0,0.0,0.0,0.0,0.0,0.0,0.0,0.0,0.0,0.0,0.0,0.0,0.0,0.0,0.0,0.0,0.0,0.0,0.0,0.0,0.0,0.0,0.0,0.0,0.0,0.0,0.0,0.0,0.0,0.0,0.0,0.0,0.0,0.0,0.0,0.0,0.0,-8.6259,-8.7864,-9.0618,-9.1942,-9.303,-9.3842,-9.1644,-9.01,-8.9938,-8.7767,0.0,0.0,0.0,0.0,0.0,0.0,0.0,0.0,0.0,0.0,0.0,0.0,0.0,0.0,0.0,0.0,0.0,0.0,0.0,0.0,0.0,0.0,0.0,0.0,0.0,0.0,0.0,0.0,0.0,0.0,0.0,0.0,0.0,0.0,0.0,0.0,0.0,0.0,0.0,0.0,0.0,0.0,0.0,0.0,0.0,0.0,0.0,0.0,0.0,0.0,0.0,0.0,0.0,0.0,0.0,0.0,0.0,0.0,0.0,0.0,0.0,0.0,0.0,0.0,0.0,0.0,0.0,0.0,0.0,0.0,0.0,0.0,0.0,0.0,0.0,0.0,0.0,0.0,0.0,0.0,0.0,0.0,0.0,0.0,0.0,0.0,0.0,0.0,0.0,0.0,0.0,0.0,0.0,0.0,0.0,0.0,0.0,0.0,0.0,0.0,0.0,0.0,-8.8474,-9.0076,-9.2882,-9.3664,-9.443,-9.5299,-9.2714,-9.1057,-9.0736,-8.7662,0.0,0.0,0.0,0.0,0.0,0.0,0.0,0.0,0.0,0.0,0.0,0.0,0.0,0.0,0.0,0.0,0.0,0.0,0.0,0.0,0.0,0.0,0.0,0.0,0.0,0.0,0.0,0.0,0.0,0.0,0.0,0.0,0.0,0.0,0.0,0.0,0.0,0.0,0.0,0.0,0.0,0.0,0.0,0.0,0.0,0.0,0.0,0.0,0.0,0.0,0.0,0.0,0.0,0.0,0.0,0.0,0.0,0.0,0.0,0.0,0.0,0.0,0.0,0.0,0.0,0.0,0.0,0.0,0.0,0.0,0.0,0.0,0.0,0.0,0.0,0.0,0.0,0.0,0.0,0.0,0.0,0.0,0.0,0.0,0.0,0.0,0.0,0.0,0.0,0.0,0.0,0.0,0.0,0.0,0.0,0.0,0.0,0.0,0.0,0.0,0.0,0.0,-9.007,-9.0744,-9.3913,-9.4404,-9.4704,-9.4649,-9.2125,-9.0206,-8.966,-8.6969,0.0,0.0,0.0,0.0,0.0,0.0,0.0,0.0,0.0,0.0,0.0,0.0,0.0,0.0,0.0,0.0,0.0,0.0,0.0,0.0,0.0,0.0,0.0,0.0,0.0,0.0,0.0,0.0,0.0,0.0,0.0,0.0,0.0,0.0,0.0,0.0,0.0,0.0,0.0,0.0,0.0,0.0,0.0,0.0,0.0,0.0,0.0,0.0,0.0,0.0,0.0,0.0,0.0,0.0,0.0,0.0,0.0,0.0,0.0,0.0,0.0,0.0,0.0,0.0,0.0,0.0,0.0,0.0,0.0,0.0,0.0,0.0,0.0,0.0,0.0,0.0,0.0,0.0,0.0,0.0,0.0,0.0,0.0,0.0,0.0,0.0,0.0,0.0,0.0,0.0,0.0,0.0,0.0,0.0,0.0,0.0,0.0,0.0,0.0,0.0,0.0,0.0,-9.255,-9.4084,-9.4875,-9.5667,-9.6095,-9.5841,-9.3089,-9.1323,-9.1051,0.0,0.0,0.0,0.0,0.0,0.0,0.0,0.0,0.0,0.0,0.0,0.0,0.0,0.0,0.0,0.0,0.0,0.0,0.0,0.0,0.0,0.0,0.0,0.0,0.0,0.0,0.0,0.0,0.0,0.0,0.0,0.0,0.0,0.0,0.0,0.0,0.0,0.0,0.0,0.0,0.0,0.0,0.0,0.0,0.0,0.0,0.0,0.0,0.0,0.0,0.0,0.0,0.0,0.0,0.0,0.0,0.0,0.0,0.0,0.0,0.0,0.0,0.0,0.0,0.0,0.0,0.0,0.0,0.0,0.0,0.0,0.0,0.0,0.0,0.0,0.0,0.0,0.0,0.0,0.0,0.0,0.0,0.0,0.0,0.0,0.0,0.0,0.0,0.0,0.0,0.0,0.0,0.0,0.0,0.0,0.0,0.0,0.0,0.0,0.0,0.0,0.0,-9.1795,-9.4714,-9.6766,-9.6962,-9.7691,-9.7928,-9.7525,-9.4162,-9.2177,-9.2283,0.0,0.0,0.0,0.0,0.0,0.0,0.0,0.0,0.0,0.0,0.0,0.0,0.0,0.0,0.0,0.0,0.0,0.0,0.0,0.0,0.0,0.0,0.0,0.0,0.0,0.0,0.0,0.0,0.0,0.0,0.0,0.0,0.0,0.0,0.0,0.0,0.0,0.0,0.0,0.0,0.0,0.0,0.0,0.0,0.0,0.0,0.0,0.0,0.0,0.0,0.0,0.0,0.0,0.0,0.0,0.0,0.0,0.0,0.0,0.0,0.0,0.0,0.0,0.0,0.0,0.0,0.0,0.0,0.0,0.0,0.0,0.0,0.0,0.0,0.0,0.0,0.0,0.0,0.0,0.0,0.0,0.0,0.0,0.0,0.0,0.0,0.0,0.0,0.0,0.0,0.0,0.0,0.0,0.0,0.0,0.0,0.0,0.0,0.0,0.0,0.0,0.0,-9.3867,-9.6379,-9.8694,-10.0875,-10.0343,-9.9911,-9.9911,-9.5019,-9.2338,0.0,0.0,0.0,0.0,0.0,0.0,0.0,0.0,0.0,0.0,0.0,0.0,0.0,0.0,0.0,0.0,0.0,0.0,0.0,0.0,0.0,0.0,0.0,0.0,0.0,0.0,0.0,0.0,0.0,0.0,0.0,0.0,0.0,0.0,0.0,0.0,0.0,0.0,0.0,0.0,0.0,0.0,0.0,0.0,0.0,0.0,0.0,0.0,0.0,0.0,0.0,0.0,0.0,0.0,0.0,0.0,0.0,0.0,0.0,0.0,0.0,0.0,0.0,0.0,0.0,0.0,0.0,0.0,0.0,0.0,0.0,0.0,0.0,0.0,0.0,0.0,0.0,0.0,0.0,0.0,0.0,0.0,0.0,0.0,0.0,0.0,0.0,0.0,0.0,0.0,0.0,0.0,0.0,0.0,0.0,0.0,0.0,0.0,0.0,0.0,0.0,0.0,0.0,-9.4397,-9.7779,-10.0377,-10.2103,-10.183,-10.13,-10.0683,-9.6046,-9.3621,-9.4164,0.0,0.0,0.0,0.0,0.0,0.0,0.0,0.0,0.0,0.0,0.0,0.0,0.0,0.0,0.0,0.0,0.0,0.0,0.0,0.0,0.0,0.0,0.0,0.0,0.0,0.0,0.0,0.0,0.0,0.0,0.0,0.0,0.0,0.0,0.0,0.0,0.0,0.0,0.0,0.0,0.0,0.0,0.0,0.0,0.0,0.0,0.0,0.0,0.0,0.0,0.0,0.0,0.0,0.0,0.0,0.0,0.0,0.0,0.0,0.0,0.0,0.0,0.0,0.0,0.0,0.0,0.0,0.0,0.0,0.0,0.0,0.0,0.0,0.0,0.0,0.0,0.0,0.0,0.0,0.0,0.0,0.0,0.0,0.0,0.0,0.0,0.0,0.0,0.0,0.0,0.0,0.0,0.0,0.0,0.0,0.0,0.0,0.0,0.0,0.0,0.0,0.0,-9.5459,-9.9334,-10.238,-10.4441,-10.4244,-10.4104,-10.3963,-9.971,-9.7151,-9.7761,0.0,0.0,0.0,0.0,0.0,0.0,0.0,0.0,0.0,0.0,0.0,0.0,0.0,0.0,0.0,0.0,0.0,0.0,0.0,0.0,0.0,0.0,0.0,0.0,0.0,0.0,0.0,0.0,0.0,0.0,0.0,0.0,0.0,0.0,0.0,0.0,0.0,0.0,0.0,0.0,0.0,0.0,0.0,0.0,0.0,0.0,0.0,0.0,0.0,0.0,0.0,0.0,0.0,0.0,0.0,0.0,0.0,0.0,0.0,0.0,0.0,0.0,0.0,0.0,0.0,0.0,0.0,0.0,0.0,0.0,0.0,0.0,0.0,0.0,0.0,0.0,0.0,0.0,0.0,0.0,0.0,0.0,0.0,0.0,0.0,0.0,0.0,0.0,0.0,0.0,0.0,0.0,0.0,0.0,0.0,0.0,0.0,0.0,0.0,0.0,0.0,0.0,-9.6998,-10.0941,-10.4553,-10.7306,-10.7218,-10.7428,-10.8774,-10.4406,-10.1704,-10.2275,0.0,0.0,0.0,0.0,0.0,0.0,0.0,0.0,0.0,0.0,0.0,0.0,0.0,0.0,0.0,0.0,0.0,0.0,0.0,0.0,0.0,0.0,0.0,0.0,0.0,0.0,0.0,0.0,0.0,0.0,0.0,0.0,0.0,0.0,0.0,0.0,0.0,0.0,0.0,0.0,0.0,0.0,0.0,0.0,0.0,0.0,0.0,0.0,0.0,0.0,0.0,0.0,0.0,0.0,0.0,0.0,0.0,0.0,0.0,0.0,-8.7792,-8.8261,0.0,0.0,0.0,0.0,0.0,0.0,0.0,0.0,0.0,0.0,0.0,0.0,0.0,0.0,0.0,0.0,0.0,0.0,0.0,0.0,0.0,0.0,0.0,0.0,0.0,0.0,0.0,0.0,0.0,0.0,0.0,0.0,0.0,0.0,0.0,0.0,0.0,0.0,0.0,0.0,-9.8971,-10.2082,-10.5391,-10.8622,-10.8163,-10.8072,-10.9359,-10.5041,-10.2426,-10.3069,-9.7949,0.0,0.0,0.0,0.0,0.0,0.0,0.0,0.0,0.0,0.0,0.0,0.0,0.0,0.0,0.0,0.0,0.0,0.0,0.0,0.0,0.0,0.0,0.0,0.0,0.0,0.0,0.0,0.0,0.0,0.0,0.0,0.0,0.0,0.0,0.0,0.0,0.0,0.0,0.0,0.0,0.0,0.0,0.0,0.0,0.0,0.0,0.0,0.0,0.0,0.0,0.0,0.0,0.0,0.0,0.0,0.0,0.0,0.0,0.0,-9.143,-9.0691,0.0,0.0,0.0,0.0,0.0,0.0,0.0,0.0,0.0,0.0,0.0,0.0,0.0,0.0,0.0,0.0,0.0,0.0,0.0,0.0,0.0,0.0,0.0,0.0,0.0,0.0,0.0,0.0,0.0,0.0,0.0,0.0,0.0,0.0,0.0,0.0,0.0,0.0,0.0,0.0,-9.9989,-10.3107,-10.6169,-10.952,-10.9843,-11.0379,-11.1326,-10.8429,-10.6404,-10.5375,-10.0885,0.0,0.0,0.0,0.0,0.0,0.0,0.0,0.0,0.0,0.0,0.0,0.0,0.0,0.0,0.0,0.0,0.0,0.0,0.0,0.0,0.0,0.0,0.0,0.0,0.0,0.0,0.0,0.0,0.0,0.0,0.0,0.0,0.0,0.0,0.0,0.0,0.0,0.0,0.0,0.0,0.0,0.0,0.0,0.0,0.0,0.0,0.0,0.0,0.0,0.0,0.0,0.0,0.0,-9.4766,-9.6236,-9.8375,-9.7089,-9.7292,-9.8442,-9.5899,-9.3942,-9.2624,-9.2218,0.0,0.0,0.0,0.0,0.0,0.0,0.0,0.0,0.0,0.0,0.0,0.0,0.0,0.0,0.0,0.0,0.0,0.0,0.0,0.0,0.0,0.0,-11.0321,-11.1218,-11.2021,-11.1419,-10.639,0.0,0.0,0.0,0.0,0.0,0.0,0.0,0.0,0.0,0.0,0.0,-10.1135,-10.4134,-10.7142,-11.02,-11.1639,-11.2598,-11.3258,-11.2119,-11.038,-10.8221,-10.4444,-10.1115,0.0,0.0,0.0,0.0,0.0,0.0,0.0,0.0,0.0,0.0,0.0,0.0,0.0,0.0,0.0,0.0,0.0,0.0,0.0,0.0,0.0,0.0,0.0,0.0,0.0,0.0,0.0,0.0,0.0,0.0,0.0,0.0,-8.2356,-8.3374,0.0,0.0,0.0,0.0,0.0,0.0,0.0,0.0,0.0,0.0,0.0,0.0,0.0,-9.1703,-9.3216,-9.5615,-9.736,-9.8375,-9.8442,-9.8984,-9.9931,-9.9728,-10.0134,-10.0946,-10.1216,0.0,-9.7901,-9.6007,0.0,0.0,0.0,0.0,0.0,0.0,0.0,0.0,0.0,0.0,0.0,0.0,0.0,0.0,0.0,0.0,0.0,0.0,0.0,0.0,0.0,0.0,-11.1944,-11.3783,-11.411,-11.3829,-11.3301,-10.9881,-10.6125,-10.3768,-10.1225,-9.9356,0.0,0.0,0.0,0.0,0.0,0.0,-10.3998,-10.679,-10.9274,-11.1517,-11.2426,-11.3153,-11.382,-11.2267,-11.0902,-11.0541,-10.5001,-10.1428,-10.103,-9.6718,0.0,0.0,0.0,0.0,0.0,0.0,0.0,0.0,0.0,0.0,0.0,0.0,0.0,0.0,0.0,0.0,0.0,0.0,0.0,0.0,0.0,0.0,0.0,0.0,0.0,0.0,0.0,0.0,0.0,-8.3589,-8.5337,-8.4823,-8.6861,-8.7648,0.0,0.0,0.0,0.0,0.0,0.0,0.0,0.0,0.0,-9.2698,-9.3971,-9.5247,-9.6304,-9.8183,-9.9999,-10.1622,-10.2502,-10.3314,-10.399,-10.3517,-10.3517,-10.3855,-10.3787,-10.377,-10.3462,-9.9775,-9.8442,-9.8578,0.0,0.0,0.0,0.0,-9.939,-10.0506,-10.0905,-10.2112,-10.346,-10.3865,0.0,0.0,0.0,0.0,0.0,0.0,0.0,-10.809,-11.2002,-11.3571,-11.4593,-11.6415,-11.7075,-11.7127,-11.6955,-11.4847,-11.2121,-10.9006,-10.6626,-10.4576,-10.3545,-10.165,0.0,0.0,0.0,-10.303,-10.4672,-10.7222,-10.9711,-11.1714,-11.2807,-11.3414,-11.3354,-11.2971,-11.1984,-11.0077,-10.5614,-10.2667,-10.1485,-9.7069,-9.4723,0.0,0.0,0.0,0.0,0.0,0.0,0.0,0.0,0.0,0.0,0.0,0.0,0.0,0.0,0.0,0.0,0.0,0.0,0.0,0.0,0.0,0.0,0.0,0.0,0.0,0.0,0.0,0.0,-8.6138,-8.7738,-8.6408,-8.9035,-9.0255,0.0,0.0,0.0,0.0,0.0,0.0,-9.2895,-9.4929,-9.6416,-9.6871,-9.8119,-9.9108,-9.9853,-10.1555,-10.3376,-10.506,-10.6215,-10.7162,-10.7903,-10.7153,-10.6812,-10.6812,-10.6472,-10.6919,-10.7622,-10.3257,-10.1723,-10.2302,-10.1027,-10.0892,-10.1538,-10.1919,-10.2654,-10.3593,-10.3792,-10.5005,-10.6426,-10.6832,-10.6223,-10.5344,-10.555,0.0,0.0,0.0,0.0,-11.0531,-11.4177,-11.5887,-11.6766,-11.844,-11.93,-11.9637,-11.8895,-11.8289,-11.6775,-11.3708,-11.1376,-10.9463,-10.7586,-10.5786,0.0,-10.2468,-10.3188,-10.4488,-10.5589,-10.8209,-11.0341,-11.206,-11.3098,-11.3586,-11.3233,-11.3281,-11.2276,-11.0123,-10.6568,-10.363,-10.1624,-9.7596,-9.5152,-9.5061,0.0,0.0,0.0,0.0,0.0,0.0,0.0,0.0,0.0,0.0,0.0,0.0,0.0,0.0,0.0,0.0,0.0,0.0,0.0,0.0,0.0,0.0,0.0,0.0,0.0,0.0,0.0,0.0,0.0,-8.8227,-9.1559,0.0,0.0,0.0,0.0,-9.4163,-9.5675,-9.6625,-9.6928,-9.8125,-9.9377,-10.0309,-10.2643,-10.4102,-10.485,-10.7373,-10.893,-10.9173,-10.9241,-10.9758,-11.0834,-11.0069,-10.9722,-10.9722,-11.0417,-11.0278,-10.9513,-10.6106,-10.6283,-10.8243,-10.6712,-10.5974,-10.587,-10.587,-10.5373,-10.4938,-10.7035,-10.7847,-10.8118,-10.9606,-10.8591,-10.663,-10.6426,-10.6828,0.0,0.0,-11.2281,-11.3705,-11.6968,-11.7928,-11.8199,-11.9011,-11.9755,-12.0093,-11.9349,-11.8845,-11.8221,-11.6901,-11.461,-11.2187,-11.0481,0.0,-10.6225,-10.5159,-10.6249,-10.7428,-10.8167,-11.0691,-11.2667,-11.3172,-11.3172,-11.3362,-11.3929,-11.2616,-11.1669,-11.2161,-10.7953,-10.4458,-10.2444,-9.8775,-9.5899,-9.3801,-9.4294,0.0,0.0,0.0,0.0,0.0,0.0,0.0,0.0,0.0,0.0,0.0,0.0,0.0,0.0,0.0,0.0,0.0,0.0,0.0,0.0,0.0,0.0,0.0,0.0,0.0,0.0,0.0,0.0,-9.3587,-9.6718,0.0,-9.7252,-9.6987,-9.7359,-9.8437,-9.8736,-9.9606,-10.1539,-10.2523,-10.3398,-10.4213,-10.5686,-10.6978,-10.7954,-10.9629,-11.0703,-11.1223,-11.1708,-11.1834,-11.1654,-11.0958,-11.1167,-11.2126,-11.1306,-11.1745,-11.3051,-11.1288,-11.0418,-11.0245,-11.0357,-11.0608,-11.0724,-11.0366,-11.0626,-11.1058,-11.1403,-11.1568,-11.1856,-11.1238,-11.0358,-10.9331,-10.893,-10.9873,-11.1157,-11.3184,-11.4671,-11.609,-11.8334,-11.8808,-11.9011,-11.9687,-12.0093,-12.0161,-11.9958,-11.9739,-11.9452,-11.8845,-11.6624,-11.422,-11.2572,-11.0685,-10.8697,-10.6652,-10.7731,-10.8659,-10.8413,-11.0758,-11.243,-11.2619,-11.2745,-11.2995,-11.2995,-11.1937,-11.1064,-11.0803,-10.6273,-10.3215,-10.1866,-9.7579,-9.4877,-9.3874,-9.3501,-9.3156,0.0,0.0,0.0,0.0,0.0,0.0,0.0,0.0,0.0,0.0,0.0,0.0,0.0,0.0,0.0,0.0,0.0,0.0,0.0,0.0,0.0,0.0,0.0,0.0,0.0,0.0,-9.7195,-9.744,-10.0977,-10.2861,-10.1576,-10.1605,-10.2032,-10.2749,-10.2971,-10.3927,-10.5848,-10.7047,-10.7774,-10.7966,-10.9171,-11.0058,-11.0623,-11.1891,-11.2738,-11.3178,-11.3824,-11.4071,-11.3663,-11.277,-11.2981,-11.3944,-11.3051,-11.3551,-11.4988,-11.5271,-11.4493,-11.3241,-11.3575,-11.3832,-11.3808,-11.3431,-11.3422,-11.3673,-11.3673,-11.4332,-11.465,-11.2607,-11.1514,-11.1024,-11.0833,-11.1501,-11.2854,-11.4883,-11.6372,-11.7657,-11.9214,-11.9552,-11.9687,-12.0161,-12.0296,-12.0296,-12.0144,-12.0144,-12.0144,-11.9839,-11.8388,-11.6239,-11.3976,-11.2596,-11.0927,-10.8502,-10.8843,-10.9461,-10.9398,-11.0883,-11.2248,-11.2497,-11.262,-11.262,-11.2434,-11.144,-11.0202,-10.9334,-10.5164,-10.2124,-10.0739,-9.6921,-9.4162,-9.3182,-9.2585,-9.2348,-9.2347,0.0,0.0,0.0,0.0,0.0,0.0,0.0,0.0,0.0,0.0,0.0,0.0,0.0,0.0,0.0,0.0,0.0,0.0,0.0,0.0,0.0,0.0,0.0,-9.2856,-9.6623,-9.9425,-9.9325,-10.4163,-10.6462,-10.383,-10.6006,-10.7374,-10.7487,-10.8796,-10.9647,-10.9718,-11.1502,-11.2259,-11.1483,-11.3001,-11.3528,-11.2898,-11.4692,-11.5418,-11.5058,-11.5834,-11.6238,-11.6263,-11.5549,-11.5192,-11.5335,-11.5977,-11.5906,-11.5406,-11.7761,-11.8261,-11.7405,-11.6277,-11.5529,-11.5058,-11.4628,-11.365,-11.2544,-11.3812,-11.5343,-11.6258,-11.3754,-11.2461,-11.1916,-11.1648,-11.1974,-11.326,-11.6101,-11.7522,-11.8469,-11.989,-12.0296,-12.0296,-12.0296,-12.0296,-12.0144,-11.9839,-11.9992,-12.0144,-11.9906,-11.9685,-11.8485,-11.4558,-11.3527,-11.2397,-11.0235,-10.9584,0.0,-11.0753,-11.1751,-11.2373,-11.2546,-11.2728,-11.2728,-11.2603,-11.0805,-10.9382,-10.8218,-10.4305,-10.1277,-9.9163,-9.6447,-9.3926,-9.2042,-9.1445,-9.1379,-9.1939,0.0,0.0,0.0,0.0,0.0,0.0,0.0,0.0,0.0,0.0,0.0,0.0,0.0,0.0,0.0,0.0,0.0,0.0,0.0,0.0,0.0,0.0,-9.6248,-9.6384,-10.0829,-10.475,-10.6502,-10.9933,-11.1486,-11.007,-11.0552,-11.1225,-11.2127,-11.1518,-11.1872,-11.3571,-11.4209,-11.4375,-11.3928,-11.48,-11.5578,-11.6378,-11.6758,-11.7371,-11.7904,-11.8261,-11.8132,-11.7792,-11.7576,-11.804,-11.8818,-11.8111,-11.8143,-11.8475,-11.8919,-11.8889,-11.8675,-11.8118,-11.7861,-11.7718,-11.6348,-11.5904,-11.5955,-11.4839,-11.6137,-11.7579,-11.3942,-11.361,-11.4288,-11.3282,-11.4418,-11.647,-11.7534,-11.8672,-11.9755,-12.0161,-12.0144,-11.9992,-12.0228,-12.0296,-12.0296,-12.0144,-11.9992,-11.9685,-11.9377,-11.8145,-11.6726,-11.4976,-11.3036,-11.1337,-10.9892,-11.0326,-11.0759,-11.0386,-11.2121,-11.2864,-11.2037,-11.2414,-11.2107,-11.0742,-10.9444,-10.7727,-10.5831,-10.2039,-9.9486,-9.7942,-9.5088,-9.3227,-9.2639,-9.2457,-9.2184,0.0,0.0,0.0,0.0,0.0,0.0,0.0,0.0,0.0,0.0,0.0,0.0,0.0,0.0,0.0,0.0,0.0,0.0,0.0,0.0,0.0,0.0,-9.8017,-10.0503,-10.2705,-10.562,-10.8302,-11.0425,-11.2837,-11.4332,-11.4131,-11.401,-11.4381,-11.542,-11.4919,-11.5062,-11.6137,-11.6916,-11.7161,-11.6691,-11.7447,-11.8233,-11.893,-11.9205,-11.9647,-12.0304,-12.0304,-12.0129,-11.9881,-11.945,-11.977,-12.0519,-11.9626,-11.9443,-11.9677,-11.9761,-11.9443,-11.8757,0.0,0.0,0.0,0.0,-11.659,-11.729,-11.5859,-11.6568,-11.7466,-11.4519,-11.4149,-11.4783,-11.4234,-11.5096,-11.6596,-11.7725,-11.8469,-11.9011,-11.9687,-11.9401,-11.9182,-12.0161,-12.0093,-11.989,-12.0077,-11.9992,-11.9839,-11.9154,-11.7278,0.0,-11.473,-11.2895,-11.1174,-11.0139,-11.0759,-11.1255,-11.1555,-11.2859,-11.3419,-11.2965,-11.2784,-11.2232,-11.081,-10.9263,0.0,0.0,0.0,-9.7732,-9.5149,-9.347,0.0,0.0,0.0,-9.2359,-9.2368,-9.168,0.0,0.0,-8.9003,-8.9475,0.0,0.0,0.0,0.0,0.0,0.0,0.0,0.0,0.0,0.0,0.0,0.0,0.0,0.0,0.0,0.0,-10.155,-10.5715,-10.9679,-11.0311,-11.0864,-11.2254,-11.4262,-11.5846,-11.626,-11.6722,-11.7037,-11.7493,-11.8366,-11.8511,-11.7857,-11.9447,0.0,0.0,0.0,-12.1072,-12.1144,-12.1679,-12.1967,-12.2007,-12.2007,-12.1935,-12.1719,-12.1072,-12.0712,-12.0712,-12.0712,-12.0352,-11.9593,-12.0241,-11.9737,-11.8515,-11.9176,-11.8931,-11.7939,-11.6212,-11.6313,-11.7233,-11.6518,0.0,0.0,-11.5153,-11.448,-11.4383,-11.484,-11.4951,-11.5425,-11.759,-11.759,-11.7319,-11.8672,-11.8605,-11.8537,-11.989,-11.9687,-11.9333,-11.9704,-11.9992,-11.9992,-11.9154,-11.6726,-11.473,-11.4218,-11.2542,-11.1174,-11.0935,-11.1129,-11.1687,-11.3272,-11.3721,-11.3916,-11.4218,-11.335,0.0,-11.1746,-10.9454,-10.6876,-10.4049,-10.0088,-9.6111,-9.2158,-9.2087,-9.2685,-9.3702,-9.2739,-9.2476,-9.3019,-9.2422,-9.2422,-9.2965,-9.1704,-9.2072,0.0,0.0,0.0,0.0,0.0,0.0,0.0,0.0,0.0,0.0,0.0,0.0,0.0,0.0,0.0,-10.2206,-10.4991,-10.8064,-11.1515,-11.3644,-11.4874,-11.5167,-11.6708,-11.7347,-11.5818,-11.8158,-11.9376,-11.8567,-11.9879,-12.068,-12.0462,-12.1754,-12.252,-12.2375,-12.22,-12.2375,-12.3096,-12.2871,-12.2655,-12.2303,-12.2303,0.0,-12.0682,-12.0465,-12.0357,-12.0139,-12.0357,-12.0104,-11.9593,-11.9958,-11.9563,-11.8625,-11.7508,-11.6825,-11.6357,-11.5635,-11.5745,-11.6321,-11.6177,-11.7074,-11.7846,-11.5439,-11.5529,-11.6482,-11.6485,-11.6654,0.0,-11.8686,-11.8402,-11.786,-11.8199,-11.8305,-11.8777,-11.9349,-11.9755,-12.0093,-12.0296,-11.9992,-11.9685,-11.9154,-11.6464,-11.4218,-11.3766,-11.1894,-11.0324,-11.0324,-11.1497,-11.2483,-11.2847,-11.4162,-11.466,-11.3224,-11.2926,-11.2121,-10.9889,-10.8349,-10.5895,-10.239,-9.7666,-9.4358,-9.2739,-9.3127,-9.3724,-9.4589,-9.3779,-9.3507,-9.3616,-9.3019,-9.3019,-9.3562,-9.2359,-9.2467,0.0,0.0,0.0,0.0,0.0,0.0,0.0,0.0,0.0,0.0,0.0,-9.8954,-9.9794,0.0,-10.3923,-10.6019,-10.8725,-11.1662,-11.4892,-11.6434,-11.7168,-11.7168,-11.8269,-11.9003,-11.8886,-12.0279,-12.1035,-12.0636,-12.154,-12.1977,-12.1876,-12.2222,-12.2876,-12.3418,-12.2525,-12.2562,-12.3791,-12.2813,-12.2452,-12.2562,-12.22,-12.1657,-12.0968,-12.0968,-12.0861,-12.0754,-12.0861,-12.0754,-12.0465,-11.9851,-11.938,-11.8802,-11.6849,-11.5846,-11.5563,-11.534,-11.5275,-11.5422,-11.5422,-11.6103,-11.6762,-11.4979,-11.5516,-11.6482,-11.5742,-11.6198,-11.6945,-11.7467,-11.7522,-11.7522,-11.7996,-11.8185,-11.8507,-11.9552,-11.9958,-12.0296,-12.0296,-12.0415,-12.0089,-11.837,-11.6234,-11.4454,-11.3134,-11.1778,-11.0873,-11.0569,-11.2175,-11.3413,-11.3595,-11.4975,-11.5606,-11.4361,-11.3552,-11.2372,-11.0759,-10.7289,-10.3811,-10.0524,-9.6898,-9.4503,-9.3779,-9.4104,-9.4538,-9.5135,-9.4267,-9.3941,-9.4267,-9.3616,-9.3507,-9.3779,-9.3182,-9.3236,0.0,0.0,0.0,0.0,0.0,0.0,0.0,0.0,-9.8275,-9.953,-10.1068,-10.2441,-10.3279,-10.5716,-10.798,-10.9361,-11.1897,-11.4818,-11.7828,-11.8416,-11.8783,-11.9076,-11.9664,-12.0618,-12.2013,-12.216,-12.2331,-12.2371,-12.2865,-12.2792,-12.2444,-12.218,-12.2544,-12.3407,-12.223,-12.22,-12.3504,-12.2417,-12.2055,-12.2562,-12.2055,-12.1693,-12.1403,-12.1403,-12.1258,-12.1113,-12.1113,-12.1113,-12.0968,-11.9737,-11.9085,-11.8795,-11.7057,-11.6012,-11.5517,-11.5517,-11.538,-11.5169,-11.5385,-11.5816,-11.6107,-11.4938,-11.5292,-11.6136,-11.4862,-11.5254,-11.6062,-11.5976,-11.6372,-11.7048,-11.7725,-11.8131,-11.8605,-11.9755,-12.0161,-12.0296,-12.0296,-12.077,-12.0359,-11.7638,-11.63,-11.4899,-11.2782,-11.1894,-11.1292,-11.1055,-11.2609,-11.4099,-11.4463,-11.5543,-11.6115,-11.543,-11.393,-11.2435,-11.144,-10.6169,-10.1743,-9.959,-9.6846,-9.5183,-9.4864,-9.4864,-9.5135,-9.557,-9.4538,-9.4159,-9.4538,-9.3941,-9.3616,-9.3616,-9.3616,-9.367,-9.2375,-9.1723,-9.1544,-9.3628,-9.4999,-9.693,0.0,0.0,-10.4155,-10.5046,-10.6874,-10.8312,-10.8192,-10.9599,-11.1084,-11.1818,-11.3512,-11.5332,-11.7094,-11.8563,-11.9957,-12.1499,-12.1793,-12.1866,-12.2086,-12.2674,-12.2894,-12.2209,-12.2796,-12.2869,-12.2209,-12.2298,-12.2532,-12.2605,-12.2012,-12.1693,-12.191,-12.2417,-12.2417,-12.1693,-12.2417,-12.191,-12.0534,-12.0534,-12.0099,-11.952,-11.952,-11.952,-11.952,-11.9302,-11.8795,-11.8288,-11.8723,-11.7926,-11.6767,-11.6767,-11.6664,-11.6808,-11.746,-11.8151,-11.8409,-11.6309,-11.6227,-11.6663,-11.5962,-11.5537,-11.5594,-11.6274,-11.6664,-11.6913,-11.6981,-11.8063,-11.9078,-11.9281,-11.9755,-12.0296,-12.0296,-12.0364,-11.9906,-11.8053,-11.6464,-11.4899,-11.3134,-11.1631,-11.097,-11.1292,-11.3217,-11.4463,-11.4526,-11.5359,-11.5367,-11.4367,-11.3057,-11.1129,-10.8346,-10.4556,-10.1518,-10.0223,-9.686,-9.4973,-9.5461,-9.5515,-9.5515,-9.5624,-9.4973,-9.4376,-9.3887,-9.329,-9.3019,-9.3019,-9.3019,-9.329,-9.5304,-9.4866,0.0,0.0,-9.835,-10.0151,-10.25,-10.3908,-10.5216,-10.6918,-10.8641,-10.997,-11.0884,-11.2652,-11.4085,0.0,-11.6079,-11.7842,-11.8935,-12.0048,-12.0925,-12.1666,-12.174,-12.1843,-12.211,-12.3206,-12.328,-12.1891,-12.2283,-12.2576,-12.2624,-12.1202,-12.0782,-12.1803,-11.9906,-11.9625,-12.1035,-12.0092,-11.9802,-12.0382,-12.031,-11.9552,-11.8433,-11.9302,-11.952,-11.923,-11.9737,-11.9375,-11.8578,-11.9012,-11.8795,-11.7998,-11.7419,-11.7274,-11.7564,-11.7564,-11.7274,-11.6912,-11.7274,-11.7539,-11.7399,-11.593,-11.6227,-11.6901,-11.5687,-11.5678,-11.6355,-11.6053,-11.6857,-11.759,-11.759,-11.8672,-11.9822,-11.9822,-12.0364,-12.077,-12.0364,-11.9955,-11.9086,-11.6857,-11.5636,-11.4283,-11.2492,-11.1946,-11.1831,-11.2461,-11.3272,-11.421,-11.4969,-11.5548,-11.4992,-11.3181,-11.1994,-11.0251,-10.7478,-10.4008,-10.1751,-10.0568,-9.7383,-9.5841,-9.6112,-9.6112,-9.5949,-9.5624,-9.5027,-9.443,-9.3779,-9.3182,-9.291,-9.291,-9.291,-9.3019,-9.6556,0.0,0.0,-9.893,-10.1024,-10.2914,-10.4235,-10.5572,-10.7188,-10.9082,-11.0628,-11.2017,-11.3228,-11.4712,-11.5791,-11.5724,-11.7081,-11.8499,-11.9239,-11.998,-12.0428,-12.0204,-12.0514,-12.063,-12.0426,-12.1883,-12.24,-12.1158,-12.1109,-12.1182,-12.1573,-11.9668,-11.9204,-12.0372,-11.822,-11.8017,-11.9894,-11.822,-11.8002,-11.9282,-11.8701,-11.806,-11.7564,-11.8723,-11.9085,-11.894,-11.952,-11.9012,-11.7781,-11.8288,-11.8288,-11.7709,-11.6477,-11.6695,-11.7781,-11.7998,-11.7709,-11.7202,-11.6922,-11.6897,-11.6702,-11.5554,-11.6053,-11.6785,-11.5343,-11.5753,-11.6565,-11.6053,-11.6913,-11.8131,-11.8402,-11.9281,-12.0296,-12.0296,-12.0702,-12.0973,-12.0364,-11.9712,-11.8357,-11.62,-11.4964,-11.3895,-11.2136,-11.201,-11.2504,-11.3515,-11.3515,-11.3831,-11.4849,-11.4926,-11.4055,-11.1932,-11.1048,-10.9863,-10.7456,-10.4657,-10.2501,-10.1075,-9.8806,-9.7254,-9.6981,-9.6818,-9.6384,-9.5624,-9.5027,-9.443,-9.3779,-9.3345,-9.3236,-9.3399,-9.3236,-9.3127,0.0,0.0,-9.6418,-9.8777,-10.1865,-10.4769,-10.645,-10.943,-11.1976,-11.2893,-11.442,-11.549,-11.5566,-11.5621,-11.5582,-11.5582,-11.5576,-11.5802,-11.6621,-11.7367,-11.7591,-11.6845,-11.7981,-11.8054,0.0,-11.8083,-11.9519,-11.9758,-11.893,-11.8489,-11.8489,-11.8204,-11.8035,-11.8108,-11.7817,-11.7645,-11.7718,-11.7645,-11.7884,-11.841,-11.841,-11.8641,-11.9085,-11.923,-11.8795,-11.8071,-11.8216,-11.7709,-11.6912,-11.6984,-11.6984,-11.6912,-11.6912,-11.6912,-11.6984,-11.7781,-11.8071,-11.7894,-11.6896,-11.7068,-11.7375,-11.5491,-11.5502,-11.6017,-11.5476,-11.5481,-11.5883,-11.6349,-11.7207,-11.8266,-11.9011,-11.9687,-12.0296,-12.0296,-12.0296,-12.0296,-12.0296,-11.931,-11.7986,-11.6399,-11.5366,-11.4067,-11.2555,-11.1808,-11.1998,-11.421,-11.3894,-11.3461,-11.3607,-11.2994,-11.187,-11.0918,-11.0727,-11.0037,-10.8402,-10.6655,-10.4593,-10.2332,-10.0707,-9.9326,-9.8175,-9.7632,-9.6764,-9.5624,-9.5027,-9.443,-9.3779,-9.3779,-9.405,-9.4647,-9.405,-9.3779,0.0,0.0,-9.7619,-10.1086,-10.3305,-10.5171,-10.7902,-10.943,-11.0806,-11.2792,-11.1823,-11.1083,-11.2839,-11.2966,-11.3206,-11.4147,-11.5713,-11.7103,-11.7797,-11.825,-11.7577,-11.5541,-11.6423,0.0,0.0,0.0,0.0,-11.7716,-11.819,-11.8514,-11.8514,-11.8337,-11.77,-11.6893,-11.6028,-11.6059,-11.7134,-11.543,-11.5773,-11.7911,-11.6492,-11.6507,-11.7709,-11.7129,-11.6984,-11.7274,-11.7274,-11.6767,-11.6115,-11.6115,-11.6115,-11.6115,-11.5536,-11.6332,-11.7532,-11.6716,-11.7005,-11.7939,-11.7538,-11.6775,-11.5875,-11.5628,-11.5761,-11.608,-11.6236,-11.6848,-11.7384,-11.7556,-11.8212,-11.8875,-11.9078,-11.9687,-12.0296,-12.0296,-12.0702,-12.0905,-12.0364,-11.8795,-11.7384,-11.653,-11.4132,-11.2338,-11.2492,-11.1366,-11.0987,-11.2188,-11.3847,-11.4863,-11.4679,-11.393,-11.3055,-11.2549,-11.1723,-11.09,-10.9783,-10.7726,-10.5555,-10.3018,-10.1326,-9.9768,-9.8283,-9.774,-9.6818,-9.5624,-9.5027,-9.443,-9.3779,-9.3779,-9.3887,-9.4104,-9.3887,-9.3562,0.0,-9.6546,-9.8078,-10.1775,-10.3717,-10.5171,-10.752,-10.8284,-10.9124,-11.1035,-10.9327,-10.8003,-10.9681,-10.9747,-11.0017,-11.1045,-11.2902,-11.4678,-11.6132,-11.6296,-11.5917,-11.4919,-11.5298,-11.5129,0.0,0.0,0.0,-11.6019,-11.7058,-11.7693,-11.744,-11.7269,-11.6873,-11.5931,-11.5514,-11.5607,-11.6447,-11.4982,-11.5108,-11.677,-11.5938,-11.5782,-11.6477,-11.6187,-11.626,-11.6477,-11.6767,-11.6405,-11.568,-11.568,-11.568,-11.5608,-11.4811,-11.5403,-11.6606,-11.5782,-11.5977,-11.6756,-11.704,-11.6469,-11.5572,-11.6238,-11.6489,-11.6717,-11.7471,-11.8216,-11.8886,-11.8779,-11.916,-11.9552,-11.9552,-11.989,-12.0296,-12.0296,-12.0702,-12.0905,-12.0364,-11.8953,-11.7482,-11.6757,-11.4277,-11.2449,-11.264,-11.2225,-11.1872,-11.1998,-11.4036,-11.5054,-11.4366,-11.3743,-11.3306,-11.3239,-11.2284,-11.1521,-11.0839,-10.8842,-10.6667,-10.3914,-10.2586,-10.1031,-9.9103,-9.8337,-9.736,-9.5949,-9.5353,-9.4701,-9.4104,-9.4104,-9.4213,-9.443,-9.4213,-9.3779,-9.6844,-9.7566,-9.7872,-10.11,-10.3087,-10.4616,-10.5533,-10.6373,-10.7061,-10.7978,-10.7266,-10.6401,0.0,0.0,-10.6125,-10.6353,-10.7583,-10.937,-11.2067,-11.2383,-11.2989,0.0,0.0,0.0,0.0,0.0,0.0,-11.4779,0.0,-11.614,-11.5617,-11.553,-11.5604,-11.553,-11.5825,-11.5993,-11.5993,-11.5993,-11.5714,-11.5166,-11.6474,-11.6637,-11.568,-11.6405,-11.6405,-11.568,-11.6477,-11.626,-11.5608,-11.568,-11.568,-11.5608,-11.4884,-11.4515,-11.438,-11.5096,-11.5246,-11.5027,-11.5795,-11.6075,-11.6157,-11.6707,-11.7473,-11.8232,-11.8643,-11.9454,-12.0328,-12.0025,-12.0055,-12.0364,-12.0296,-12.0296,-12.0296,-12.0296,-12.0296,-12.0296,-12.0296,-11.931,-11.8104,-11.7438,-11.5742,-11.4154,-11.3211,-11.3834,-11.421,-11.3515,-11.4162,-11.4235,-11.2979,-11.262,-11.2433,-11.3239,-11.2476,-11.1572,-11.1182,-11.0059,-10.7986,-10.4544,-10.4275,-10.3116,-10.0354,-9.9477,-9.8337,-9.6546,-9.5949,-9.5353,-9.4701,-9.4756,-9.5027,-9.557,-9.4973,-9.4376,-9.4802,-9.656,-9.8471,-10.1177,-10.2705,-10.4004,-10.6068,-10.6832,-10.7061,-10.7978,-10.5307,-10.302,0.0,0.0,0.0,-10.6011,-10.9292,0.0,-11.4453,-11.564,0.0,-11.5089,0.0,-11.6318,-11.5253,-11.549,0.0,0.0,-11.5373,-11.5627,-11.6383,-11.6801,-11.6466,-11.5456,-11.5591,-11.5694,-11.5993,-11.6394,-11.5745,-11.429,-11.5092,-11.5621,-11.568,-11.5318,-11.5318,-11.568,-11.5318,-11.5028,-11.4884,-11.5463,-11.568,-11.568,-11.6115,-11.6173,-11.5883,-11.5423,-11.5432,-11.5795,-11.5858,-11.5872,-11.608,-11.6849,-11.7473,-11.8232,-11.9261,-12.0419,-12.1509,-12.0774,-12.117,-12.1427,-12.0583,-12.0296,-12.0296,-12.0296,-12.0702,-12.0973,-12.0364,-11.9712,-11.8903,-11.817,-11.6069,-11.3682,-11.1368,-11.2429,-11.3641,-11.3389,-11.4162,-11.4612,-11.4235,-11.3737,-11.3803,-11.4992,-11.3791,-11.296,-11.2766,-11.106,-10.8577,-10.5174,-10.456,-10.3285,-10.0953,-9.9748,-9.8554,-9.7198,-9.6546,-9.5732,-9.4701,-9.5135,-9.5461,-9.557,-9.4973,-9.4376,-9.561,-9.7387,-9.9087,-10.0912,-10.1696,-10.2433,-10.3802,-10.434,-10.4291,-10.4062,-10.2156,0.0,0.0,0.0,0.0,0.0,0.0,0.0,-11.3934,-11.5058,-11.5654,0.0,-11.6892,0.0,-11.6308,-11.6614,-11.6781,0.0,-11.5917,-11.585,-11.6215,-11.6412,-11.6158,-11.5456,-11.5651,-11.5752,-11.5993,-11.6341,-11.5986,-11.5093,-11.4972,-11.5284,-11.568,-11.5173,-11.5318,-11.568,-11.597,-11.6115,-11.6115,-11.6622,-11.6767,-11.6695,-11.6423,-11.6141,-11.5964,-11.5269,-11.5488,-11.5989,-11.6159,-11.6507,-11.6921,-11.7335,-11.8025,-11.8853,-11.9746,-12.1049,-12.1859,-12.0933,-12.1319,-12.1782,-12.0244,-12.0093,-12.0296,-12.0296,-12.0567,-12.077,-12.0364,-12.0041,-11.9244,-11.7666,-11.5938,-11.4043,-11.1591,-11.2693,-11.3768,-11.3452,-11.4344,-11.5107,-11.5107,-11.486,-11.4926,-11.6052,-11.4612,-11.3847,-11.3847,-11.144,-10.8813,-10.6041,-10.4918,-10.3523,-10.1343,-10.03,-9.888,-9.736,-9.6764,-9.5895,-9.4701,-9.5298,-9.5624,-9.557,-9.5244,-9.4756,-9.7604,-9.9008,-9.9859,-10.0516,-10.0743,-10.0818,-10.0667,-10.086,-10.0731,-9.906,0.0,-9.8316,-9.6028,-9.7537,-9.9535,-10.0624,0.0,-10.8336,-11.2362,-11.3108,-11.4157,-11.6928,-11.7299,-11.7299,-11.7299,-11.7521,-11.7606,-11.7501,-11.6973,-11.643,-11.5678,-11.5591,-11.5591,-11.5591,-11.5735,-11.5993,-11.5993,-11.5993,-11.5934,-11.6041,-11.5384,-11.5165,-11.542,-11.5463,-11.5608,-11.5753,-11.7274,-11.7926,-11.7781,-11.7998,-11.7966,-11.7645,-11.6141,-11.5608,-11.5269,-11.5122,-11.5364,-11.6094,-11.6783,-11.7473,-11.8094,-11.8094,-11.8577,-11.9405,-12.0163,-12.1053,-12.1654,-12.0816,-12.1195,-12.1578,-11.9838,-11.9755,-12.0296,-12.0296,-12.0296,-12.0296,-12.0296,-12.0296,-11.9464,-11.6792,-11.5907,-11.4949,-11.2909,-11.3705,-11.44,-11.3768,-11.4779,-11.5664,-11.579,-11.58,-11.5929,-11.6675,-11.5242,-11.4039,-11.397,-11.1241,-10.8548,-10.6675,-10.5272,-10.3477,-10.196,-10.0961,-9.9368,-9.7523,-9.6981,-9.6058,-9.4701,-9.5407,-9.5732,-9.5732,-9.5624,-9.5353,-9.7949,-9.933,-10.0709,-10.1271,-10.1966,-10.2403,-10.1648,-10.1446,0.0,0.0,-9.835,-9.7782,-9.6638,-9.7894,-9.9964,-10.3007,0.0,0.0,0.0,0.0,-11.5796,0.0,0.0,0.0,0.0,0.0,0.0,0.0,0.0,-11.7503,-11.6491,-11.6136,-11.5864,-11.5864,-11.6011,-11.5993,-11.5993,-11.5993,-11.5588,-11.4721,-11.4386,-11.4171,-11.4096,-11.4477,-11.5101,-11.5753,-11.6695,-11.6695,-11.6187,-11.7564,-11.7217,-11.6069,-11.6925,-11.6827,-11.5963,-11.5852,-11.6327,-11.6783,-11.699,-11.7473,-11.8094,-11.8094,-11.8577,-11.9405,-12.0163,-12.0709,-12.1037,-12.1294,-12.1195,-12.0816,-12.0312,-12.0161,-12.0296,-12.0296,-12.0296,-12.0296,-12.0296,-12.0296,-11.9464,-11.6792,-11.6693,-11.625,-11.3735,-11.44,-11.5285,-11.5158,-11.579,-11.6549,-11.7181,-11.6359,-11.5922,-11.7307,-11.5555,-11.3839,-11.3159,-11.0461,-10.7666,-10.4975,-10.4499,-10.3752,-10.2562,-10.2015,-10.0416,-9.8175,-9.8012,-9.6926,-9.4701,-9.5787,-9.6329,-9.6329,-9.5841,-9.557,-10.0103,-10.1731,-10.3261,-10.3142,-10.2705,-10.2026,-10.0667,0.0,0.0,0.0,-9.7029,-9.6959,-9.5738,-9.7208,0.0,0.0,0.0,0.0,0.0,0.0,0.0,0.0,0.0,0.0,0.0,0.0,0.0,0.0,0.0,-11.7108,-11.7609,-11.6967,-11.658,-11.658,-11.6213,-11.5773,-11.5406,-11.5773,-11.5754,-11.5035,-11.5453,-11.5311,-11.4994,-11.6129,-11.6435,-11.6405,-11.7564,-11.7926,-11.7564,-11.776,-11.7327,-11.6599,-11.6401,-11.6227,-11.6075,-11.598,-11.6357,-11.7059,-11.7404,-11.7681,-11.7819,-11.7819,-11.8232,-11.8715,-11.9264,-11.9605,-11.9665,-11.95,-11.9889,-12.0069,-11.9431,-11.9687,-12.0296,-12.0296,-12.0296,-12.0296,-12.0296,-12.0567,-12.0069,-11.7384,-11.7479,-11.7095,-11.4433,-11.5095,-11.6043,-11.6043,-11.6612,-11.7181,-11.756,-11.6675,-11.6612,-11.8002,-11.5994,-11.4472,-11.3769,-11.0777,-10.828,-10.6376,-10.547,-10.4704,-10.3622,-10.2296,-10.0422,-9.8337,-9.7632,-9.6492,-9.4701,-9.5895,-9.6492,-9.6492,-9.6167,-9.6058,-10.2072,-10.4134,-10.5815,-10.4954,-10.3459,-10.1799,-9.9913,-9.8437,0.0,0.0,-9.5781,-9.621,-9.4911,-9.6447,-9.8545,0.0,0.0,0.0,0.0,0.0,0.0,0.0,0.0,0.0,0.0,0.0,0.0,0.0,0.0,0.0,-11.8049,-11.7388,-11.7021,-11.7241,-11.6434,-11.5773,-11.5332,-11.592,-11.6121,-11.5714,-11.6279,-11.6234,-11.5383,-11.6956,-11.7364,-11.6695,-11.8288,-11.8835,-11.8623,-11.8045,-11.7489,-11.6819,-11.5491,-11.5376,-11.6029,-11.5878,-11.6438,-11.7199,-11.775,-11.768,-11.7402,-11.7402,-11.768,-11.8025,-11.864,-11.8636,-11.8353,-11.8255,-11.8926,-11.9526,-11.8821,-11.9417,-12.0296,-12.0296,-12.0296,-12.0296,-12.0499,-12.0973,-12.0674,-11.8108,-11.82,-11.7941,-11.5449,-11.5917,-11.6802,-11.6928,-11.7434,-11.7876,-11.8002,-11.7307,-11.7244,-11.8446,-11.6621,-11.4912,-11.3858,-11.1265,-10.9183,-10.7739,-10.6326,-10.5312,-10.4795,-10.2577,-10.0368,-9.85,-9.7252,-9.6112,-9.4918,-9.5949,-9.6492,-9.6492,-9.6492,-9.6492,-10.2696,-10.4908,-10.6799,-10.6464,-10.5195,-10.3309,-10.0894,0.0,0.0,0.0,-9.5324,-9.5675,-9.5522,-9.6318,-9.7887,0.0,0.0,0.0,0.0,0.0,0.0,0.0,0.0,0.0,0.0,0.0,0.0,0.0,0.0,0.0,-11.7388,-11.6507,-11.6434,-11.7241,-11.6434,-11.6287,-11.7021,-11.7094,-11.6727,-11.5993,-11.5861,-11.4941,-11.3269,-11.4583,-11.5403,-11.5898,-11.7491,-11.7722,-11.6892,-11.7498,-11.633,-11.4211,-11.4858,-11.5215,-11.5814,-11.5749,-11.6442,-11.7473,-11.7473,-11.7333,-11.6912,-11.6912,-11.7121,-11.7395,-11.862,-11.8476,-11.8051,-12.0014,-11.9852,-11.9349,-11.9958,-12.0161,-12.0296,-12.0296,-12.0296,-12.0499,-12.1176,-12.1379,-12.0741,-11.8766,-11.8921,-11.8787,-11.6783,-11.6991,-11.7686,-11.8318,-11.8508,-11.8761,-11.9393,-11.8318,-11.7878,-11.8823,-11.712,-11.4764,-11.1828,-11.0853,-10.9247,-10.6661,-10.6327,-10.5932,-10.5348,-10.3635,-10.1418,-9.9097,-9.7903,-9.6709,-9.5515,-9.6167,-9.6492,-9.6492,-9.6492,-9.6492,-10.4303,-10.675,-10.861,-10.8021,-10.5689,-10.3193,-10.1672,0.0,0.0,0.0,-9.5105,-9.5105,-9.4857,-9.5161,-9.5764,-9.7272,0.0,0.0,0.0,0.0,0.0,0.0,0.0,0.0,0.0,0.0,0.0,0.0,0.0,0.0,-11.7902,-11.7608,-11.7608,-11.7902,-11.6727,-11.592,-11.5773,-11.6213,-11.6066,-11.5332,-11.6007,-11.5672,-11.429,-11.5674,-11.6129,-11.5753,-11.6912,-11.7145,-11.6638,-11.6363,-11.56,-11.4468,-11.4728,-11.4841,-11.4862,-11.5892,-11.6031,-11.5961,-11.6919,-11.6707,-11.6083,-11.656,-11.6894,-11.7158,-11.7915,-11.7915,-11.777,-11.8902,-11.9228,-11.9281,-11.9552,-11.9958,-12.0296,-12.0296,-12.0567,-12.0973,-12.1311,-12.2123,-12.2333,-12.0776,-12.0542,-12.0262,-11.8637,-11.8561,-11.8951,-11.9203,-11.9267,-11.9393,-11.9646,-11.8445,-11.7438,-11.7183,-11.6554,-11.4877,-11.2159,-11.1294,-11.0061,-10.7621,-10.7114,-10.655,-10.5458,-10.3359,-10.1202,-9.8717,-9.7849,-9.6981,-9.6112,-9.6709,-9.6981,-9.6981,-9.6655,-9.6492,-10.4815,-10.7566,-10.9789,-10.9904,-10.6876,-10.3807,0.0,0.0,0.0,-9.5287,-9.5009,-9.4679,-9.4383,-9.4328,-9.4443,-9.4865,0.0,-9.6751,0.0,0.0,0.0,0.0,0.0,0.0,0.0,0.0,0.0,0.0,0.0,0.0,-11.8342,-11.7933,-11.786,-11.8049,-11.6727,-11.5773,-11.5479,-11.6066,-11.6066,-11.5479,-11.6467,-11.6257,-11.5239,-11.6209,-11.6274,-11.568,-11.6167,-11.6213,-11.5834,-11.5224,-11.4561,-11.4102,-11.4093,-11.404,-11.4453,-11.5756,-11.5753,-11.5405,-11.6907,-11.6553,-11.5587,-11.6334,-11.6654,-11.6981,-11.7478,-11.7828,-11.802,-11.8686,-11.9078,-11.9484,-11.9484,-11.989,-12.0296,-12.0296,-12.0905,-12.1514,-12.1717,-12.2935,-12.3636,-12.2559,-12.1999,-12.1544,-12.0451,-11.9886,-11.9772,-11.9962,-11.9962,-11.9962,-11.9962,-11.8761,-11.7501,-11.6554,-11.6176,-11.4877,-11.1863,-11.153,-11.0469,-10.8071,-10.7507,-10.6774,-10.5182,-10.3027,-10.0927,-9.8609,-9.774,-9.7143,-9.6764,-9.7143,-9.736,-9.736,-9.6764,-9.6274,-10.3928,-10.7187,-11.0203,-11.2166,-10.9315,-10.5804,0.0,0.0,0.0,-9.6036,-9.5075,-9.4416,-9.4328,-9.4328,-9.433,-9.456,-9.5129,0.0,0.0,0.0,0.0,0.0,0.0,0.0,0.0,0.0,0.0,0.0,0.0,0.0,-11.8342,-11.7207,-11.6672,-11.7241,-11.6434,-11.6434,-11.7241,-11.7241,-11.7241,-11.7241,-11.7241,-11.652,-11.5166,-11.5166,-11.5383,-11.5753,-11.5459,-11.4866,-11.4092,-11.4244,-11.338,-11.2049,-11.2332,-11.3359,-11.4794,-11.5477,-11.6083,-11.6614,-11.811,-11.7342,-11.5898,-11.671,-11.6913,-11.7048,-11.786,-11.8605,-11.9281,-12.0093,-12.0296,-12.0296,-12.0296,-12.0296,-12.0296,-12.0296,-12.0905,-12.1582,-12.2326,-12.3611,-12.4581,-12.3962,-12.3291,-12.2699,-12.1805,-12.0523,-11.9899,-12.0594,-12.072,-12.072,-12.072,-11.9519,-11.8194,-11.7242,-11.6426,-11.4496,-11.0644,-11.1084,-11.0236,-10.7452,-10.7283,-10.655,-10.4629,-10.2862,-10.1092,-9.9206,-9.7957,-9.736,-9.736,-9.736,-9.736,-9.736,-9.6764,-9.5563,-9.9554,-10.2297,-10.4893,-10.4395,-10.3056,-10.1708,-10.1459,0.0,-9.6231,-9.6195,-9.4892,-9.3964,-9.4199,-9.3837,-9.3562,-9.4057,-9.385,0.0,0.0,0.0,0.0,0.0,0.0,0.0,0.0,0.0,0.0,0.0,0.0,0.0,-11.8572,-11.7817,-11.6965,-11.6154,-11.5767,-11.5379,-11.516,-11.6088,-11.6672,-11.6672,-11.7014,-11.7037,-11.6474,-11.5258,-11.4488,-11.431,-11.3146,-11.2259,-11.1692,-11.2364,-11.2024,-11.1648,-11.3359,-11.3836,-11.3762,-11.5464,-11.5594,-11.4689,-11.6179,-11.6383,-11.5898,-11.671,-11.759,-11.8469,-11.8808,-11.9011,-11.9349,-12.0093,-12.0296,-12.0296,-12.0296,-12.0296,-12.0296,-12.0296,-12.0905,-12.1582,-12.2326,-12.3273,-12.3996,-12.4422,-12.4363,-12.4056,-12.3979,-12.3156,-12.218,-12.1586,-12.0953,-12.0391,-11.9455,-11.8508,-11.7501,-11.6554,-11.4657,-11.2702,-11.0644,-11.1084,-11.0643,-10.8691,-10.7788,-10.6997,-10.579,-10.3635,-10.1532,-9.9206,-9.8392,-9.8012,-9.8012,-9.7578,-9.7143,-9.6764,-9.6601,-9.5563,0.0,-10.0106,-10.2323,-10.2358,-10.1271,0.0,0.0,0.0,-9.6438,-9.6543,-9.5158,-9.4073,-9.4578,-9.3768,-9.3256,-9.4234,-9.3943,0.0,0.0,0.0,0.0,0.0,0.0,0.0,0.0,0.0,0.0,0.0,0.0,0.0,-11.7427,-11.6792,-11.5991,-11.497,-11.5384,-11.5603,-11.5384,-11.6114,-11.6137,-11.5938,-11.6246,-11.6012,-11.5236,-11.3987,-11.3226,-11.2779,-11.1578,-11.0907,0.0,-11.1067,-11.123,-11.1447,-11.3149,-11.3622,-11.3476,-11.5714,-11.5976,-11.5492,-11.7319,-11.7725,-11.759,-11.7996,-11.8605,-11.9281,-11.989,-11.9822,-11.9687,-12.0161,-12.0296,-12.0296,-12.0296,-12.0296,-12.0296,-12.0296,-12.0905,-12.1582,-12.2326,-12.3273,-12.4288,-12.537,-12.5323,-12.5298,-12.5298,-12.4639,-12.3567,-12.1676,-12.1236,-12.0496,-11.8822,-11.8002,-11.6998,-11.5415,-11.382,-11.1905,-10.9804,-10.979,-10.976,-10.8916,-10.7897,-10.6993,-10.6011,-10.3905,-10.1802,-9.9206,-9.8609,-9.8283,-9.8283,-9.7903,-9.7252,-9.6492,-9.6492,-9.5122,0.0,0.0,0.0,0.0,0.0,0.0,0.0,-9.9806,0.0,-9.7003,-9.567,-9.471,-9.5328,-9.414,-9.3553,-9.4975,-9.5054,0.0,0.0,0.0,0.0,0.0,0.0,0.0,0.0,0.0,0.0,0.0,0.0,0.0,-11.5288,-11.4967,-11.4405,-11.3976,-11.5383,-11.6672,-11.7156,-11.6428,-11.5666,-11.5019,-11.5019,-11.4024,-11.2323,-11.2069,-11.1801,0.0,-11.0924,-11.0655,-11.0416,-11.0625,-11.0834,-11.0969,-11.2115,-11.3057,-11.4072,-11.6237,-11.7522,-11.8402,-12.0499,-12.0702,-12.0161,-12.0161,-11.9755,-11.9484,-12.0905,-12.077,-12.0296,-12.0364,-12.0296,-12.0296,-12.0296,-12.0296,-12.0296,-12.0296,-12.077,-12.1514,-12.2326,-12.3611,-12.51,-12.6588,-12.6494,-12.6132,-12.6132,-12.5578,-12.4248,-12.1276,-12.1418,-12.1064,-11.8822,-11.7689,-11.6307,-11.3871,-11.3342,-11.1782,-10.8215,-10.8057,-10.8046,-10.8182,-10.7781,-10.6869,-10.5624,-10.3952,-10.1679,-9.9314,-9.8663,-9.8283,-9.8175,-9.8229,-9.7632,-9.6492,-9.6546,-9.4512,-9.5901,0.0,-9.6501,-9.5869,-9.6577,-9.7443,0.0,-9.7403,-9.7218,-9.7681,-9.6355,-9.5396,-9.6146,-9.5031,-9.4437,-9.6003,-9.5186,0.0,0.0,0.0,0.0,0.0,0.0,0.0,0.0,0.0,0.0,0.0,0.0,-11.6435,-11.6536,-11.6435,-11.626,-11.6217,-11.534,-11.4305,-11.3226,-11.302,-11.3194,-11.3836,-11.4184,-11.4214,-11.3958,-11.24,-11.1758,-11.1831,-11.0299,-10.9659,-10.9877,-11.029,-11.1099,-11.2183,-11.2989,-11.4477,-11.6304,-11.7387,-11.7928,-11.8199,-11.8672,-11.8808,-11.8672,-11.9281,-11.9687,-12.0093,-12.0499,-12.0364,-12.0364,-12.0973,-12.0702,-12.0296,-12.0296,-12.0296,-12.0296,-12.0296,-12.0364,-12.0905,-12.219,-12.3205,-12.4288,-12.5912,-12.6876,-12.7388,-12.6849,-12.7157,-12.63,-12.2743,-12.1936,-12.0793,-11.8185,-11.6245,-11.4354,-11.294,-11.1039,-10.9545,-10.8575,-10.9151,-10.9417,-10.9705,-10.8514,-10.7887,-10.7613,-10.5071,-10.257,-10.0562,-9.9097,-9.7849,-9.6872,-9.736,-9.7198,-9.6492,-9.6981,-9.532,-9.5225,-9.545,-9.545,-9.4055,-9.5269,-9.6718,-9.6591,-9.6994,-9.7607,-9.7918,-9.6883,-9.6071,-9.6517,-9.5626,-9.518,-9.6231,-9.6008,0.0,0.0,0.0,0.0,0.0,0.0,0.0,0.0,0.0,0.0,0.0,0.0,-11.6157,-11.6157,-11.6157,-11.6157,-11.6157,-11.4474,-11.3663,-11.3558,-11.2679,-11.2509,-11.2819,-11.2893,-11.2657,-11.2187,-11.1413,-11.0794,-11.0485,-10.9859,-10.9539,-10.9746,-11.0083,-11.0959,-11.2109,-11.3192,-11.4477,-11.6101,-11.7928,-11.8605,-11.8672,-11.9417,-11.9417,-11.9214,-11.9552,-11.9958,-12.0364,-12.0702,-12.0567,-12.0364,-12.077,-12.0567,-12.0296,-12.0296,-12.0296,-12.0296,-12.0296,-12.0567,-12.1108,-12.2258,-12.307,-12.422,-12.5979,-12.6994,-12.7603,-12.7535,-12.8077,-12.7397,-12.3503,-12.2786,-12.1537,-11.8439,-11.6304,-11.4712,-11.3675,-11.1238,-10.9985,-10.9727,-10.9817,-10.9996,-11.043,-10.9131,-10.8046,-10.7778,-10.5173,-10.2508,-10.0183,-9.8609,-9.774,-9.736,-9.736,-9.736,-9.736,-9.736,-9.6077,-9.5525,-9.6201,-9.6516,-9.5419,-9.6256,-9.7253,-9.6928,-9.7383,-9.7912,-9.7924,-9.7186,-9.6666,-9.674,-9.622,0.0,0.0,0.0,0.0,0.0,0.0,0.0,0.0,0.0,0.0,0.0,0.0,0.0,0.0,0.0,-11.5166,-11.5166,-11.5166,-11.5166,-11.5166,-11.3652,-11.3586,-11.5062,-11.3318,-11.2305,-11.1928,-11.1498,-11.0855,-10.9684,-10.9932,-10.9816,-10.9148,-10.9865,0.0,-11.0222,-11.0354,-11.0959,-11.1906,-11.3192,-11.4274,-11.5357,-11.8266,-11.9281,-11.9417,-12.0634,-12.0567,-11.9958,-12.0093,-12.0161,-12.0364,-12.0973,-12.077,-12.0296,-12.0296,-12.0296,-12.0296,-12.0296,-12.0296,-12.0296,-12.0296,-12.0905,-12.1582,-12.2326,-12.3273,-12.4626,-12.6588,-12.7197,-12.7468,-12.8009,-12.8821,-12.7935,-12.37,-12.3704,-12.2836,-11.939,-11.7492,-11.6132,-11.5267,-11.3173,-11.1951,-11.1225,-11.0849,-11.0837,-11.0935,-10.9348,-10.787,-10.6961,-10.4546,-10.1943,-9.9097,-9.8012,-9.774,-9.812,-9.7632,-9.7632,-9.812,-9.7849,-9.723,-9.6952,-9.7928,-9.8092,-9.6468,-9.658,-9.7124,-9.7003,-9.6876,-9.6963,0.0,0.0,0.0,0.0,-9.7418,-9.7274,0.0,0.0,0.0,0.0,0.0,0.0,0.0,0.0,0.0,0.0,0.0,0.0,0.0,0.0,-11.5166,-11.5166,-11.5166,-11.5166,-11.5166,-11.4159,-11.3481,-11.3018,-11.1419,-11.0617,-11.0728,-11.0366,-11.0366,-11.0348,-11.0123,-11.0626,-11.1683,0.0,-11.1299,-11.233,-11.158,-11.1974,-11.3327,-11.4207,-11.5357,-11.6913,-11.9214,-11.9687,-11.9214,-11.9484,-11.9078,-11.8537,-11.9214,-11.9755,-12.0296,-12.0364,-12.0364,-12.0296,-12.0296,-12.0296,-12.0296,-12.0296,-12.0296,-12.0296,-12.0296,-12.0905,-12.1582,-12.2326,-12.4085,-12.5844,-12.6791,-12.8009,-12.8686,-12.8212,-12.9227,-12.8742,-12.425,-12.4883,-12.4395,-12.0785,-11.8929,-11.7738,-11.7288,-11.6165,-11.4996,-11.3409,-11.2727,-11.1874,-11.0992,-10.9868,-10.7496,-10.4298,-10.2826,-10.0834,-9.85,-9.8229,-9.7957,-9.7523,-9.7469,-9.7469,-9.7523,-9.85,-9.8037,-9.6126,-9.6952,-9.7417,-9.6993,-9.7627,-9.8179,-9.7018,-9.7031,-9.7409,-9.778,-9.7186,0.0,0.0,0.0,0.0,0.0,0.0,0.0,0.0,0.0,0.0,0.0,0.0,0.0,0.0,0.0,0.0,0.0,0.0,0.0,-11.5547,-11.5547,-11.5547,-11.5547,-11.5262,-11.4405,-11.3056,-11.2303,-11.156,-11.0538,-11.0175,-11.0227,-11.0538,-11.0942,-11.1376,-11.1724,0.0,-11.225,-11.2392,-11.1924,-11.1912,-11.2515,-11.3666,-11.5019,-11.6575,-11.8875,-11.9484,-11.9078,-11.8199,-11.8266,-11.8672,-11.8605,-11.9349,-12.0296,-12.0296,-12.0296,-12.0296,-12.0296,-12.0296,-12.0296,-12.0296,-12.0296,-12.0364,-12.077,-12.1514,-12.219,-12.2935,-12.4626,-12.6115,-12.6859,-12.7874,-12.8821,-12.9227,-12.9177,-12.82,-12.5958,-12.5473,-12.4513,-12.1987,-12.0367,-11.9437,-12.0009,-11.8419,-11.6892,-11.6077,-11.449,-11.2101,-10.931,-10.7669,-10.5757,-10.3248,-10.1406,-10.002,-9.926,-9.8609,-9.85,-9.8826,-9.8229,-9.8337,-9.9314,-9.9206,-9.9405,-9.5675,-9.5976,-9.6291,-9.693,-9.8076,-9.8843,-9.7769,-9.7775,-9.8147,-9.8824,-9.8375,0.0,0.0,0.0,0.0,0.0,0.0,0.0,0.0,0.0,0.0,0.0,0.0,0.0,0.0,0.0,0.0,0.0,0.0,0.0,-11.5993,-11.5993,-11.5993,-11.5993,-11.5993,-11.5166,-11.3481,-11.3481,-11.2513,-11.0588,-11.0418,-11.0418,-11.0728,-11.1814,-11.2041,-11.1762,-11.2826,-11.3058,-11.225,-11.2061,-11.1852,-11.2119,-11.347,-11.5096,-11.6925,-11.8131,-11.8875,-11.9011,-11.7657,-11.8063,-11.9078,-11.8537,-11.9214,-12.0296,-12.0296,-12.0296,-12.0296,-12.0296,-12.0296,-12.0296,-12.0296,-12.0296,-12.0499,-12.1176,-12.1988,-12.2664,-12.3408,-12.4897,-12.6318,-12.6859,-12.7874,-12.9024,-13.0106,-12.9145,-12.8043,-12.7159,-12.6095,-12.479,-12.319,-12.2264,-12.1854,-12.2651,-12.0888,-11.9025,-11.7406,-11.4781,-11.1418,-10.7002,-10.5539,-10.4193,-10.3027,-10.1029,-9.9973,-10.0074,-9.9043,-9.8989,-9.9857,-9.8989,-9.9206,-10.0562,-9.9748,-10.0345,-9.7102,-9.6426,-9.5465,-9.6168,-9.693,-9.8001,-9.991,-9.9171,-9.8811,-10.15,-10.1573,-10.1126,-10.0981,0.0,0.0,0.0,0.0,0.0,0.0,0.0,0.0,0.0,0.0,0.0,0.0,0.0,0.0,0.0,0.0,0.0,-11.5993,-11.5993,-11.5993,-11.5993,-11.5993,-11.5166,-11.3481,-11.3481,-11.2623,-11.1015,-11.0945,-11.0945,-11.1015,-11.1857,-11.244,-11.3141,-11.299,-11.3242,-11.3665,-11.2402,-11.2468,-11.3563,-11.4715,-11.6954,-11.9186,-11.7602,-11.7996,-11.9078,-11.8266,-11.8537,-11.9214,-11.9078,-11.9687,-12.0296,-12.0296,-12.0296,-12.0296,-12.0296,-12.0296,-12.0296,-12.0296,-12.0296,-12.0499,-12.1176,-12.1988,-12.2664,-12.3408,-12.5303,-12.6927,-12.6994,-12.8686,-13.0174,-13.0309,-12.9615,-12.8641,-12.7225,-12.6938,-12.6136,-12.4013,-12.4892,-12.5251,-12.4849,-12.4366,-12.154,-11.6002,-11.2902,-10.9648,-10.5821,-10.4871,-10.4086,-10.3635,-10.2296,-10.1016,-10.0074,-9.9477,-9.9151,-9.926,-9.9151,-9.9206,-9.9314,-9.9803,-10.0074,-9.5826,-9.5675,-9.524,-9.5344,-9.6406,-9.7926,-10.0134,-10.0443,-10.0823,-10.2982,-10.3205,-10.3279,-10.4093,0.0,0.0,0.0,0.0,0.0,0.0,0.0,0.0,0.0,0.0,0.0,0.0,0.0,0.0,0.0,0.0,0.0,-11.5993,-11.5993,-11.5993,-11.5993,-11.5993,-11.5166,-11.3481,-11.3481,-11.2694,-11.1015,-11.1015,-11.1015,-11.1015,-11.2279,-11.3051,-11.3211,-11.3799,-11.4044,-11.3865,-11.301,-11.3017,-11.3769,-11.561,-11.7043,-11.7991,-11.8042,-11.8224,-11.8631,-11.7738,-11.8199,-11.9011,-11.8063,-11.8605,-11.9619,-11.9619,-11.989,-12.0296,-12.0296,-12.0296,-12.0296,-12.0296,-12.0567,-12.1176,-12.192,-12.2596,-12.3408,-12.4085,-12.5709,-12.6994,-12.6994,-12.8415,-12.9904,-13.0783,-12.8867,-12.7451,-12.8406,-12.6512,-12.5038,-12.5018,-12.5587,-12.5892,-12.5665,-12.3285,-12.0168,-11.6475,-11.2903,-10.9587,-10.6271,-10.5542,-10.4814,-10.3755,-10.2412,-10.1741,-10.1296,-10.03,-9.9748,-9.9748,-9.9748,-9.9965,-10.0291,-10.0183,-9.9771,-9.5525,-9.5165,-9.4805,-9.5208,-9.5894,-9.7339,-10.0656,-10.1564,-10.2608,-10.4616,-10.4616,-10.4615,-10.5501,-10.6659,0.0,0.0,0.0,0.0,0.0,0.0,0.0,0.0,0.0,0.0,0.0,0.0,0.0,0.0,0.0,0.0,0.0,-11.5993,-11.5993,-11.5993,-11.5993,-11.5262,-11.3897,-11.3586,-11.2803,-11.1413,-11.1344,-11.1296,-11.1366,-11.27,-11.3402,-11.3753,-11.4273,-11.445,-11.4124,-11.3277,-11.3425,-11.4248,-11.5821,-11.6848,-11.7532,-11.7506,-11.8187,-11.8664,-11.7263,-11.8076,-11.916,-11.7996,-11.8469,-11.9484,-11.9281,-11.9687,-12.0296,-11.9958,-12.0093,-12.0296,-12.0296,-12.077,-12.1582,-12.2326,-12.307,-12.3814,-12.4491,-12.5912,-12.6994,-12.6994,-12.8618,-13.0242,-13.1189,-12.8855,-12.7307,-12.9011,-12.6328,-12.4576,-12.5713,-12.6093,-12.6007,-12.5161,-12.2062,-11.8724,-11.555,-11.2731,-10.9587,-10.6271,-10.6046,-10.5429,-10.3978,-10.2641,-10.1857,-10.1851,-10.0798,-10.0409,-10.0572,-10.0409,-10.0572,-10.1397,-10.0572,-9.9542,-9.6591,-9.5105,-9.4084,-9.5807,-9.5458,-9.6164,-10.1705,-10.2975,-10.3796,-10.669,-10.6093,-10.4908,-10.4982,-10.6316,-10.7491,0.0,0.0,0.0,0.0,0.0,0.0,0.0,0.0,0.0,0.0,0.0,0.0,0.0,0.0,0.0,0.0,-11.5993,-11.5993,-11.5993,-11.5993,-11.5547,-11.4775,-11.3897,-11.3128,-11.2252,-11.2118,-11.2138,-11.2138,-11.2911,-11.3683,-11.4456,-11.4482,-11.4578,-11.445,-11.3478,-11.3903,-11.5276,-11.5276,-11.6718,-11.8293,-11.6151,-11.7037,-11.8954,-11.741,-11.8156,-11.9526,-11.9296,-11.9687,-12.0161,-11.9417,-11.9687,-12.0093,-11.9417,-11.9687,-12.0296,-12.0296,-12.0905,-12.1582,-12.2326,-12.307,-12.3814,-12.4491,-12.5912,-12.6994,-12.6994,-12.9362,-13.1392,-13.1392,-12.9654,-12.8356,-12.9142,-12.6713,-12.5081,-12.584,-12.6535,-12.5838,-12.2862,-12.1032,-11.81,-11.3178,-11.1757,-10.9418,-10.5653,-10.6552,-10.6439,-10.4591,-10.2698,-10.1865,-10.1796,-10.1248,-10.1248,-10.1851,-10.1248,-10.1248,-10.1851,-10.0572,-9.9112,0.0,0.0,0.0,-9.4745,0.0,-9.8494,-10.0662,-10.201,-10.4244,-10.9071,-10.8691,-10.7797,-10.8835,-10.9193,0.0,-11.0086,0.0,0.0,0.0,0.0,0.0,0.0,0.0,0.0,0.0,0.0,0.0,0.0,0.0,0.0,0.0,-11.5993,-11.5993,-11.5993,-11.5993,-11.5547,-11.4775,-11.3897,-11.3128,-11.2252,-11.1624,-11.1577,-11.2138,-11.2911,-11.3683,-11.4456,-11.3855,-11.409,-11.4519,-11.4847,-11.527,-11.5752,-11.6303,-11.7199,-11.8025,-11.6648,-11.7193,-11.8563,-11.7453,-11.7991,-11.915,-11.8382,-11.8914,-11.9933,-11.9431,-11.9687,-12.0296,-11.9958,-12.0093,-12.0296,-12.0296,-12.1176,-12.219,-12.2393,-12.3476,-12.4423,-12.4694,-12.5912,-12.6994,-12.6994,-12.8956,-13.0783,-13.1324,-12.8855,-12.7242,-12.9011,-12.5814,-12.4196,-12.6282,-12.7267,-12.6866,-12.427,-12.1993,-11.8984,-11.4448,-11.2268,-10.9811,-10.6889,-10.6271,-10.5484,-10.3972,-10.3755,-10.2977,-10.1702,-10.1642,-10.1747,-10.181,-10.1242,-10.1179,-10.1851,-10.0572,-9.8373,0.0,0.0,0.0,-9.6024,-9.8179,-10.0412,-10.2296,-10.3943,-10.64,-11.0857,-11.01,-10.9125,-11.0465,-11.031,0.0,0.0,0.0,0.0,0.0,0.0,0.0,0.0,0.0,0.0,0.0,0.0,0.0,0.0,0.0,0.0,0.0,-11.5993,-11.5993,-11.5993,-11.5993,-11.5808,-11.5335,-11.4405,-11.3762,-11.3163,-11.2382,-11.2234,-11.2658,-11.2749,-11.3402,-11.4456,-11.3994,-11.4033,-11.4332,-11.4985,-11.5404,-11.5404,-11.6231,-11.6783,-11.7128,-11.6581,-11.7131,-11.8024,-11.7874,-11.8626,-11.9379,-11.9295,-11.9617,-12.015,-11.9581,-11.9838,-12.0161,-11.989,-12.0093,-12.0296,-12.0296,-12.1176,-12.2055,-12.2055,-12.3408,-12.4626,-12.4288,-12.5709,-12.6994,-12.6994,-12.9024,-13.0918,-13.1324,-12.9254,-12.77,-12.8683,-12.5814,-12.4386,-12.6598,-12.7456,-12.6761,-12.3893,-12.1909,-11.8943,-11.3874,-11.203,-10.9924,-10.7507,-10.6383,-10.5147,-10.3742,-10.3864,-10.331,-10.2251,-10.2477,-10.2806,-10.2917,-10.2131,-10.196,-10.2179,-10.0907,-9.7967,0.0,0.0,0.0,-9.8834,-10.0451,0.0,-10.6022,-10.8036,-10.9678,-11.1902,-11.0842,-10.971,-11.0767,-11.0402,0.0,0.0,0.0,0.0,0.0,0.0,0.0,0.0,0.0,0.0,0.0,0.0,0.0,0.0,0.0,0.0,0.0,-11.5993,-11.5993,-11.5993,-11.5993,-11.5993,-11.5993,-11.5166,-11.4775,-11.4775,-11.3844,-11.3431,-11.3431,-11.2541,-11.2911,-11.4193,-11.4482,-11.4193,-11.3679,-11.4369,-11.4714,-11.4921,-11.5473,-11.5818,-11.5956,-11.6168,-11.658,-11.713,-11.8563,-11.9385,-12.0013,-12.1089,-12.1274,-12.091,-12.0082,-12.0055,-12.0161,-11.9484,-11.9755,-12.0296,-12.0296,-12.077,-12.1379,-12.1311,-12.3002,-12.4423,-12.3814,-12.537,-12.6927,-12.6994,-12.9295,-13.1257,-13.1226,-13.0011,-12.888,-12.786,-12.6136,-12.5397,-12.6661,-12.7078,-12.5783,-12.2173,-12.1461,-11.8657,-11.2587,-11.1385,-10.998,-10.7507,-10.6664,-10.5484,-10.363,-10.3028,-10.2752,-10.2641,-10.3365,-10.4089,-10.4747,-10.3359,-10.2913,-10.2782,-10.1179,-9.802,0.0,0.0,0.0,0.0,0.0,-10.6081,-10.9529,-11.0493,-11.0936,-11.1463,-11.22,-11.2932,-11.3437,0.0,0.0,0.0,0.0,0.0,0.0,0.0,0.0,0.0,0.0,0.0,0.0,0.0,0.0,0.0,0.0,0.0,-11.5993,-11.5993,-11.5993,-11.5993,-11.5993,-11.5993,-11.5993,-11.5166,-11.4775,-11.4775,-11.3906,-11.345,-11.345,-11.2421,-11.2389,-11.2753,-11.4021,-11.4193,-11.3679,-11.4369,-11.499,-11.5542,-11.5128,-11.568,-11.6576,-11.5476,-11.5956,-11.7128,-11.8026,-11.9266,-12.0437,-12.0906,-12.1448,-12.1636,-12.0842,-12.0762,-12.0748,-12.0244,-12.0161,-12.0296,-12.0296,-12.077,-12.1311,-12.0702,-12.219,-12.4017,-12.4423,-12.5303,-12.6318,-12.6859,-12.8415,-12.971,-12.961,-12.8445,-12.6972,-12.4985,-12.5286,-12.5777,-12.6093,-12.7028,-12.6076,-12.1513,-12.1327,-11.9347,-11.3208,-11.2116,-11.043,-10.7507,-10.6664,-10.5316,-10.3011,-10.3635,-10.3691,-10.2682,-10.381,-10.4704,-10.5207,-10.358,-10.3347,-10.418,-10.1779,-9.8836,0.0,0.0,0.0,0.0,0.0,0.0,-11.1314,-11.1902,-11.1897,-11.1906,-11.2948,0.0,0.0,0.0,0.0,0.0,0.0,0.0,0.0,0.0,0.0,0.0,0.0,0.0,0.0,0.0,0.0,0.0,0.0,-11.5993,-11.5993,-11.5993,-11.5993,-11.5993,-11.5993,-11.5993,-11.5993,-11.562,-11.543,-11.543,-11.4505,-11.3897,-11.3553,-11.2992,-11.2679,-11.242,-11.3533,-11.3916,-11.3679,-11.4369,-11.4714,-11.4783,-11.5128,-11.5473,-11.5818,-11.5404,-11.6025,-11.7197,-11.8232,-11.9405,-12.0508,-12.1329,-12.1798,-12.1783,-12.1343,-12.0898,-12.0598,-12.0447,-12.0296,-12.0296,-12.0296,-12.0567,-12.0905,-12.077,-12.219,-12.3611,-12.3611,-12.4829,-12.6115,-12.6859,-12.8212,-12.9005,-12.8733,-12.6944,-12.5151,-12.4018,-12.4196,-12.4829,-12.5777,-12.6788,-12.5847,-12.1333,-12.1549,-11.9633,-11.3433,-11.2284,-11.0992,-10.8744,-10.7788,-10.644,-10.4529,-10.5091,-10.4866,-10.363,-10.4869,-10.5598,-10.5878,-10.447,-10.3787,-10.4117,-10.1997,-9.9672,0.0,0.0,0.0,0.0,0.0,0.0,0.0,0.0,0.0,0.0,0.0,0.0,0.0,0.0,0.0,0.0,0.0,0.0,0.0,0.0,0.0,0.0,0.0,0.0,0.0,0.0,0.0,0.0,0.0,-11.5699,-11.5626,-11.5773,-11.592,-11.5773,-11.592,-11.5993,-11.5993,-11.5993,-11.5993,-11.5993,-11.5262,-11.4577,-11.369,-11.3664,-11.3031,-11.2459,-11.3172,-11.343,-11.3472,-11.4231,-11.4231,-11.3886,-11.499,-11.5128,-11.4783,-11.5197,-11.6025,-11.699,-11.8301,-11.9405,-12.037,-12.1888,-12.2011,-12.1431,-12.1422,-12.1047,-12.0447,-12.0296,-12.0296,-12.0296,-12.0296,-12.0296,-12.0499,-12.1176,-12.2393,-12.3273,-12.2799,-12.4423,-12.6115,-12.6859,-12.7955,-12.8341,-12.7513,-12.5408,-12.3768,-12.3823,-12.3312,-12.3628,-12.5524,-12.6409,-12.5348,-12.1252,-12.149,-11.9633,-11.384,-11.2453,-11.1497,-10.998,-10.88,-10.762,-10.6271,-10.6271,-10.5934,-10.4866,-10.5878,-10.6495,-10.6658,-10.5418,-10.4621,-10.4162,-10.2379,-10.0672,0.0,0.0,0.0,0.0,0.0,0.0,0.0,0.0,0.0,0.0,0.0,0.0,0.0,0.0,0.0,0.0,0.0,0.0,0.0,0.0,0.0,0.0,0.0,0.0,0.0,0.0,0.0,0.0,-11.4965,-11.4672,-11.4011,-11.5185,-11.5699,-11.4965,-11.5626,-11.5993,-11.5993,-11.5993,-11.5993,-11.5993,-11.5901,-11.5357,-11.4577,-11.442,-11.3593,-11.2446,-11.3141,-11.3083,-11.2645,-11.3403,-11.4093,-11.4507,-11.4093,-11.4231,-11.4645,-11.4093,-11.4783,-11.6094,-11.699,-11.8232,-11.9612,-12.1129,-12.1329,-12.1037,-12.1431,-12.1195,-12.068,-12.0447,-12.0296,-12.0296,-12.0296,-12.0296,-12.0499,-12.1176,-12.1988,-12.2799,-12.3341,-12.4694,-12.6115,-12.6859,-12.6799,-12.5931,-12.4798,-12.3704,-12.3064,-12.3691,-12.3754,-12.4007,-12.4892,-12.6093,-12.5366,-12.1145,-12.1412,-11.981,-11.488,-11.3309,-11.1778,-10.9474,-10.8631,-10.7395,-10.5653,-10.6046,-10.6271,-10.6102,-10.6271,-10.6664,-10.7283,-10.609,-10.5624,-10.5944,-10.4014,-10.2339,0.0,0.0,0.0,0.0,0.0,0.0,0.0,0.0,0.0,0.0,0.0,0.0,0.0,0.0,0.0,0.0,0.0,0.0,0.0,0.0,0.0,0.0,0.0,0.0,0.0,0.0,0.0,0.0,-11.4598,-11.4158,-11.4231,-11.4892,-11.4965,-11.4158,-11.5332,-11.5553,-11.4672,-11.5479,-11.5773,-11.5332,-11.4892,-11.4488,-11.4136,-11.4001,-11.3586,-11.3163,-11.3293,-11.3663,-11.4018,-11.3742,-11.4496,-11.5432,-11.4072,-11.4418,-11.5294,-11.4149,-11.4783,-11.6507,-11.6369,-11.7611,-11.9336,-12.0296,-12.0631,-12.061,-12.107,-12.0898,-12.053,-12.0228,-12.0296,-12.0296,-12.0296,-12.0296,-12.0499,-12.1176,-12.1988,-12.2799,-12.4017,-12.51,-12.6091,-12.6359,-12.6213,-12.5524,-12.4062,-12.3262,-12.2996,-12.3691,-12.4196,-12.4702,-12.5397,-12.6282,-12.5286,-12.1289,-12.1011,-11.9456,-11.4462,-11.3478,-11.2284,-11.0823,-10.9811,-10.8575,-10.7114,-10.7283,-10.7114,-10.6383,-10.6664,-10.717,-10.7788,-10.6702,-10.6121,-10.6397,-10.4575,-10.3295,0.0,0.0,0.0,0.0,0.0,0.0,0.0,0.0,0.0,0.0,0.0,0.0,0.0,0.0,0.0,0.0,0.0,0.0,0.0,0.0,0.0,0.0,0.0,0.0,0.0,0.0,0.0,0.0,-11.4615,-11.4028,-11.4248,-11.4598,-11.4305,-11.3277,-11.4672,-11.4818,-11.357,-11.4965,-11.5406,-11.4818,-11.4378,-11.4011,-11.3644,-11.3561,-11.3696,-11.3737,-11.3583,-11.4058,-11.487,-11.4366,-11.4979,-11.6166,-11.4635,-11.4728,-11.5725,-11.4418,-11.5128,-11.6576,-11.6231,-11.7335,-11.8921,-11.9674,-11.9865,-12.0046,-12.0706,-12.0598,-12.0296,-12.0296,-12.0296,-12.0296,-12.0296,-12.0296,-12.0499,-12.1514,-12.2123,-12.3002,-12.4897,-12.5526,-12.5985,-12.5626,-12.5564,-12.4915,-12.3311,-12.2944,-12.2869,-12.3248,-12.4007,-12.4829,-12.5334,-12.6282,-12.5348,-12.1252,-12.0951,-11.9112,-11.4462,-11.3408,-11.2678,-11.1722,-11.0711,-10.953,-10.8238,-10.8126,-10.7507,-10.6552,-10.7114,-10.762,-10.8182,-10.7091,-10.6508,-10.6618,-10.4793,-10.4199,0.0,0.0,0.0,0.0,0.0,0.0,0.0,0.0,0.0,0.0,0.0,0.0,0.0,0.0,0.0,0.0,0.0,0.0,0.0,0.0,0.0,0.0,0.0,0.0,0.0,0.0,0.0,0.0,-11.4779,-11.4101,-11.2558,-11.4028,-11.4084,-11.2453,-11.3277,-11.3717,-11.357,-11.4378,-11.4818,-11.4818,-11.5479,-11.5112,-11.357,-11.3896,-11.3976,-11.4025,-11.3772,-11.3929,-11.4209,-11.487,-11.5578,-11.6285,-11.5315,-11.5013,-11.4957,-11.4695,-11.5197,-11.6025,-11.6714,-11.7473,-11.8232,-11.9468,-11.9591,-11.9432,-12.0638,-12.0598,-12.0296,-12.0296,-12.0296,-12.0296,-12.0296,-12.0296,-12.0634,-12.2123,-12.2461,-12.3273,-12.6182,-12.6426,-12.5759,-12.5039,-12.4395,-12.3311,-12.1229,-12.1858,-12.2553,-12.1921,-12.2996,-12.3944,-12.3944,-12.5713,-12.5366,-12.1024,-12.1352,-11.981,-11.505,-11.3985,-11.3015,-11.1216,-11.0486,-10.953,-10.8238,-10.7676,-10.7283,-10.7283,-10.7283,-10.762,-10.8182,-10.7091,-10.6673,-10.7226,-10.5213,-10.4795,-9.0937,0.0,0.0,0.0,0.0,0.0,0.0,0.0,0.0,0.0,0.0,0.0,0.0,0.0,0.0,0.0,0.0,0.0,0.0,0.0,0.0,0.0,0.0,0.0,0.0,0.0,0.0,0.0,0.0,-11.4067,-11.3847,-11.392,-11.3497,-11.2411,-11.3219,-11.3791,-11.4378,-11.313,-11.3277,-11.4818,-11.4011,-11.3717,-11.357,-11.4083,-11.4262,-11.3976,-11.4377,-11.4443,-11.4453,-11.5129,-11.5955,-11.6715,-11.6097,-11.5926,-11.5805,-11.5167,-11.4965,-11.5128,-11.5404,-11.63,-11.7542,-11.8162,-11.87,-11.9227,-11.9957,-12.0191,-12.0296,-12.0296,-12.0296,-12.0296,-12.0296,-12.0296,-12.0702,-12.2123,-12.395,-12.5709,-12.6791,-12.6896,-12.6357,-12.517,-12.4603,-12.3829,-12.1608,-12.249,-12.3185,-12.249,-12.3564,-12.4512,-12.4512,-12.5524,-12.5054,-12.1846,-12.1252,-11.9777,-11.6159,-11.5458,-11.4303,-11.2991,-11.1578,-11.016,-10.8856,-10.7788,-10.7283,-10.7283,-10.7283,-10.7788,-10.88,-10.7314,-10.6673,-10.7281,-10.5704,-10.4958,-9.105,-9.1732,0.0,0.0,0.0,0.0,0.0,0.0,0.0,0.0,0.0,0.0,0.0,0.0,0.0,0.0,0.0,0.0,0.0,0.0,0.0,0.0,0.0,0.0,0.0,0.0,0.0,0.0,0.0,0.0,-11.4415,-11.392,-11.313,-11.2044,-11.2558,-11.3057,-11.357,-11.2029,-11.2102,-11.4011,-11.291,-11.2836,-11.3553,-11.3718,-11.3875,-11.3879,-11.4194,-11.4432,-11.4565,-11.5203,-11.6101,-11.6953,-11.659,-11.6356,-11.6285,-11.5596,-11.5145,-11.4714,-11.499,-11.568,-11.6783,-11.7062,-11.7741,-11.8476,-11.914,-11.9581,-11.9958,-12.0161,-12.0296,-12.0296,-12.0296,-12.0702,-12.1311,-12.2596,-12.4964,-12.6834,-12.6444,-12.6366,-12.6,-12.506,-12.4237,-12.3325,-12.1924,-12.2869,-12.3628,-12.2869,-12.4007,-12.4765,-12.4576,-12.4873,-12.4188,-12.1628,-12.0632,-11.8973,-11.6109,-11.5816,-11.4953,-11.2943,-11.1696,-11.039,-10.8856,-10.7845,-10.7283,-10.7283,-10.7283,-10.7901,-10.8963,-10.7138,-10.6673,-10.7047,-10.5922,-10.4137,0.0,0.0,0.0,0.0,0.0,0.0,0.0,0.0,0.0,0.0,0.0,0.0,0.0,0.0,0.0,0.0,0.0,0.0,0.0,0.0,0.0,0.0,0.0,0.0,0.0,0.0,0.0,0.0,-11.5993,-11.5314,-11.381,-11.3627,-11.291,-11.1295,-11.1221,-11.1221,-11.1221,-11.1221,-11.1588,-11.2396,-11.2469,-11.2656,-11.3205,-11.2999,-11.3247,-11.3685,-11.3462,-11.3797,-11.4521,-11.5391,-11.6115,-11.6736,-11.668,-11.6435,-11.6356,-11.6281,-11.5423,-11.4783,-11.5542,-11.5749,-11.5752,-11.6237,-11.6577,-11.7043,-11.8323,-11.8902,-11.9349,-12.0093,-12.0296,-12.0296,-12.0296,-12.1379,-12.2664,-12.3408,-12.5303,-12.6606,-12.4998,-12.4943,-12.4883,-12.4883,-12.3176,-12.1668,-12.1668,-12.2869,-12.3564,-12.2869,-12.4007,-12.4576,-12.3944,-12.3491,-12.2695,-12.0903,-11.9868,-11.8077,-11.4964,-11.5302,-11.4383,-11.1186,-11.0959,-11.0164,-10.8238,-10.762,-10.7283,-10.7283,-10.7283,-10.7501,-10.8157,-10.6906,-10.644,-10.6341,-10.563,-10.2219,-9.1455,0.0,0.0,0.0,0.0,0.0,0.0,0.0,0.0,0.0,0.0,0.0,0.0,0.0,0.0,0.0,0.0,0.0,0.0,0.0,0.0,0.0,0.0,0.0,0.0,0.0,0.0,0.0,-11.5993,-11.5846,-11.5387,-11.4175,-11.2941,-11.1295,-11.1221,-11.1515,-11.2102,-11.2102,-11.2469,-11.3277,-11.3864,-11.414,-11.4083,-11.4386,-11.4559,-11.463,-11.426,-11.4014,-11.3725,-11.5101,-11.5463,-11.5318,-11.7066,-11.722,-11.6548,-11.7104,-11.6328,-11.5053,-11.582,-11.565,-11.5128,-11.5821,-11.6649,-11.7467,-11.8358,-11.9014,-11.9729,-12.0544,-12.0598,-12.0296,-12.0296,-12.1379,-12.2596,-12.2799,-12.4964,-12.6606,-12.4998,-12.4943,-12.4528,-12.3513,-12.2493,-12.1668,-12.1668,-12.249,-12.2996,-12.2806,-12.3501,-12.4007,-12.3817,-12.3116,-12.2018,-12.0729,-11.9515,-11.7758,-11.6293,-11.5832,-11.4968,-11.3131,-11.176,-11.045,-10.8976,-10.7903,-10.7283,-10.7283,-10.7277,-10.721,-10.6906,-10.6508,-10.6661,-10.6998,-10.3737,-10.0172,-9.27,-9.2422,-9.2728,-9.3991,0.0,0.0,0.0,0.0,0.0,0.0,0.0,0.0,0.0,0.0,0.0,0.0,0.0,0.0,0.0,0.0,0.0,0.0,0.0,0.0,0.0,-11.5993,-11.5993,-11.5993,-11.5626,-11.5424,-11.4965,-11.3807,-11.2705,-11.1735,-11.1368,-11.1295,-11.1368,-11.1074,-11.1515,-11.2616,-11.2689,-11.3096,-11.3677,-11.3729,-11.3734,-11.3634,-11.397,-11.3725,-11.3435,-11.4666,-11.5101,-11.5173,-11.6912,-11.7399,-11.7211,-11.757,-11.6873,-11.5631,-11.6123,-11.5642,-11.4887,-11.5303,-11.6228,-11.7198,-11.7953,-11.8832,-11.9685,-12.0558,-12.0598,-12.0364,-12.0702,-12.1582,-12.2596,-12.2867,-12.4829,-12.6107,-12.4262,-12.4161,-12.4201,-12.3084,-12.2113,-12.1479,-12.2048,-12.249,-12.2996,-12.3564,-12.4007,-12.426,-12.426,-12.2509,-12.1085,-12.07,-11.8599,-11.6781,-11.5826,-11.5419,-11.4497,-11.2665,-11.141,-11.0107,-10.8749,-10.7734,-10.7283,-10.7283,-10.6993,-10.6639,-10.5932,-10.6427,-10.6323,-10.5484,-10.1761,-9.8424,-9.3647,-9.3007,-9.3174,-9.6517,-9.5477,0.0,-10.1272,-10.1272,-10.1495,0.0,0.0,0.0,0.0,0.0,0.0,0.0,0.0,0.0,0.0,0.0,0.0,0.0,0.0,0.0,-11.5993,-11.592,-11.592,-11.5846,-11.513,-11.4248,-11.3497,-11.2836,-11.2396,-11.2322,-11.1588,-11.0928,-11.012,-10.9386,-10.9826,-11.1221,-11.056,-11.11,-11.2613,-11.2029,-11.1891,-11.2131,-11.2928,-11.3218,-11.3435,-11.4087,-11.4811,-11.568,-11.655,-11.7217,-11.7681,-11.7824,-11.7333,-11.6522,-11.6404,-11.5734,-11.4873,-11.4818,-11.545,-11.6306,-11.7198,-11.8152,-11.9372,-12.0434,-12.0544,-12.0447,-12.1192,-12.1852,-12.2664,-12.3341,-12.4604,-12.5151,-12.3174,-12.3201,-12.3454,-12.2653,-12.1606,-12.1099,-12.2553,-12.2806,-12.3248,-12.4702,-12.4765,-12.4765,-12.4504,-12.1815,-11.9911,-12.0184,-11.7319,-11.5129,-11.449,-11.4374,-11.3396,-11.0995,-11.0378,-10.9422,-10.8239,-10.7734,-10.7283,-10.7283,-10.6714,-10.6131,-10.5285,-10.6323,-10.5618,-10.308,-9.9859,-9.6859,-9.6257,-9.643,-9.622,-9.4437,-9.5923,0.0,-9.466,-9.6294,0.0,0.0,0.0,0.0,0.0,0.0,0.0,0.0,0.0,0.0,0.0,0.0,0.0,0.0,0.0,0.0,-11.592,-11.5387,-11.4947,-11.4983,-11.4248,-11.3513,-11.2689,-11.2558,-11.2117,-11.1515,-11.1295,-11.1074,-11.1001,-11.0781,-11.0928,-11.1221,-11.1662,-11.1906,-11.1884,-11.2321,-11.24,-11.2131,-11.2276,-11.2711,-11.329,-11.3507,-11.4014,-11.4884,-11.6332,-11.6953,-11.7211,-11.8512,-11.8227,-11.7447,-11.6639,-11.5452,-11.3979,-11.3856,-11.4432,-11.527,-11.6648,-11.7887,-11.8769,-11.8936,-11.9685,-12.0309,-12.015,-12.1495,-12.2989,-12.3193,-12.4061,-12.4531,-12.2894,-12.295,-12.2653,-12.1417,-12.0911,-12.1099,-12.2553,-12.2806,-12.3248,-12.4702,-12.4386,-12.355,-12.2152,-12.019,-11.8397,-11.6488,-11.5066,-11.3794,-11.3213,-11.2691,-11.2226,-11.1658,-11.0198,-10.9246,-10.8852,-10.7958,-10.7283,-10.7283,-10.6646,-10.6097,-10.5467,-10.5195,-10.3898,-10.1919,-9.8254,-9.5743,-9.7218,-9.6795,-9.6517,-9.6146,-9.6666,0.0,0.0,-9.6071,0.0,0.0,0.0,0.0,0.0,0.0,0.0,0.0,0.0,0.0,0.0,0.0,0.0,0.0,0.0,0.0,-11.5367,-11.5332,-11.5112,-11.4264,-11.3513,-11.2763,-11.2396,-11.2411,-11.2176,-11.1808,-11.1808,-11.1441,-11.0619,-11.1001,-11.1001,-11.056,-11.1368,-11.163,-11.1193,-11.1539,-11.1404,-11.1094,-11.1867,-11.2276,-11.2783,-11.358,-11.4377,-11.5173,-11.6405,-11.7419,-11.8143,-11.894,-11.8625,-11.7785,-11.672,-11.56,-11.4259,-11.3824,-11.4349,-11.5473,-11.6576,-11.8301,-11.9596,-11.89,-11.9713,-12.066,-11.9957,-12.1442,-12.2921,-12.2768,-12.3363,-12.3567,-12.2369,-12.2057,-12.1329,-12.0468,-12.0467,-12.1036,-12.2111,-12.23,-12.2616,-12.3691,-12.3501,-12.3116,-12.2264,-11.972,-11.7732,-11.6799,-11.4757,-11.3271,-11.24,-11.2284,-11.2052,-11.1413,-10.991,-10.9074,-10.9074,-10.7902,-10.7056,-10.6374,-10.602,-10.5424,-10.4524,-10.293,-10.1449,-10.0038,-9.669,-9.4067,-9.8983,-9.8121,-9.7849,-9.889,-9.8221,-9.7409,0.0,0.0,0.0,0.0,0.0,0.0,0.0,0.0,0.0,0.0,0.0,0.0,0.0,0.0,0.0,0.0,0.0,0.0,0.0,-11.4378,-11.4287,-11.3676,-11.2249,-11.1646,-11.2396,-11.2322,-11.2176,-11.2176,-11.2176,-11.1515,-11.0252,-11.0707,-11.0707,-11.0193,-11.0707,-11.0913,-11.0717,-11.0517,-11.0312,-11.0319,-11.1432,-11.1986,-11.2421,-11.3725,-11.4811,-11.5753,-11.6622,-11.7781,-11.9012,-11.8874,-11.8445,-11.7426,-11.6518,-11.5365,-11.4453,-11.3785,-11.454,-11.6025,-11.7128,-11.8714,-12.0013,-11.9121,-11.9933,-12.0943,-12.0025,-12.1442,-12.2921,-12.2683,-12.2708,-12.2569,-12.1779,-12.1052,-12.0377,-11.9709,-12.0088,-12.0783,-12.1605,-12.1668,-12.1984,-12.268,-12.268,-12.2422,-12.2289,-11.9513,-11.7456,-11.7369,-11.5075,-11.3097,-11.1936,-11.2284,-11.211,-11.0673,-10.9795,-10.9074,-10.8852,-10.7958,-10.6602,-10.5513,-10.5513,-10.4821,-10.3078,-10.0706,-9.8998,-9.8357,-9.5213,-9.2579,-10.4196,-10.4745,-10.4462,-10.0494,-10.1783,-10.2534,-9.6348,0.0,-9.8003,-9.5551,0.0,0.0,0.0,0.0,0.0,0.0,0.0,0.0,0.0,0.0,0.0,0.0,0.0,0.0,0.0,-11.0371,-11.0682,-11.3424,-11.0148,-10.9416,-11.2249,-11.1735,-11.1295,-11.1295,-11.1295,-11.1221,-11.1148,-11.0414,-11.0414,-11.1074,-11.0414,-11.0164,-11.039,-11.0444,-11.0509,-11.0755,-11.0972,-11.1841,-11.3218,-11.3435,-11.4304,-11.5753,-11.6622,-11.7419,-11.8184,-11.8011,-11.7466,-11.6559,-11.4797,-11.365,-11.2862,-11.2678,-11.4018,-11.6231,-11.8301,-11.8715,-11.8577,-11.9468,-11.9807,-12.0008,-12.026,-12.174,-12.3141,-12.2921,-12.296,-12.2566,-12.1804,-12.0721,-11.9772,-11.9646,-11.9772,-12.0151,-12.1479,-12.1668,-12.1984,-12.268,-12.2237,-12.1402,-12.0781,-11.8472,-11.6495,-11.5618,-11.3908,-11.2633,-11.1936,-11.1936,-11.1426,-11.0293,-10.9517,-10.8909,-10.8239,-10.7734,-10.6602,-10.5513,-10.5513,-10.4069,-10.0944,-9.8859,-9.7936,-9.7742,-9.4208,-9.2038,-10.502,-10.5994,-10.6375,-10.3107,-10.3704,-10.363,-9.8358,-9.7403,-9.7409,-9.6517,0.0,0.0,0.0,0.0,0.0,0.0,-9.7138,0.0,0.0,0.0,0.0,0.0,0.0,0.0,0.0,0.0,0.0,0.0,-10.9299,-10.8668,-11.0928,-11.1074,-11.1221,-11.1221,-11.1221,-11.1001,-11.0472,-11.1133,-11.1353,-11.1206,-11.1279,-11.1426,-11.132,-11.0663,-11.0676,-11.1022,-11.1479,-11.2276,-11.329,-11.3797,-11.4666,-11.568,-11.6115,-11.6984,-11.8111,-11.7902,-11.7304,-11.6233,-11.3894,-11.3172,-11.3291,-11.312,-11.43,-11.6094,-11.7473,-11.8232,-11.8505,-11.9464,-12.0008,-12.02,-12.0513,-12.1932,-12.3057,-12.3311,-12.2367,-12.141,-12.1148,-11.964,-11.8571,-11.9014,-11.9393,-11.9962,-12.0973,-12.1099,-12.1163,-12.097,-12.1163,-12.116,-12.101,-11.8263,-11.6365,-11.6618,-11.4444,-11.2691,-11.24,-11.2469,-11.1966,-11.1167,-10.9817,-10.8749,-10.8241,-10.7507,-10.6602,-10.5513,-10.5513,-10.3835,-10.0705,-9.872,-9.72,-9.5964,-9.3321,-9.1666,-10.7298,-10.8267,-10.9019,-10.5476,-10.4653,-10.3747,-9.9475,-9.8375,-9.83,-9.8523,-9.8449,0.0,0.0,0.0,-9.6101,-9.6104,0.0,-9.7507,0.0,0.0,0.0,0.0,0.0,0.0,0.0,0.0,0.0,-10.965,-10.7426,-10.6912,-10.9211,-10.9973,-11.0414,-11.0928,-11.1148,-11.0854,-10.9959,-11.1646,-11.2013,-11.119,-11.2216,-11.2526,-11.2249,-11.1431,-11.1279,-11.1964,-11.2302,-11.2928,-11.3725,-11.4014,-11.4811,-11.568,-11.5463,-11.6477,-11.7966,-11.7614,-11.6834,-11.5788,-11.3543,-11.2851,-11.3127,-11.3679,-11.4921,-11.63,-11.7199,-11.8232,-11.9189,-12.0008,-12.0131,-12.0182,-12.0626,-12.1563,-12.2429,-12.2489,-12.1507,-12.0388,-11.9848,-11.8689,-11.775,-11.8192,-11.8824,-11.9393,-11.9834,-12.015,-12.0341,-11.9771,-12.0024,-12.0465,-12.071,-11.7909,-11.6184,-11.728,-11.4209,-11.2458,-11.2817,-11.2486,-11.1922,-11.1181,-10.9599,-10.8637,-10.7957,-10.7507,-10.6829,-10.5743,-10.5513,-10.3781,-10.0172,-9.8424,-9.6459,-9.406,-9.2442,-9.1435,-11.2872,-11.3733,-11.3844,-10.7031,-10.5053,-10.338,-9.8121,-9.9853,-10.209,-10.0529,-10.3279,-10.5285,-10.2907,-10.2315,-10.1574,-9.9871,-9.9427,0.0,0.0,0.0,0.0,0.0,0.0,0.0,0.0,0.0,0.0,-10.639,-10.3475,-10.3421,-10.7524,-10.7672,-10.8444,-10.9944,-11.0766,-11.0781,-10.9987,-11.153,-11.2044,-11.1221,-11.2803,-11.3333,-11.2794,-11.2712,-11.2926,-11.3201,-11.3297,-11.368,-11.4377,-11.358,-11.4232,-11.5608,-11.4811,-11.597,-11.7966,-11.6968,-11.6208,-11.5343,-11.3431,-11.2155,-11.1748,-11.3886,-11.568,-11.7266,-11.823,-11.9121,-11.9939,-12.1089,-12.0036,-11.8994,-12.049,-12.0598,-12.0194,-11.9621,-12.012,-11.9913,-11.8047,-11.7529,-11.75,-11.7623,-11.775,-11.7627,-11.7687,-11.8887,-11.9646,-11.9772,-11.9646,-11.9326,-11.8332,-11.6798,-11.5951,-11.6237,-11.3087,-11.1484,-11.2607,-11.1743,-11.055,-10.9203,-10.8693,-10.7957,-10.7395,-10.7283,-10.7056,-10.643,-10.5743,-10.3313,-9.872,-9.7936,-9.5765,-9.182,-9.1291,-9.105,-11.4906,-11.6713,-11.7306,-11.1185,-10.9824,-10.8401,-10.2745,-10.2923,-10.3768,-10.245,-10.5058,-10.6621,-10.3352,-10.2758,-10.1944,-9.9354,-9.8834,-9.839,0.0,0.0,0.0,0.0,0.0,0.0,0.0,0.0,0.0,-10.4587,-10.2222,-10.2212,-10.5799,-10.6511,-10.7305,-10.8376,-10.9196,-11.0032,-11.0781,-11.1865,-11.2528,-11.2763,-11.392,-11.4049,-11.3627,-11.3078,-11.3053,-11.3218,-11.3362,-11.3507,-11.3652,-11.4014,-11.4087,-11.4232,-11.4956,-11.6115,-11.717,-11.6824,-11.6782,-11.6773,-11.4909,-11.3645,-11.3059,-11.3804,-11.4512,-11.5412,-11.7267,-11.7669,-11.7923,-12.0445,-12.015,-11.9228,-12.0786,-12.1125,-12.0869,-12.0288,-11.9723,-11.8974,-11.7789,-11.6701,-11.6549,-11.737,-11.8002,-11.8382,-11.832,-11.8761,-11.8761,-11.8316,-11.9139,-11.9263,-11.8332,-11.6798,-11.5831,-11.5642,-11.3205,-11.1832,-11.2665,-11.2101,-11.1018,-10.9705,-10.931,-10.8575,-10.7901,-10.7507,-10.7056,-10.643,-10.4479,-10.1791,-9.8668,-9.6757,-9.4263,-9.1868,-9.1291,-9.1243,-11.7,-11.8547,-11.8986,-11.4329,-11.3266,-11.2126,-10.6868,-10.7279,-10.8276,-10.6887,-10.8761,-11.0185,-10.8101,-10.6317,-10.4536,-10.2314,-10.1054,-9.9348,0.0,-9.6326,0.0,0.0,0.0,0.0,0.0,0.0,0.0,-10.1697,-10.0283,-10.0435,0.0,-10.4191,-10.5715,-10.7146,-10.8464,-10.9724,-11.0766,-11.2086,-11.2969,-11.326,-11.4507,-11.4947,-11.4488,-11.3805,-11.3624,-11.3696,-11.3696,-11.3552,-11.329,-11.3607,-11.3752,-11.3797,-11.4232,-11.5391,-11.6881,-11.6788,-11.6824,-11.6773,-11.5199,-11.4071,-11.3421,-11.3657,-11.4098,-11.5,-11.658,-11.7258,-11.8059,-12.0366,-12.0001,-11.9363,-12.0973,-12.0973,-12.0243,-11.9409,-11.8733,-11.8086,-11.6699,-11.6202,-11.6106,-11.6991,-11.7623,-11.7876,-11.7939,-11.7939,-11.775,-11.7678,-11.8632,-11.8694,-11.6799,-11.6088,-11.5442,-11.4189,-11.2025,-11.0928,-11.1014,-11.1189,-11.0781,-10.9474,-10.9081,-10.8575,-10.7901,-10.7507,-10.7785,-10.8659,-10.4723,-10.2007,-10.079,-9.6668,-9.3759,-9.1579,-9.1387,-9.1435]}]]